[[{"header":{"parameterUnit":"m.s-1","parameterCategory":1,"la1":31.0,"la2":29.5877,"lo1":-88.7671,"lo2":-86.6584,"dy":0.0162,"dx":0.0185,"nx":115,"ny":88,"refTime":"2023-04-06T00:00:00:Z","depth":0,"parameterNumber":2,"parameterNumberName":"U-component_of_WINDS"},"data":[0.0,0.0,0.0,0.0,0.0,0.0,0.0,0.0,0.0,0.0,0.0,0.0,0.0,0.0,0.0,0.0,0.0,0.0,0.0,0.0,0.0,0.0,0.0,0.0,0.0,0.0,0.0,0.0,0.0,0.0,0.0,0.0,0.0,0.0,0.0,0.0,0.0,0.0,0.0,0.0,0.0,0.0,0.0,0.0,0.0,0.0,0.0,0.0,0.0,0.0,0.0,0.0,0.0,0.0,0.0,0.0,0.0,0.0,0.0,0.0,0.0,0.0,0.0,0.0,0.0,0.0,0.0,0.0,0.0,0.0,0.0,0.0,0.0,0.0,0.0,0.0,0.0,0.0,0.0,0.0,0.0,0.0,0.0,0.0,0.0,0.0,0.0,0.0,0.0,0.0,0.0,0.0,0.0,0.0,0.0,0.0,0.0,0.0,0.0,0.0,0.0,0.0,0.0,0.0,0.0,0.0,0.0,0.0,0.0,0.0,0.0,0.0,0.0,0.0,0.0,0.0,0.0,0.0,0.0,0.0,0.0,0.0,0.0,0.0,0.0,0.0,0.0,0.0,0.0,0.0,0.0,0.0,0.0,0.0,0.0,0.0,0.0,0.0,0.0,0.0,0.0,0.0,0.0,0.0,0.0,0.0,0.0,0.0,0.0,0.0,0.0,0.0,0.0,0.0,0.0,0.0,0.0,0.0,0.0,0.0,0.0,0.0,0.0,0.0,0.0,0.0,0.0,0.0,0.0,0.0,0.0,0.0,0.0,0.0,0.0,0.0,0.0,0.0,0.0,0.0,0.0,0.0,0.0,0.0,0.0,0.0,0.0,0.0,0.0,0.0,0.0,0.0,0.0,0.0,0.0,0.0,0.0,0.0,0.0,0.0,0.0,0.0,0.0,0.0,0.0,0.0,0.0,0.0,0.0,0.0,0.0,0.0,0.0,0.0,0.0,0.0,0.0,0.0,0.0,0.0,0.0,0.0,0.0,0.0,0.0,0.0,0.0,0.0,0.0,0.0,0.0,0.0,0.0,0.0,0.0,0.0,0.0,0.0,0.0,0.0,0.0,0.0,0.0,0.0,0.0,0.0,0.0,0.0,0.0,0.0,0.0,0.0,0.0,0.0,0.0,0.0,0.0,0.0,0.0,0.0,0.0,0.0,0.0,0.0,0.0,0.0,0.0,0.0,0.0,0.0,0.0,0.0,0.0,0.0,0.0,0.0,0.0,0.0,0.0,0.0,0.0,0.0,0.0,0.0,0.0,0.0,0.0,0.0,0.0,0.0,0.0,0.0,0.0,0.0,0.0,0.0,0.0,0.0,0.0,0.0,0.0,0.0,0.0,0.0,0.0,0.0,0.0,0.0,0.0,0.0,0.0,0.0,0.0,0.0,0.0,0.0,0.0,0.0,0.0,0.0,0.0,0.0,0.0,0.0,0.0,0.0,0.0,0.0,0.0,0.0,0.0,0.0,0.0,0.0,0.0,0.0,0.0,0.0,0.0,0.0,0.0,0.0,0.0,0.0,0.0,0.0,0.0,0.0,0.0,0.0,0.0,0.0,0.0,0.0,0.0,0.0,0.0,0.0,0.0,0.0,0.0,0.0,0.0,0.0,0.0,0.0,0.0,0.0,0.0,0.0,0.0,0.0,0.0,0.0,0.0,0.0,0.0,0.0,0.0,0.0,0.0,0.0,0.0,0.0,0.0,0.0,0.0,0.0,0.0,0.0,0.0,0.0,0.0,0.0,0.0,0.0,0.0,0.0,0.0,0.0,0.0,0.0,0.0,0.0,0.0,0.0,0.0,0.0,0.0,0.0,0.0,0.0,0.0,0.0,0.0,0.0,0.0,0.0,0.0,0.0,0.0,0.0,0.0,0.0,0.0,0.0,0.0,0.0,0.0,0.0,0.0,0.0,0.0,0.0,0.0,0.0,0.0,0.0,0.0,0.0,0.0,0.0,0.0,0.0,0.0,0.0,0.0,0.0,0.0,0.0,0.0,0.0,0.0,0.0,0.0,0.0,0.0,0.0,0.0,0.0,0.0,0.0,0.0,0.0,0.0,0.0,0.0,0.0,0.0,0.0,0.0,0.0,0.0,0.0,0.0,0.0,0.0,0.0,0.0,0.0,0.0,0.0,0.0,0.0,0.0,0.0,0.0,0.0,0.0,0.0,0.0,0.0,0.0,0.0,0.0,0.0,0.0,0.0,0.0,0.0,0.0,0.0,0.0,0.0,0.0,0.0,0.0,0.0,0.0,0.0,0.0,0.0,0.0,0.0,0.0,0.0,0.0,0.0,0.0,0.0,0.0,0.0,0.0,0.0,0.0,0.0,0.0,0.0,0.0,0.0,0.0,0.0,0.0,0.0,0.0,0.0,0.0,0.0,0.0,0.0,0.0,0.0,0.0,0.0,0.0,0.0,0.0,0.0,0.0,0.0,0.0,0.0,0.0,0.0,0.0,0.0,0.0,0.0,0.0,0.0,0.0,0.0,0.0,0.0,0.0,0.0,0.0,0.0,0.0,0.0,0.0,0.0,0.0,0.0,0.0,0.0,0.0,0.0,0.0,0.0,0.0,0.0,0.0,0.0,0.0,0.0,0.0,0.0,0.0,0.0,0.0,0.0,0.0,0.0,0.0,0.0,0.0,0.0,0.0,0.0,0.0,0.0,0.0,0.0,0.0,0.0,0.0,0.0,0.0,0.0,0.0,0.0,0.0,0.0,0.0,0.0,0.0,0.0,0.0,0.0,0.0,0.0,0.0,0.0,0.0,0.0,0.0,0.0,0.0,0.0,0.0,0.0,0.0,0.0,0.0,0.0,0.0,0.0,0.0,0.0,0.0,0.0,0.0,0.0,0.0,0.0,0.0,0.0,0.0,0.0,0.0,0.0,0.0,0.0,0.0,0.0,0.0,0.0,0.0,0.0,0.0,0.0,0.0,0.0,0.0,0.0,0.0,0.0,0.0,0.0,0.0,0.0,0.0,0.0,0.0,0.0,0.0,0.0,0.0,0.0,0.0,0.0,0.0,0.0,0.0,0.0,0.0,0.0,0.0,0.0,0.0,0.0,0.0,0.0,0.0,0.0,0.0,0.0,0.0,0.0,0.0,0.0,0.0,0.0,0.0,0.0,0.0,0.0,0.0,0.0,0.0,0.0,0.0,0.0,0.0,0.0,0.0,0.0,0.0,0.0,0.0,0.0,0.0,0.0,0.0,0.0,0.0,0.0,0.0,0.0,0.0,0.0,0.0,0.0,0.0,0.0,0.0,0.0,0.0,0.0,0.0,0.0,0.0,0.0,0.0,0.0,0.0,0.0,0.0,0.0,0.0,0.0,0.0,0.0,0.0,0.0,0.0,0.0,0.0,0.0,0.0,0.0,0.0,0.0,0.0,0.0,0.0,0.0,0.0,0.0,0.0,0.0,0.0,0.0,0.0,0.0,0.0,0.0,0.0,0.0,0.0,0.0,0.0,0.0,0.0,0.0,0.0,0.0,0.0,0.0,0.0,0.0,0.0,0.0,0.0,0.0,0.0,0.0,0.0,0.0,0.0,0.0,0.0,0.0,0.0,0.0,0.0,0.0,0.0,0.0,0.0,0.0,0.0,0.0,0.0,0.0,0.0,0.0,0.0,0.0,0.0,0.0,0.0,0.0,0.0,0.0,0.0,0.0,0.0,0.0,0.0,0.0,0.0,0.0,0.0,0.0,0.0,0.0,0.0,0.0,0.0,0.0,0.0,0.0,0.0,0.0,0.0,0.0,0.0,0.0,0.0,0.0,0.0,0.0,0.0,0.0,0.0,0.0,0.0,0.0,0.0,0.0,0.0,0.0,0.0,0.0,0.0,0.0,0.0,0.0,0.0,0.0,0.0,0.0,0.0,0.0,0.0,0.0,0.0,0.0,0.0,0.0,0.0,0.0,0.0,0.0,0.0,0.0,0.0,0.0,0.0,0.0,0.0,0.0,0.0,0.0,0.0,0.0,0.0,0.0,0.0,0.0,0.0,0.0,0.0,0.0,0.0,0.0,0.0,0.0,0.0,0.0,0.0,0.0,0.0,0.0,0.0,0.0,0.0,0.0,0.0,0.0,0.0,0.0,0.0,0.0,0.0,0.0,0.0,0.0,0.0,0.0,0.0,0.0,0.0,0.0,0.0,0.0,0.0,0.0,0.0,0.0,0.0,0.0,0.0,0.0,0.0,0.0,0.0,0.0,0.0,0.0,0.0,0.0,0.0,0.0,0.0,0.0,0.0,0.0,0.0,0.0,0.0,0.0,0.0,0.0,-1.828,0.0,0.0,0.0,0.0,0.0,0.0,0.0,0.0,0.0,0.0,0.0,0.0,0.0,0.0,0.0,0.0,0.0,0.0,0.0,0.0,0.0,0.0,0.0,0.0,0.0,0.0,0.0,0.0,0.0,0.0,0.0,0.0,0.0,0.0,0.0,0.0,0.0,0.0,0.0,0.0,0.0,0.0,0.0,0.0,0.0,0.0,0.0,0.0,0.0,0.0,0.0,0.0,0.0,0.0,0.0,0.0,0.0,0.0,0.0,0.0,0.0,0.0,0.0,0.0,0.0,0.0,0.0,0.0,0.0,0.0,0.0,0.0,0.0,0.0,0.0,0.0,0.0,0.0,0.0,0.0,0.0,0.0,0.0,0.0,0.0,0.0,0.0,0.0,0.0,0.0,0.0,0.0,0.0,0.0,0.0,0.0,0.0,0.0,0.0,0.0,0.0,0.0,0.0,0.0,0.0,0.0,0.0,0.0,0.0,0.0,-1.7203,-1.7484,-1.7653,-1.7805,-1.7982,0.0,0.0,0.0,0.0,0.0,0.0,0.0,0.0,0.0,0.0,0.0,0.0,0.0,0.0,0.0,0.0,0.0,0.0,0.0,0.0,0.0,0.0,0.0,0.0,0.0,0.0,0.0,0.0,0.0,0.0,0.0,0.0,0.0,0.0,0.0,0.0,0.0,0.0,0.0,0.0,0.0,0.0,0.0,0.0,0.0,0.0,0.0,0.0,0.0,0.0,0.0,0.0,0.0,0.0,0.0,0.0,0.0,0.0,0.0,0.0,0.0,0.0,0.0,0.0,0.0,0.0,0.0,0.0,0.0,0.0,0.0,0.0,0.0,0.0,0.0,0.0,0.0,0.0,0.0,0.0,0.0,0.0,0.0,0.0,0.0,0.0,0.0,0.0,0.0,0.0,0.0,0.0,0.0,0.0,0.0,0.0,0.0,0.0,0.0,0.0,0.0,0.0,0.0,0.0,0.0,0.0,0.0,0.0,0.0,0.0,0.0,0.0,-1.7296,-1.7537,-1.776,0.0,0.0,0.0,0.0,0.0,0.0,0.0,0.0,0.0,0.0,0.0,0.0,0.0,0.0,0.0,0.0,0.0,0.0,0.0,0.0,0.0,0.0,0.0,0.0,0.0,0.0,0.0,0.0,0.0,0.0,0.0,0.0,0.0,0.0,0.0,0.0,0.0,0.0,0.0,0.0,0.0,0.0,0.0,0.0,0.0,0.0,0.0,0.0,0.0,0.0,0.0,0.0,0.0,0.0,0.0,0.0,0.0,0.0,0.0,0.0,0.0,0.0,0.0,0.0,0.0,0.0,0.0,0.0,0.0,0.0,0.0,0.0,0.0,0.0,0.0,0.0,0.0,0.0,0.0,0.0,0.0,0.0,0.0,0.0,0.0,0.0,0.0,0.0,0.0,0.0,0.0,0.0,0.0,0.0,0.0,0.0,0.0,0.0,0.0,0.0,0.0,0.0,0.0,0.0,0.0,0.0,0.0,0.0,0.0,0.0,-1.6557,-1.6828,-1.7039,0.0,-1.7676,0.0,0.0,0.0,0.0,0.0,0.0,0.0,0.0,0.0,0.0,0.0,0.0,0.0,0.0,0.0,0.0,0.0,0.0,0.0,0.0,0.0,0.0,0.0,0.0,0.0,0.0,0.0,0.0,0.0,0.0,0.0,0.0,0.0,0.0,0.0,0.0,0.0,0.0,0.0,0.0,0.0,0.0,0.0,0.0,0.0,0.0,0.0,0.0,0.0,0.0,0.0,0.0,0.0,0.0,0.0,0.0,0.0,0.0,0.0,0.0,0.0,0.0,0.0,0.0,0.0,0.0,0.0,0.0,0.0,0.0,0.0,0.0,0.0,0.0,0.0,0.0,0.0,0.0,0.0,0.0,0.0,0.0,0.0,0.0,0.0,0.0,0.0,0.0,0.0,0.0,0.0,0.0,0.0,0.0,0.0,0.0,0.0,0.0,0.0,0.0,0.0,0.0,0.0,0.0,0.0,0.0,0.0,0.0,0.0,0.0,-1.6396,-1.6672,-1.703,-1.7337,0.0,0.0,0.0,0.0,0.0,0.0,0.0,0.0,0.0,0.0,0.0,0.0,0.0,0.0,0.0,0.0,0.0,0.0,0.0,0.0,0.0,0.0,0.0,0.0,0.0,0.0,0.0,0.0,0.0,0.0,0.0,0.0,0.0,0.0,0.0,0.0,0.0,0.0,0.0,0.0,0.0,0.0,0.0,0.0,0.0,0.0,0.0,0.0,0.0,0.0,0.0,0.0,0.0,0.0,0.0,0.0,0.0,0.0,0.0,0.0,0.0,0.0,0.0,0.0,0.0,0.0,0.0,0.0,0.0,0.0,0.0,0.0,0.0,0.0,0.0,0.0,0.0,0.0,0.0,0.0,0.0,0.0,0.0,0.0,0.0,0.0,0.0,0.0,0.0,0.0,0.0,0.0,0.0,0.0,0.0,0.0,0.0,0.0,0.0,0.0,0.0,0.0,0.0,0.0,0.0,0.0,0.0,0.0,0.0,0.0,-1.6055,-1.6371,-1.6691,-1.7063,-1.7317,-1.7444,0.0,0.0,0.0,0.0,0.0,0.0,0.0,0.0,0.0,0.0,0.0,0.0,0.0,0.0,0.0,0.0,0.0,0.0,0.0,0.0,0.0,0.0,0.0,0.0,0.0,0.0,0.0,0.0,0.0,0.0,0.0,0.0,0.0,0.0,0.0,0.0,0.0,0.0,0.0,0.0,0.0,0.0,0.0,0.0,0.0,0.0,0.0,0.0,0.0,0.0,0.0,0.0,0.0,0.0,0.0,0.0,0.0,0.0,0.0,0.0,0.0,0.0,0.0,0.0,0.0,0.0,0.0,0.0,0.0,0.0,0.0,0.0,0.0,0.0,0.0,0.0,0.0,0.0,0.0,0.0,0.0,0.0,0.0,0.0,0.0,0.0,0.0,0.0,0.0,0.0,0.0,0.0,0.0,0.0,0.0,0.0,0.0,0.0,0.0,0.0,0.0,0.0,0.0,0.0,0.0,0.0,0.0,0.0,-1.5885,-1.6165,-1.6492,-1.6879,-1.7099,-1.7232,0.0,0.0,0.0,0.0,0.0,0.0,0.0,0.0,0.0,0.0,0.0,0.0,0.0,0.0,0.0,0.0,0.0,0.0,0.0,0.0,0.0,0.0,0.0,0.0,0.0,0.0,0.0,0.0,0.0,0.0,0.0,0.0,0.0,0.0,0.0,0.0,0.0,0.0,0.0,0.0,0.0,0.0,0.0,0.0,0.0,0.0,0.0,0.0,0.0,0.0,0.0,0.0,0.0,0.0,0.0,0.0,0.0,0.0,0.0,0.0,0.0,0.0,0.0,0.0,0.0,0.0,0.0,0.0,0.0,0.0,0.0,0.0,0.0,0.0,0.0,0.0,0.0,0.0,0.0,0.0,0.0,0.0,0.0,0.0,0.0,0.0,0.0,0.0,0.0,0.0,0.0,0.0,0.0,0.0,0.0,0.0,0.0,0.0,0.0,0.0,0.0,0.0,0.0,0.0,0.0,0.0,0.0,0.0,0.0,-1.6136,-1.6463,-1.6727,-1.6959,-1.7111,-1.7236,0.0,0.0,0.0,0.0,0.0,0.0,0.0,0.0,0.0,0.0,0.0,0.0,0.0,0.0,0.0,0.0,0.0,0.0,0.0,0.0,0.0,0.0,0.0,0.0,0.0,0.0,0.0,0.0,0.0,0.0,0.0,0.0,0.0,0.0,0.0,0.0,0.0,0.0,0.0,0.0,0.0,0.0,0.0,0.0,0.0,0.0,0.0,0.0,0.0,0.0,0.0,0.0,0.0,0.0,0.0,0.0,0.0,0.0,0.0,0.0,0.0,0.0,0.0,0.0,0.0,0.0,0.0,0.0,0.0,0.0,0.0,0.0,0.0,0.0,0.0,0.0,0.0,0.0,0.0,0.0,0.0,0.0,0.0,0.0,0.0,0.0,0.0,0.0,0.0,0.0,0.0,0.0,0.0,0.0,0.0,0.0,0.0,0.0,0.0,0.0,0.0,0.0,0.0,0.0,0.0,0.0,0.0,0.0,0.0,-1.6448,0.0,-1.6902,-1.6972,-1.7061,-1.7165,0.0,0.0,0.0,0.0,0.0,0.0,0.0,0.0,0.0,0.0,0.0,0.0,0.0,0.0,0.0,0.0,0.0,0.0,0.0,0.0,0.0,0.0,0.0,0.0,0.0,0.0,0.0,0.0,0.0,0.0,0.0,0.0,0.0,0.0,0.0,0.0,0.0,0.0,0.0,0.0,0.0,0.0,0.0,0.0,0.0,0.0,0.0,0.0,0.0,0.0,0.0,0.0,0.0,0.0,0.0,0.0,0.0,0.0,0.0,0.0,0.0,0.0,0.0,0.0,0.0,0.0,0.0,0.0,0.0,0.0,0.0,0.0,0.0,0.0,0.0,0.0,0.0,0.0,0.0,0.0,0.0,0.0,0.0,0.0,0.0,0.0,0.0,0.0,0.0,0.0,0.0,0.0,0.0,0.0,0.0,0.0,0.0,0.0,0.0,0.0,0.0,0.0,0.0,0.0,0.0,0.0,0.0,0.0,-1.6543,-1.6789,-1.6914,-1.6972,-1.6908,-1.6988,-1.6998,0.0,0.0,0.0,0.0,0.0,0.0,0.0,0.0,0.0,0.0,0.0,0.0,0.0,0.0,0.0,0.0,0.0,0.0,0.0,0.0,0.0,0.0,0.0,0.0,0.0,0.0,0.0,0.0,0.0,0.0,0.0,0.0,0.0,0.0,0.0,0.0,0.0,0.0,0.0,0.0,0.0,0.0,0.0,0.0,0.0,0.0,0.0,0.0,0.0,0.0,0.0,0.0,0.0,0.0,0.0,0.0,0.0,0.0,0.0,0.0,0.0,0.0,0.0,0.0,0.0,0.0,0.0,0.0,0.0,0.0,0.0,0.0,0.0,0.0,0.0,0.0,0.0,0.0,0.0,0.0,0.0,0.0,0.0,0.0,0.0,0.0,0.0,0.0,0.0,0.0,0.0,0.0,0.0,0.0,0.0,0.0,0.0,0.0,0.0,0.0,0.0,0.0,0.0,0.0,0.0,0.0,0.0,0.0,0.0,-1.7083,-1.7111,-1.7115,-1.7045,-1.701,-1.693,0.0,0.0,0.0,0.0,0.0,0.0,0.0,0.0,0.0,0.0,0.0,0.0,0.0,0.0,0.0,0.0,0.0,0.0,0.0,0.0,0.0,0.0,0.0,0.0,0.0,0.0,0.0,0.0,0.0,0.0,0.0,0.0,0.0,0.0,0.0,0.0,0.0,0.0,0.0,0.0,0.0,0.0,0.0,0.0,0.0,0.0,0.0,0.0,0.0,0.0,0.0,0.0,0.0,0.0,0.0,0.0,0.0,0.0,0.0,0.0,0.0,0.0,0.0,0.0,0.0,0.0,0.0,0.0,0.0,0.0,0.0,0.0,0.0,0.0,0.0,0.0,0.0,0.0,0.0,0.0,0.0,0.0,0.0,0.0,0.0,0.0,0.0,0.0,0.0,0.0,0.0,0.0,0.0,0.0,0.0,0.0,0.0,0.0,0.0,0.0,0.0,0.0,0.0,0.0,0.0,0.0,0.0,0.0,0.0,-1.7306,-1.7248,-1.7149,-1.7057,-1.6956,-1.6808,-1.6646,0.0,0.0,0.0,0.0,0.0,0.0,0.0,0.0,0.0,0.0,0.0,0.0,0.0,0.0,0.0,0.0,0.0,0.0,0.0,0.0,0.0,0.0,0.0,0.0,0.0,0.0,0.0,0.0,0.0,0.0,0.0,0.0,0.0,0.0,0.0,0.0,0.0,0.0,0.0,0.0,0.0,0.0,0.0,0.0,0.0,0.0,0.0,0.0,0.0,0.0,0.0,0.0,0.0,0.0,0.0,0.0,0.0,0.0,0.0,0.0,0.0,0.0,0.0,0.0,0.0,0.0,0.0,0.0,0.0,0.0,0.0,0.0,0.0,0.0,0.0,0.0,0.0,0.0,0.0,0.0,0.0,0.0,0.0,0.0,0.0,0.0,0.0,0.0,0.0,0.0,0.0,0.0,0.0,0.0,0.0,0.0,0.0,0.0,0.0,0.0,0.0,0.0,0.0,0.0,0.0,0.0,0.0,0.0,-1.7484,-1.7306,-1.7124,-1.6998,-1.6805,-1.663,0.0,0.0,0.0,0.0,0.0,0.0,0.0,0.0,0.0,0.0,0.0,0.0,0.0,0.0,0.0,0.0,0.0,0.0,0.0,0.0,0.0,0.0,0.0,0.0,0.0,0.0,0.0,0.0,0.0,0.0,0.0,0.0,0.0,0.0,0.0,0.0,0.0,0.0,0.0,0.0,0.0,0.0,0.0,0.0,0.0,0.0,0.0,0.0,0.0,0.0,0.0,0.0,0.0,0.0,0.0,0.0,0.0,0.0,0.0,0.0,0.0,0.0,0.0,0.0,0.0,0.0,0.0,0.0,0.0,0.0,0.0,0.0,0.0,0.0,0.0,0.0,0.0,0.0,0.0,0.0,0.0,0.0,0.0,0.0,0.0,0.0,0.0,0.0,0.0,0.0,0.0,0.0,0.0,0.0,0.0,0.0,0.0,0.0,0.0,0.0,0.0,0.0,0.0,0.0,0.0,0.0,0.0,0.0,0.0,-1.7491,-1.7289,-1.7133,-1.6996,-1.6802,-1.6604,0.0,0.0,0.0,0.0,0.0,0.0,0.0,0.0,0.0,0.0,0.0,0.0,0.0,0.0,0.0,0.0,0.0,0.0,0.0,0.0,0.0,0.0,0.0,0.0,0.0,0.0,0.0,0.0,0.0,0.0,0.0,0.0,0.0,0.0,0.0,0.0,0.0,0.0,0.0,0.0,0.0,0.0,0.0,0.0,0.0,0.0,0.0,0.0,0.0,0.0,0.0,0.0,0.0,0.0,0.0,0.0,0.0,0.0,0.0,0.0,0.0,0.0,0.0,0.0,0.0,0.0,0.0,0.0,0.0,0.0,0.0,0.0,0.0,0.0,0.0,0.0,0.0,0.0,0.0,0.0,0.0,0.0,0.0,0.0,0.0,0.0,0.0,0.0,0.0,0.0,0.0,0.0,0.0,0.0,0.0,0.0,0.0,0.0,0.0,0.0,0.0,0.0,0.0,0.0,0.0,0.0,0.0,0.0,-1.7549,-1.7451,-1.7306,-1.712,-1.6917,-1.6722,-1.6499,0.0,0.0,0.0,0.0,0.0,0.0,0.0,0.0,0.0,0.0,0.0,0.0,0.0,0.0,0.0,0.0,0.0,0.0,0.0,0.0,0.0,0.0,0.0,0.0,0.0,0.0,0.0,0.0,0.0,0.0,0.0,0.0,0.0,0.0,0.0,0.0,0.0,0.0,0.0,0.0,0.0,0.0,0.0,0.0,0.0,0.0,0.0,0.0,0.0,0.0,0.0,0.0,0.0,0.0,0.0,0.0,0.0,0.0,0.0,0.0,0.0,0.0,0.0,0.0,0.0,0.0,0.0,0.0,0.0,0.0,0.0,0.0,0.0,0.0,0.0,0.0,0.0,0.0,0.0,0.0,0.0,0.0,0.0,0.0,0.0,0.0,0.0,0.0,0.0,0.0,0.0,0.0,0.0,0.0,0.0,0.0,0.0,0.0,0.0,0.0,0.0,0.0,0.0,0.0,0.0,0.0,0.0,0.0,-1.7552,-1.7505,-1.7261,-1.7065,-1.6888,-1.6625,-1.6409,0.0,0.0,0.0,0.0,0.0,0.0,0.0,0.0,0.0,0.0,0.0,0.0,0.0,0.0,0.0,0.0,0.0,0.0,0.0,0.0,0.0,0.0,0.0,0.0,0.0,0.0,0.0,0.0,0.0,0.0,0.0,0.0,0.0,0.0,0.0,0.0,0.0,0.0,0.0,0.0,0.0,0.0,0.0,0.0,0.0,0.0,0.0,0.0,0.0,0.0,0.0,0.0,0.0,0.0,0.0,0.0,0.0,0.0,0.0,0.0,0.0,0.0,0.0,0.0,0.0,0.0,0.0,0.0,0.0,0.0,0.0,0.0,0.0,0.0,0.0,0.0,0.0,0.0,0.0,0.0,0.0,0.0,0.0,0.0,0.0,0.0,0.0,0.0,0.0,0.0,0.0,0.0,0.0,0.0,0.0,0.0,0.0,0.0,0.0,0.0,0.0,0.0,0.0,0.0,0.0,0.0,0.0,0.0,-1.7658,-1.8084,-1.7316,-1.7064,-1.7432,-1.6811,-1.6423,0.0,0.0,0.0,0.0,0.0,0.0,0.0,0.0,0.0,0.0,0.0,0.0,0.0,0.0,0.0,0.0,0.0,0.0,0.0,0.0,0.0,0.0,0.0,0.0,0.0,0.0,0.0,0.0,0.0,0.0,0.0,0.0,0.0,0.0,0.0,0.0,0.0,0.0,0.0,0.0,0.0,0.0,0.0,0.0,0.0,0.0,0.0,0.0,-1.4659,0.0,0.0,0.0,0.0,0.0,0.0,0.0,0.0,0.0,0.0,0.0,0.0,0.0,0.0,0.0,0.0,0.0,0.0,0.0,0.0,0.0,0.0,0.0,0.0,0.0,0.0,0.0,0.0,0.0,0.0,0.0,0.0,0.0,0.0,0.0,0.0,0.0,0.0,0.0,0.0,0.0,0.0,0.0,0.0,0.0,0.0,0.0,0.0,0.0,0.0,0.0,0.0,0.0,0.0,0.0,0.0,0.0,0.0,0.0,-1.7802,-1.7724,-1.7425,-1.7214,-1.7025,-1.6583,-1.6274,0.0,0.0,0.0,0.0,0.0,0.0,0.0,0.0,0.0,0.0,0.0,0.0,0.0,0.0,0.0,0.0,0.0,0.0,0.0,0.0,0.0,0.0,0.0,0.0,0.0,0.0,0.0,0.0,0.0,0.0,0.0,0.0,0.0,0.0,0.0,0.0,0.0,0.0,0.0,0.0,0.0,0.0,0.0,0.0,0.0,0.0,0.0,0.0,0.0,0.0,0.0,0.0,0.0,0.0,0.0,0.0,0.0,0.0,0.0,0.0,0.0,0.0,0.0,0.0,0.0,0.0,0.0,0.0,0.0,0.0,0.0,0.0,0.0,0.0,0.0,0.0,0.0,0.0,0.0,0.0,0.0,0.0,0.0,0.0,0.0,0.0,0.0,0.0,0.0,0.0,0.0,0.0,0.0,0.0,0.0,0.0,0.0,0.0,0.0,0.0,0.0,0.0,0.0,0.0,0.0,0.0,0.0,-1.8108,-1.8058,-1.7404,-1.7593,-1.7342,-1.6556,-1.6296,-1.6095,-1.5997,0.0,0.0,0.0,0.0,0.0,0.0,0.0,0.0,0.0,0.0,0.0,0.0,0.0,0.0,0.0,0.0,0.0,0.0,0.0,0.0,0.0,0.0,0.0,0.0,0.0,0.0,0.0,0.0,0.0,0.0,0.0,0.0,0.0,0.0,0.0,0.0,0.0,0.0,-1.4719,-1.4146,0.0,0.0,0.0,0.0,0.0,0.0,0.0,0.0,-1.4295,0.0,0.0,0.0,0.0,0.0,0.0,0.0,0.0,0.0,0.0,0.0,0.0,0.0,0.0,0.0,0.0,0.0,0.0,0.0,0.0,0.0,0.0,0.0,0.0,0.0,0.0,0.0,0.0,0.0,0.0,0.0,0.0,0.0,0.0,0.0,0.0,0.0,0.0,0.0,0.0,0.0,0.0,0.0,0.0,0.0,0.0,0.0,0.0,0.0,0.0,0.0,0.0,0.0,0.0,0.0,0.0,-1.8801,-1.8802,-1.8689,-1.8507,-1.7774,-1.7306,-1.7155,-1.6374,-1.5927,-1.5943,0.0,0.0,0.0,0.0,0.0,0.0,0.0,0.0,0.0,0.0,0.0,0.0,0.0,0.0,0.0,0.0,0.0,0.0,0.0,0.0,0.0,0.0,0.0,0.0,0.0,0.0,0.0,0.0,0.0,0.0,0.0,0.0,0.0,0.0,0.0,0.0,0.0,0.0,0.0,-1.4049,-1.3641,0.0,0.0,0.0,0.0,0.0,0.0,0.0,0.0,-1.4047,0.0,0.0,0.0,0.0,0.0,0.0,0.0,0.0,0.0,0.0,0.0,0.0,0.0,0.0,0.0,0.0,0.0,0.0,0.0,0.0,0.0,0.0,0.0,0.0,0.0,0.0,0.0,0.0,0.0,0.0,0.0,0.0,0.0,0.0,0.0,0.0,0.0,0.0,0.0,0.0,0.0,0.0,0.0,0.0,0.0,0.0,0.0,0.0,0.0,0.0,0.0,0.0,0.0,0.0,0.0,-1.8933,-1.9132,-1.8884,-1.8101,-1.791,-1.7407,-1.6601,-1.6094,-1.5814,0.0,0.0,0.0,0.0,0.0,0.0,0.0,0.0,0.0,0.0,0.0,0.0,0.0,0.0,0.0,0.0,0.0,0.0,0.0,0.0,0.0,0.0,0.0,0.0,0.0,0.0,0.0,0.0,0.0,0.0,0.0,0.0,0.0,0.0,0.0,0.0,0.0,0.0,0.0,0.0,-1.4166,-1.3837,-1.3471,0.0,0.0,0.0,0.0,0.0,0.0,-1.3771,-1.3725,0.0,0.0,0.0,0.0,0.0,0.0,0.0,0.0,0.0,0.0,0.0,0.0,0.0,0.0,0.0,0.0,0.0,0.0,0.0,0.0,0.0,0.0,0.0,0.0,0.0,0.0,0.0,0.0,0.0,0.0,0.0,0.0,0.0,0.0,0.0,0.0,0.0,0.0,0.0,0.0,0.0,0.0,0.0,0.0,0.0,0.0,0.0,0.0,0.0,0.0,0.0,0.0,0.0,0.0,0.0,-1.9061,-1.9483,-1.8983,-1.7618,-1.7976,-1.7441,-1.5902,-1.5755,-1.5654,0.0,0.0,0.0,0.0,0.0,0.0,0.0,0.0,0.0,0.0,0.0,0.0,0.0,0.0,0.0,0.0,0.0,0.0,0.0,0.0,0.0,0.0,0.0,0.0,0.0,0.0,0.0,0.0,0.0,0.0,0.0,0.0,0.0,0.0,0.0,0.0,0.0,0.0,0.0,0.0,0.0,-1.4009,-1.3326,-1.3234,0.0,0.0,0.0,0.0,-1.3502,-1.3429,0.0,0.0,0.0,0.0,0.0,0.0,0.0,0.0,0.0,0.0,0.0,0.0,0.0,0.0,0.0,0.0,0.0,0.0,0.0,0.0,0.0,0.0,0.0,0.0,0.0,0.0,0.0,0.0,0.0,0.0,0.0,0.0,0.0,0.0,0.0,0.0,0.0,0.0,0.0,0.0,0.0,0.0,0.0,0.0,0.0,0.0,0.0,0.0,0.0,0.0,0.0,0.0,0.0,0.0,0.0,0.0,-2.0122,-2.0066,-1.9337,-1.8036,-1.7878,-1.7148,-1.5683,-1.5507,-1.5433,0.0,0.0,0.0,0.0,0.0,0.0,0.0,0.0,0.0,0.0,0.0,0.0,0.0,0.0,0.0,0.0,0.0,0.0,0.0,0.0,0.0,0.0,0.0,0.0,0.0,0.0,0.0,0.0,0.0,0.0,0.0,0.0,0.0,0.0,0.0,0.0,0.0,0.0,0.0,0.0,0.0,-1.3837,-1.3055,-1.2959,-1.2988,0.0,0.0,-1.3076,-1.3155,-1.3058,0.0,0.0,0.0,0.0,0.0,0.0,0.0,0.0,0.0,0.0,0.0,0.0,0.0,0.0,0.0,0.0,0.0,0.0,0.0,0.0,0.0,0.0,0.0,0.0,0.0,0.0,0.0,0.0,0.0,0.0,0.0,0.0,0.0,0.0,0.0,0.0,0.0,0.0,0.0,0.0,0.0,0.0,0.0,0.0,0.0,0.0,0.0,0.0,0.0,0.0,0.0,0.0,0.0,0.0,0.0,-1.9957,-1.9957,-1.9904,-1.917,-1.7824,-1.7682,-1.6944,-1.5477,-1.5254,-1.5164,0.0,0.0,0.0,0.0,0.0,0.0,0.0,0.0,0.0,0.0,0.0,0.0,0.0,0.0,0.0,0.0,0.0,0.0,0.0,0.0,0.0,0.0,0.0,0.0,0.0,0.0,0.0,0.0,0.0,0.0,0.0,0.0,0.0,0.0,0.0,0.0,0.0,0.0,0.0,0.0,0.0,0.0,-1.3343,-1.2885,0.0,0.0,0.0,-1.2703,-1.2738,0.0,0.0,0.0,0.0,0.0,0.0,0.0,0.0,0.0,0.0,0.0,0.0,0.0,0.0,0.0,0.0,0.0,0.0,0.0,0.0,0.0,0.0,0.0,0.0,0.0,0.0,0.0,0.0,0.0,0.0,0.0,0.0,0.0,0.0,0.0,0.0,0.0,0.0,0.0,0.0,0.0,0.0,0.0,0.0,0.0,0.0,0.0,0.0,0.0,0.0,0.0,0.0,0.0,0.0,0.0,0.0,0.0,-1.9563,-1.9545,-1.8889,-1.7513,-1.7388,-1.6658,-1.525,-1.4982,0.0,0.0,0.0,0.0,0.0,0.0,0.0,0.0,0.0,0.0,0.0,0.0,0.0,0.0,0.0,0.0,0.0,0.0,0.0,0.0,0.0,0.0,0.0,0.0,0.0,0.0,0.0,-1.431,0.0,0.0,0.0,0.0,0.0,0.0,0.0,0.0,0.0,0.0,0.0,0.0,0.0,0.0,-1.4316,-1.3505,-1.2775,-1.2348,0.0,0.0,-1.2323,-1.2378,-1.2427,-1.2711,0.0,0.0,0.0,0.0,0.0,0.0,0.0,0.0,0.0,0.0,0.0,0.0,0.0,0.0,0.0,0.0,0.0,0.0,0.0,0.0,0.0,0.0,0.0,0.0,0.0,0.0,0.0,0.0,0.0,0.0,0.0,0.0,0.0,0.0,0.0,0.0,0.0,0.0,0.0,0.0,0.0,0.0,0.0,0.0,0.0,0.0,0.0,0.0,0.0,0.0,0.0,0.0,0.0,0.0,0.0,-1.9157,-1.9139,-1.8491,-1.719,-1.7004,-1.6284,-1.4975,-1.4686,-1.4547,0.0,0.0,0.0,0.0,0.0,0.0,0.0,0.0,0.0,0.0,0.0,0.0,0.0,0.0,0.0,0.0,0.0,0.0,0.0,0.0,0.0,0.0,0.0,0.0,0.0,0.0,0.0,0.0,0.0,0.0,0.0,0.0,0.0,0.0,0.0,0.0,0.0,0.0,0.0,0.0,0.0,-1.4035,-1.3233,-1.2551,-1.2096,0.0,0.0,-1.2023,-1.2033,-1.2392,-1.2888,-1.3573,0.0,0.0,0.0,0.0,0.0,0.0,0.0,0.0,0.0,0.0,0.0,0.0,0.0,0.0,0.0,0.0,0.0,0.0,0.0,0.0,0.0,0.0,0.0,0.0,0.0,0.0,0.0,0.0,0.0,0.0,0.0,0.0,0.0,0.0,0.0,0.0,0.0,0.0,0.0,0.0,0.0,0.0,0.0,0.0,0.0,0.0,0.0,0.0,0.0,0.0,0.0,0.0,0.0,-1.8736,-1.875,-1.8736,-1.8119,-1.6863,-1.6656,-1.5966,-1.4699,-1.4433,-1.4276,0.0,0.0,0.0,0.0,0.0,0.0,0.0,0.0,0.0,0.0,0.0,0.0,0.0,0.0,0.0,0.0,0.0,0.0,0.0,0.0,0.0,0.0,0.0,0.0,0.0,0.0,0.0,0.0,-1.2157,-1.1966,-1.2334,0.0,0.0,0.0,0.0,0.0,0.0,0.0,0.0,0.0,0.0,-1.3765,-1.3451,-1.2459,0.0,0.0,-1.1685,-1.18,-1.2129,-1.2331,-1.2796,-1.3733,-1.4054,0.0,0.0,0.0,0.0,0.0,0.0,0.0,0.0,0.0,0.0,0.0,0.0,0.0,0.0,0.0,0.0,0.0,0.0,0.0,0.0,0.0,0.0,0.0,0.0,0.0,0.0,0.0,0.0,0.0,0.0,0.0,0.0,0.0,0.0,0.0,0.0,0.0,0.0,0.0,0.0,0.0,0.0,0.0,0.0,0.0,0.0,0.0,0.0,0.0,0.0,0.0,0.0,-1.8321,-1.8321,-1.8321,-1.771,-1.6486,-1.6316,-1.5654,-1.441,-1.4173,-1.401,0.0,0.0,0.0,0.0,0.0,0.0,0.0,0.0,0.0,0.0,0.0,0.0,0.0,0.0,0.0,0.0,0.0,0.0,0.0,0.0,0.0,0.0,0.0,0.0,0.0,0.0,0.0,0.0,-1.217,-1.2259,-1.2852,0.0,0.0,0.0,0.0,0.0,0.0,0.0,0.0,0.0,0.0,-1.3725,-1.3712,-1.2702,-1.1947,-1.1935,-1.1914,-1.2035,-1.2389,-1.2593,-1.2964,-1.3727,0.0,0.0,0.0,0.0,0.0,0.0,0.0,0.0,0.0,0.0,0.0,0.0,0.0,0.0,0.0,0.0,0.0,0.0,0.0,0.0,0.0,0.0,0.0,0.0,0.0,0.0,0.0,0.0,0.0,0.0,-1.4599,0.0,0.0,0.0,0.0,0.0,0.0,0.0,0.0,0.0,0.0,0.0,0.0,0.0,0.0,0.0,0.0,0.0,0.0,0.0,0.0,0.0,0.0,-1.7902,-1.7902,-1.7889,-1.7338,-1.6168,-1.5986,-1.5318,-1.4083,-1.3891,-1.3741,-1.3598,0.0,0.0,0.0,0.0,0.0,0.0,0.0,0.0,0.0,0.0,0.0,0.0,0.0,0.0,0.0,0.0,0.0,0.0,0.0,0.0,0.0,0.0,0.0,0.0,0.0,0.0,-1.2587,-1.201,-1.1872,0.0,0.0,0.0,0.0,0.0,0.0,0.0,0.0,0.0,0.0,-1.4426,-1.3984,-1.3955,-1.3389,-1.2897,-1.2857,-1.2829,-1.2844,-1.2789,-1.3217,-1.3558,0.0,0.0,0.0,0.0,0.0,0.0,0.0,0.0,0.0,0.0,0.0,0.0,0.0,0.0,0.0,0.0,0.0,0.0,0.0,0.0,0.0,0.0,0.0,0.0,0.0,0.0,0.0,-1.5609,-1.5578,0.0,0.0,0.0,0.0,0.0,0.0,0.0,0.0,0.0,0.0,0.0,-1.5589,-1.5499,0.0,0.0,0.0,0.0,0.0,0.0,0.0,0.0,0.0,0.0,0.0,0.0,-1.744,-1.744,-1.744,-1.7036,-1.6236,-1.5764,-1.5144,-1.435,-1.3852,-1.351,-1.3352,0.0,0.0,0.0,0.0,0.0,0.0,0.0,0.0,0.0,0.0,0.0,0.0,0.0,0.0,0.0,0.0,0.0,0.0,0.0,0.0,0.0,0.0,0.0,0.0,0.0,-1.2651,0.0,0.0,0.0,0.0,0.0,0.0,0.0,0.0,0.0,0.0,0.0,-1.4445,-1.4513,-1.3973,-1.3615,-1.36,-1.3034,-1.2608,0.0,0.0,0.0,0.0,0.0,0.0,0.0,0.0,0.0,0.0,0.0,0.0,0.0,0.0,-1.3196,-1.3341,-1.3356,-1.3399,-1.3428,0.0,0.0,0.0,0.0,0.0,0.0,0.0,0.0,0.0,0.0,0.0,0.0,0.0,0.0,-1.6354,0.0,-1.6025,0.0,0.0,0.0,0.0,0.0,0.0,0.0,0.0,-1.5563,-1.5621,-1.57,-1.5618,-1.5712,0.0,-1.5615,-1.5585,0.0,0.0,0.0,0.0,0.0,0.0,0.0,0.0,-1.7052,-1.7107,-1.7107,-1.6801,-1.6203,-1.5582,-1.4977,-1.44,-1.3753,-1.3323,-1.3176,-1.3077,-1.308,0.0,0.0,0.0,0.0,0.0,0.0,0.0,0.0,0.0,0.0,0.0,0.0,0.0,0.0,0.0,0.0,0.0,0.0,0.0,0.0,0.0,0.0,0.0,-1.2591,0.0,0.0,0.0,0.0,0.0,0.0,0.0,0.0,0.0,-1.3868,-1.3931,-1.4026,-1.4154,-1.3832,-1.3577,-1.3623,0.0,0.0,0.0,0.0,0.0,0.0,0.0,-1.3446,-1.3709,-1.3758,-1.3676,-1.3435,-1.3113,-1.2576,-1.1865,0.0,0.0,-1.237,-1.2481,-1.2509,-1.258,-1.2458,-1.2361,-1.254,-1.2167,-1.1827,0.0,0.0,0.0,0.0,0.0,0.0,0.0,0.0,-1.6858,-1.681,0.0,-1.6436,0.0,0.0,0.0,0.0,0.0,-1.5954,0.0,0.0,-1.581,-1.577,-1.5917,-1.5622,-1.5509,-1.5633,-1.5612,-1.5723,-1.5974,-1.5683,0.0,0.0,0.0,0.0,0.0,0.0,-1.6774,-1.6876,-1.6888,-1.6598,-1.6033,-1.5511,-1.4897,-1.4207,-1.3556,-1.3163,-1.3089,-1.296,-1.2773,-1.252,-1.2703,0.0,0.0,0.0,0.0,0.0,0.0,0.0,0.0,0.0,0.0,0.0,0.0,0.0,0.0,0.0,0.0,0.0,0.0,0.0,0.0,-1.2276,0.0,0.0,0.0,0.0,0.0,0.0,0.0,0.0,0.0,0.0,-1.3711,-1.3624,-1.3665,-1.3858,0.0,0.0,0.0,0.0,-1.3973,-1.3957,-1.3914,-1.3845,-1.3791,-1.3665,-1.3581,-1.351,0.0,0.0,-1.2782,-1.2682,-1.2296,-1.1214,-1.0996,-1.1221,-1.1968,-1.2135,-1.2205,-1.2275,-1.1885,-1.1639,-1.1712,-1.1523,-1.1267,-1.7818,0.0,0.0,0.0,0.0,-1.6939,-1.7036,-1.701,-1.7246,-1.7338,-1.7347,-1.7316,0.0,0.0,0.0,0.0,0.0,0.0,-1.6849,-1.687,-1.6779,-1.6779,-1.6829,-1.6382,-1.6273,-1.6436,-1.5866,-1.5732,-1.5983,-1.5796,-1.5749,-1.5823,0.0,0.0,0.0,0.0,-1.6513,-1.6556,-1.6586,-1.6532,-1.6346,-1.5838,-1.5093,-1.4147,-1.3539,-1.3116,-1.2978,-1.2913,-1.2756,-1.2449,-1.2665,0.0,0.0,0.0,0.0,0.0,0.0,0.0,0.0,0.0,0.0,0.0,0.0,0.0,0.0,0.0,0.0,0.0,0.0,0.0,-1.1936,-1.2107,-1.2325,0.0,0.0,0.0,0.0,0.0,0.0,0.0,0.0,0.0,-1.4544,-1.3892,-1.3493,0.0,0.0,-1.3628,-1.3648,-1.3648,-1.3635,-1.3648,-1.3628,0.0,0.0,-1.356,-1.3497,-1.3429,-1.3357,-1.3112,-1.2601,-1.2171,-1.1678,-1.093,-1.0502,-1.0379,-1.0625,-1.0756,-1.0873,-1.099,-1.0945,-1.095,-1.1169,-1.1198,-1.1224,-1.8828,-1.7711,-1.7711,-1.7711,-1.7744,-1.7945,-1.7879,-1.7616,-1.7809,-1.7744,-1.7512,-1.7512,-1.745,-1.7388,-1.7315,0.0,0.0,0.0,-1.7012,-1.7012,-1.7075,-1.7138,-1.7086,-1.6898,-1.685,-1.6941,-1.6482,-1.6298,-1.6395,-1.6371,-1.6238,-1.6101,0.0,0.0,-1.6427,-1.6449,-1.6574,-1.6719,-1.6548,-1.6479,-1.65,-1.5982,-1.5185,-1.4154,-1.3752,-1.3341,-1.2925,-1.2913,-1.2738,-1.2413,-1.2457,-1.2645,0.0,0.0,0.0,0.0,0.0,0.0,0.0,0.0,0.0,0.0,0.0,-1.2871,0.0,0.0,0.0,0.0,-1.1973,-1.1715,-1.1973,-1.2272,0.0,0.0,0.0,0.0,0.0,0.0,0.0,-1.5493,-1.5458,-1.5356,-1.5162,-1.4475,-1.3928,-1.3799,-1.3587,-1.3476,-1.348,0.0,-1.348,-1.348,-1.348,-1.3463,-1.3459,-1.3425,-1.3357,-1.3323,-1.325,-1.3015,-1.2488,-1.2115,-1.1726,-1.1186,-1.0825,-1.068,-1.0763,-1.065,-1.0496,-1.0526,-1.0583,-1.0729,-1.0979,-1.1108,-1.1236,-1.9844,-1.9492,-1.9492,-1.9451,-1.9333,-1.9499,-1.9086,-1.8334,-1.8514,-1.8154,-1.7371,-1.7361,-1.7331,-1.7269,-1.7153,0.0,-1.6804,-1.6794,-1.6814,-1.6794,-1.6995,-1.707,-1.707,-1.7176,-1.7229,-1.7219,-1.7189,-1.7103,-1.7019,-1.7176,-1.7044,-1.6618,-1.6717,-1.6938,-1.729,-1.6907,-1.6841,-1.7184,-1.6707,-1.6485,-1.65,-1.5969,-1.5223,-1.428,-1.4154,-1.3743,-1.3011,-1.292,-1.2738,-1.2431,-1.2238,-1.2393,-1.2834,0.0,0.0,0.0,0.0,0.0,0.0,0.0,0.0,0.0,0.0,0.0,0.0,0.0,0.0,0.0,-1.2226,0.0,-1.2203,-1.2723,0.0,0.0,0.0,-1.4801,-1.4967,-1.5483,-1.5881,-1.6022,0.0,0.0,-1.5583,-1.5232,-1.4828,-1.4366,-1.3818,-1.3472,-1.354,-1.3514,-1.348,-1.3446,-1.3438,-1.3374,-1.3387,-1.3288,-1.3215,-1.3228,-1.321,-1.304,-1.2588,-1.2404,-1.219,-1.1738,-1.164,-1.161,-1.1757,-1.137,-1.1003,-1.076,-1.0709,-1.0789,-1.105,-1.1167,-1.1296,-2.1367,-2.126,-2.1269,-2.0498,-1.9333,-1.937,-1.9324,-1.929,-1.9336,-1.9088,-1.8717,-1.8717,-1.8458,-1.8029,-1.7839,-1.7738,-1.7672,-1.7672,-1.7681,-1.7705,-1.7738,-1.7772,-1.7752,-1.7481,-1.7357,-1.7327,-1.7139,-1.7088,-1.7164,-1.7543,-1.7673,-1.7592,-1.7835,-1.7615,-1.6958,-1.7219,-1.7251,-1.7057,-1.7125,-1.6939,-1.65,-1.5969,-1.5588,-1.5324,-1.4525,-1.3944,-1.3588,-1.3146,-1.2738,-1.2425,-1.2549,-1.2735,-1.2889,-1.2892,0.0,0.0,0.0,0.0,0.0,0.0,0.0,0.0,0.0,-1.2895,-1.3113,0.0,-1.2908,0.0,-1.3172,-1.3177,-1.3245,-1.3574,0.0,0.0,-1.4815,-1.5199,-1.5683,-1.5962,-1.6144,-1.6284,-1.6216,-1.6206,-1.6257,-1.5823,-1.5475,-1.5331,-1.4538,-1.3937,-1.3955,-1.3553,-1.3254,-1.3296,-1.3279,-1.325,-1.325,-1.3228,-1.321,-1.321,-1.321,-1.3148,-1.304,-1.2676,-1.235,-1.2187,-1.1864,-1.1701,-1.1795,-1.1774,-1.1674,-1.1415,-1.1107,-1.0922,-1.1132,-1.1307,-1.1455,-2.206,-2.1936,-2.1936,-2.1318,-2.043,-2.0234,-1.9979,-1.9738,-1.9738,-1.9565,-1.9267,-1.9257,-1.9047,-1.8749,-1.8644,-1.8574,-1.8574,-1.8584,-1.8477,-1.8256,-1.8256,-1.8193,-1.7998,-1.7764,-1.7666,-1.7646,-1.7609,-1.7553,-1.7533,-1.7977,-1.8224,-1.8167,-1.8396,-1.8254,-1.7845,-1.7787,-1.7751,-1.7712,-1.7512,-1.7225,-1.6898,-1.6337,-1.5944,-1.5693,-1.5123,-1.46,-1.4154,-1.384,-1.3483,-1.312,-1.3116,-1.3207,-1.329,-1.317,-1.318,0.0,0.0,0.0,0.0,0.0,0.0,0.0,0.0,0.0,0.0,0.0,-1.3328,-1.3575,-1.3597,-1.3674,-1.3897,-1.4263,-1.4648,-1.5073,-1.5387,-1.5727,-1.6051,-1.621,-1.6318,-1.6392,-1.6436,-1.6457,-1.6488,-1.6237,-1.6057,-1.6036,-1.5349,-1.4727,-1.4469,-1.4149,-1.3885,-1.3647,-1.3596,-1.3478,-1.3248,-1.321,-1.321,-1.321,-1.321,-1.321,-1.3198,-1.2947,-1.2751,-1.2755,-1.2549,-1.2443,-1.2529,-1.2481,-1.2417,-1.2356,-1.2073,-1.1683,-1.1329,-1.139,-1.1523,-2.2383,-2.2051,-2.2041,-2.2012,-2.1934,-2.1553,-2.0849,-2.0088,-2.0088,-1.9814,-1.9365,-1.9307,-1.9277,-1.9277,-1.9277,-1.9277,-1.9277,-1.9277,-1.9082,-1.8695,-1.8685,-1.849,-1.8174,-1.8174,-1.8144,-1.8086,-1.8281,-1.8275,-1.8019,-1.8485,-1.8701,-1.8655,-1.8744,-1.8925,-1.9121,-1.8561,-1.8401,-1.8634,-1.7886,-1.7463,-1.7398,-1.6864,-1.6337,-1.5831,-1.5731,-1.5379,-1.4733,-1.4634,-1.438,-1.3929,-1.3784,-1.3745,-1.3784,-1.3451,-1.3357,0.0,-1.3386,0.0,0.0,0.0,0.0,0.0,0.0,0.0,0.0,-1.3681,-1.3841,-1.4105,-1.3988,-1.4055,-1.4454,-1.4957,-1.5308,-1.5512,-1.5939,-1.6231,-1.6244,-1.634,-1.6414,-1.6414,-1.6457,-1.6513,-1.65,-1.6513,-1.65,-1.6437,-1.6082,-1.5605,-1.5211,-1.4959,-1.4651,-1.4267,-1.4204,-1.4004,-1.3491,-1.3353,-1.3328,-1.3248,-1.321,-1.321,-1.321,-1.3198,-1.3198,-1.3203,-1.3255,-1.3374,-1.3493,-1.3269,-1.3178,-1.3276,-1.3106,-1.2644,-1.176,-1.1609,-1.1621,-2.2925,-2.2847,-2.2857,-2.2652,-2.2383,-2.2305,-2.1736,-2.0947,-2.0947,-2.0537,-1.9785,-1.9434,-1.9277,-1.9277,-1.9277,-1.9277,-1.9277,-1.9277,-1.9238,-1.916,-1.916,-1.9121,-1.9053,-1.9079,-1.8857,-1.8535,-1.868,-1.8738,-1.8619,-1.9138,-1.9415,-1.9401,-1.9825,-1.9848,-1.9443,0.0,0.0,0.0,-1.8344,-1.7827,-1.7423,-1.7275,-1.6948,-1.635,-1.5932,0.0,-1.525,-1.4843,-1.438,-1.394,-1.4162,0.0,0.0,0.0,0.0,0.0,0.0,0.0,0.0,0.0,0.0,0.0,-1.3702,-1.3726,-1.361,-1.4152,-1.4594,-1.4858,-1.5189,-1.5427,-1.5514,-1.5806,-1.6062,-1.6191,-1.6299,-1.6405,-1.6436,-1.6457,-1.6479,-1.6491,-1.6479,-1.6513,-1.6513,-1.6513,-1.6513,-1.65,-1.6412,-1.6321,-1.6187,-1.5462,-1.4916,-1.4765,-1.4739,-1.4538,-1.3991,-1.3934,-1.3765,-1.3378,-1.321,-1.3223,-1.3235,-1.3235,-1.321,-1.3228,-1.3306,-1.3425,-1.3497,-1.3607,-1.3645,-1.3452,-1.352,-1.3305,-1.2275,-1.2224,-1.2244,-2.3101,0.0,-2.3101,-2.2974,0.0,-2.2779,-2.2418,-2.1804,-2.165,-2.1142,-2.0498,-2.0107,-1.995,-1.9959,-1.9959,-1.995,-1.9922,-1.9959,-1.9805,-1.96,-1.96,-1.9492,-1.9277,-1.9277,-1.9206,-1.9098,-1.9058,-1.9117,-1.9304,-1.9612,-1.9879,-2.0085,-2.0361,-2.0479,-2.043,-2.032,-1.9972,-1.9384,-1.8857,-1.8456,-1.8191,-1.7687,-1.7237,-1.6936,0.0,0.0,0.0,0.0,0.0,0.0,0.0,0.0,0.0,0.0,0.0,-1.4022,-1.3941,-1.38,-1.361,-1.3729,-1.3813,-1.3894,-1.4174,-1.4291,-1.4163,-1.4605,-1.5017,-1.5334,-1.5625,-1.5881,-1.6078,-1.621,-1.6362,-1.6436,-1.6436,-1.6457,-1.65,-1.6513,-1.6513,-1.6513,-1.6513,-1.6513,-1.6513,-1.6513,-1.6513,-1.6513,-1.6513,-1.6513,-1.6463,-1.6057,-1.5638,-1.5349,-1.5035,-1.4802,-1.4582,-1.4488,-1.4425,-1.4099,-1.403,-1.3941,-1.3725,-1.3687,-1.3647,-1.3411,-1.3442,-1.3514,-1.3657,-1.3858,-1.4028,-1.395,-1.4119,-1.4109,-1.3326,-1.29,-1.2529,-2.3101,-2.3101,-2.3101,-2.3101,-2.3101,-2.3101,-2.2896,-2.2588,0.0,0.0,0.0,-2.0879,-2.0674,-2.0713,-2.0644,-2.0615,-2.0615,-2.0615,-2.0419,-2.0039,-2.0029,-1.9853,-1.9521,-1.9549,-1.9583,-1.9703,-1.9554,-1.961,-1.9841,-2.0014,-2.0303,-2.0645,-2.0795,-2.106,-2.1463,-2.0967,-2.0432,-1.9974,-1.9434,-1.9096,-1.8983,-1.8141,-1.7599,-1.741,-1.6911,-1.6579,-1.6392,-1.6297,-1.61,-1.5814,-1.5547,-1.53,-1.5131,-1.4869,-1.465,-1.4466,-1.4339,-1.4222,-1.4091,-1.4197,-1.4292,-1.4362,-1.4628,-1.48,-1.4766,-1.5017,-1.53,-1.5613,-1.5802,-1.6057,-1.6349,-1.6414,-1.6436,-1.65,-1.6513,-1.6513,-1.6513,-1.6513,-1.6513,-1.6513,-1.6513,-1.6513,-1.6513,-1.6513,-1.6513,-1.6513,-1.6513,-1.6513,-1.6513,-1.645,-1.6271,-1.5894,-1.553,-1.5198,-1.506,-1.5047,-1.5009,-1.4833,-1.4853,-1.4778,-1.4467,-1.4352,-1.4215,-1.3967,-1.3809,-1.3839,-1.3954,-1.4096,-1.4265,-1.4383,-1.4669,-1.4807,-1.4414,-1.3624,-1.3001,-2.3101,-2.3101,-2.3101,-2.3101,-2.3101,-2.3101,-2.3062,-2.2945,-2.2227,-2.1846,-2.1768,-2.1338,-2.1103,-2.1113,-2.0732,-2.0615,-2.0615,-2.0615,-2.0566,-2.0507,-2.0507,-2.0488,-2.0419,-2.0429,-2.03,-2.0133,-2.0434,-2.037,-2.0075,-2.0628,-2.093,-2.0937,-2.1436,-2.1825,-2.1942,-2.1581,-2.1104,-2.0578,-1.9987,-1.9447,-1.9008,-1.8845,-1.8329,-1.7461,-1.7335,-1.6992,-1.6417,-1.6383,-1.6175,-1.5814,-1.5748,-1.5592,-1.5312,-1.5222,-1.5028,-1.4685,-1.4628,-1.4535,-1.4373,-1.4477,-1.4662,-1.4949,-1.5119,-1.5165,-1.5062,-1.5345,-1.5591,-1.577,-1.6088,-1.634,-1.6392,-1.6457,-1.65,-1.6513,-1.6513,-1.6513,-1.6513,-1.6513,-1.6513,-1.6513,-1.6513,-1.6513,-1.6513,-1.6513,-1.6513,-1.6513,-1.6513,-1.6513,-1.6513,-1.6513,-1.6475,-1.64,-1.6346,-1.6082,-1.5693,-1.56,-1.5437,-1.4947,-1.5017,-1.5069,-1.4942,-1.4986,-1.4998,-1.4971,-1.466,-1.4501,-1.4513,-1.4371,-1.4406,-1.452,-1.4758,-1.4908,-1.5006,-1.4556,-1.4064,-2.3101,-2.3101,-2.3101,-2.3101,-2.3101,-2.3101,-2.3101,-2.3071,-2.2691,-2.2432,-2.2187,-2.1777,-2.1465,-2.119,-2.1025,-2.0791,-2.0615,-2.0615,-2.0615,-2.0615,-2.0615,-2.0615,-2.0605,-2.0731,-2.0739,-2.0759,-2.0893,-2.1006,-2.1133,-2.1512,-2.1643,-2.1615,-2.2111,-2.2244,-2.2114,-2.1984,-2.1685,-2.1144,-2.0578,-1.9999,-1.9459,-1.9146,-1.8757,-1.8279,-1.7714,-1.7262,-1.6954,-1.6598,-1.6318,-1.6132,-1.5991,-1.5802,-1.557,-1.5537,-1.538,-1.5051,-1.5028,-1.496,-1.4789,-1.4926,-1.5097,-1.5413,-1.5503,-1.5592,-1.5568,-1.5669,-1.5824,-1.61,-1.6284,-1.6414,-1.6436,-1.6479,-1.6513,-1.6513,-1.6513,-1.6513,-1.6513,-1.6513,-1.6513,-1.6513,-1.6513,-1.6513,-1.6513,-1.6513,-1.6513,-1.6513,-1.6513,-1.6513,-1.6513,-1.6513,-1.6513,-1.6513,-1.65,-1.64,-1.6183,-1.6145,-1.6032,-1.5781,-1.5863,-1.5805,-1.5629,-1.5645,-1.5672,-1.5495,-1.532,-1.5238,-1.5265,-1.5033,-1.4926,-1.4966,-1.4931,-1.5053,-1.515,-1.5096,-1.4755,-2.3101,-2.3101,-2.3101,-2.3101,-2.3101,-2.3101,-2.3101,-2.3101,-2.3091,-2.2916,-2.2627,-2.2207,-2.1846,-2.1483,-2.1288,-2.1035,-2.0772,-2.0654,-2.0615,-2.0615,-2.0615,-2.0615,-2.0615,-2.0819,-2.1022,-2.1203,-2.1285,-2.155,-2.1995,-2.2273,-2.2468,-2.2627,-2.2807,-2.2793,-2.2546,-2.2472,-2.2234,-2.1694,-2.1282,-2.0729,-2.0012,-1.9447,-1.9121,-1.8945,-1.8204,-1.7626,-1.7375,-1.6904,-1.6551,-1.6405,-1.6197,-1.6035,-1.5915,-1.5836,-1.5715,-1.5492,-1.547,-1.5413,-1.5266,-1.5368,-1.5547,-1.5738,-1.5836,-1.5947,-1.6066,-1.6001,-1.6057,-1.6328,-1.6414,-1.6457,-1.65,-1.6513,-1.6513,-1.6513,-1.6513,-1.6513,-1.6513,-1.6513,-1.6513,-1.6513,-1.6513,-1.6513,-1.6513,-1.6513,-1.6513,-1.6513,-1.6513,-1.6513,-1.6513,-1.6513,-1.6513,-1.6513,-1.6513,-1.65,-1.6513,-1.6488,-1.6463,-1.6522,-1.6603,-1.6494,-1.6284,-1.6324,-1.6368,-1.6159,-1.5985,-1.5964,-1.6043,-1.5797,-1.562,-1.5641,-1.5476,-1.5256,-1.5237,-1.5314,-1.5227,-2.3101,-2.3101,-2.3101,-2.3101,-2.3101,-2.3101,-2.3101,-2.3101,-2.3101,-2.3081,-2.2974,-2.2637,-2.2432,-2.2295,-2.1561,-2.119,-2.1083,-2.0752,-2.0615,-2.0615,-2.0615,-2.0615,-2.0605,-2.0819,-2.1022,-2.1244,-2.1745,-2.1983,-2.2107,-2.2702,-2.3271,-2.373,-2.3693,-2.3661,-2.3747,-2.3283,-2.2757,-2.2259,-2.2155,-2.1644,-2.0654,-2.0024,-1.9497,-1.902,-1.8907,-1.8368,-1.7524,-1.7338,-1.7039,-1.6455,-1.6396,-1.6318,-1.6166,-1.6156,-1.61,-1.5935,-1.5935,-1.5869,-1.577,-1.5859,-1.5923,-1.5979,-1.61,-1.621,-1.6328,-1.6328,-1.6349,-1.6414,-1.647,-1.6479,-1.6513,-1.6513,-1.6513,-1.6513,-1.6513,-1.6513,-1.6513,-1.6513,-1.6513,-1.6513,-1.6513,-1.6513,-1.6513,-1.6513,-1.6513,-1.6513,-1.6513,-1.6513,-1.6513,-1.6513,-1.6513,-1.6513,-1.6513,-1.6513,-1.6513,-1.6513,-1.6513,-1.6522,-1.6705,-1.6769,-1.6764,-1.6889,-1.7109,-1.6902,-1.6778,-1.6579,-1.6599,-1.6491,-1.634,-1.6253,-1.6037,-1.572,-1.5424,-1.5384,-1.5373,-2.3101,-2.3101,-2.3101,-2.3101,-2.3101,-2.3101,-2.3101,-2.3101,-2.3101,-2.3101,-2.3081,-2.2906,-2.2711,-2.249,-2.2097,-2.1678,-2.119,-2.1045,-2.081,-2.0625,-2.0615,-2.0615,-2.0644,-2.0935,-2.1138,-2.1244,-2.1921,-2.2382,-2.2732,-2.3427,-2.408,-2.4563,-2.4369,-2.4322,-2.4412,-2.3929,-2.3527,-2.3301,-2.2648,-2.2083,-2.1606,-2.0765,-2.0213,-1.9962,-1.9371,-1.882,-1.838,-1.8053,-1.7591,-1.7042,-1.7014,-1.6785,-1.6331,-1.6318,-1.6253,-1.611,-1.6122,-1.61,-1.6057,-1.6078,-1.6144,-1.6241,-1.6297,-1.6349,-1.6436,-1.6457,-1.6457,-1.6457,-1.6479,-1.6513,-1.6513,-1.6513,-1.6513,-1.6513,-1.6513,-1.6513,-1.6513,-1.6513,-1.6513,-1.6513,-1.6513,-1.6513,-1.6513,-1.6513,-1.6513,-1.6513,-1.6513,-1.6513,-1.6513,-1.6513,-1.6513,-1.6513,-1.6513,-1.6513,-1.6513,-1.6513,-1.6513,-1.6543,-1.6727,-1.691,-1.6931,-1.7086,-1.7253,-1.7384,-1.7215,-1.7143,-1.7296,-1.7027,-1.6816,-1.6752,-1.6549,-1.6213,-1.6132,-1.6123,-1.6237,-2.3101,-2.3101,-2.3101,-2.3101,-2.3101,-2.3101,-2.3101,-2.3101,-2.3101,-2.3101,-2.3101,-2.3101,-2.2925,-2.2652,-2.2568,-2.2158,-2.159,-2.1465,-2.1172,-2.0781,-2.0752,-2.0732,-2.0664,-2.1012,-2.1215,-2.132,-2.2035,-2.2713,-2.3338,-2.4107,-2.4747,-2.5212,-2.4958,-2.485,-2.4951,-2.4494,-2.423,-2.413,-2.3251,-2.2774,-2.2636,-2.1694,-2.1006,-2.0654,-1.9899,-1.9309,-1.8995,-1.8607,-1.8179,-1.7639,-1.7637,-1.7403,-1.6935,-1.676,-1.6567,-1.6309,-1.6275,-1.6275,-1.6275,-1.6275,-1.6393,-1.6626,-1.666,-1.6757,-1.6914,-1.6951,-1.6986,-1.6989,-1.6964,-1.6914,-1.6513,-1.6513,-1.655,-1.6688,-1.6748,-1.6798,-1.6951,-1.6951,-1.6948,-1.6798,-1.6789,-1.6672,-1.6525,-1.6513,-1.6513,-1.6513,-1.6513,-1.6513,-1.6513,-1.6513,-1.6513,-1.6513,-1.6513,-1.6513,-1.6513,-1.6513,-1.6513,-1.6543,-1.6705,-1.6846,-1.6888,-1.7065,-1.7233,-1.7329,-1.7419,-1.7488,-1.7476,-1.7316,-1.7134,-1.7009,-1.6834,-1.6599,-1.6421,-1.6572,-1.6743,-2.3101,-2.3101,-2.3101,-2.3101,-2.3101,-2.3101,-2.3101,-2.3101,-2.3101,-2.3101,-2.3101,-2.3101,-2.3081,-2.3013,-2.2705,-2.249,-2.2373,-2.2021,-2.1611,-2.119,-2.1161,-2.0977,-2.0625,-2.1012,-2.1235,-2.1403,-2.2171,-2.3062,-2.4089,-2.4695,-2.5276,-2.5789,-2.5444,-2.5386,-2.5465,-2.5046,-2.4763,-2.4687,-2.4167,-2.3879,-2.3753,-2.2786,-2.1757,-2.088,-2.0641,-2.01,-1.9196,-1.8995,-1.8732,-1.8191,-1.8179,-1.8129,-1.803,-1.7614,-1.7089,-1.6604,-1.6516,-1.6529,-1.6554,-1.6579,-1.6789,-1.725,-1.7338,-1.7551,-1.7915,-1.7965,-1.7965,-1.8078,-1.799,-1.7603,-1.6801,-1.6713,-1.6873,-1.7275,-1.7338,-1.7564,-1.8016,-1.7953,-1.7865,-1.7498,-1.736,-1.7124,-1.6626,-1.6513,-1.6538,-1.6525,-1.6513,-1.6513,-1.6513,-1.6513,-1.6513,-1.6513,-1.6513,-1.6513,-1.6513,-1.6513,-1.6513,-1.6543,-1.662,-1.6761,-1.6854,-1.6981,-1.7149,-1.7287,-1.737,-1.7453,-1.7509,-1.7477,-1.7336,-1.7226,-1.7147,-1.6953,-1.6803,-1.6585,-1.677,-2.3101,-2.3101,-2.3101,-2.3101,-2.3101,-2.3101,-2.3101,-2.3101,-2.3101,-2.3101,-2.3101,-2.3101,-2.3101,-2.3091,-2.2945,-2.2721,-2.2519,-2.2353,-2.206,-2.1689,-2.165,-2.1562,-2.1516,-2.185,-2.201,-2.217,-2.2924,-2.3755,-2.4597,-2.5236,-2.5661,-2.5865,-2.5911,-2.5993,-2.6063,-2.5598,-2.5322,-2.5259,-2.4763,-2.4368,-2.4042,-2.3602,-2.2862,-2.181,-2.1395,-2.0867,-2.0112,-2.0087,-1.966,-1.8744,-1.8707,-1.8544,-1.8242,-1.8028,-1.7827,-1.7626,-1.7566,-1.7578,-1.7578,-1.7566,-1.7677,-1.7865,-1.7903,-1.799,-1.8154,-1.8204,-1.8204,-1.8216,-1.8204,-1.7953,-1.7765,-1.7578,-1.7677,-1.7852,-1.7915,-1.799,-1.8141,-1.8204,-1.8116,-1.7953,-1.7903,-1.7677,-1.7237,-1.7074,-1.6923,-1.6588,-1.6513,-1.6525,-1.6513,-1.6513,-1.6513,-1.6513,-1.6513,-1.6513,-1.6513,-1.6513,-1.6513,-1.6543,-1.662,-1.6684,-1.6769,-1.6897,-1.7078,-1.7128,-1.7246,-1.7342,-1.7399,-1.74,-1.7316,-1.733,-1.7256,-1.7175,-1.7232,-1.7058,-1.7265,-2.3101,-2.3101,-2.3101,-2.3101,-2.3101,-2.3101,-2.3101,-2.3101,-2.3101,-2.3101,-2.3101,-2.3101,-2.3101,-2.3101,-2.3101,-2.2955,-2.2734,-2.2715,-2.249,-2.2109,-2.209,-2.2021,-2.1977,-2.2246,-2.2441,-2.2635,-2.3456,-2.4296,-2.5059,-2.5627,-2.597,-2.6261,-2.6314,-2.6462,-2.6536,-2.6129,-2.5908,-2.5808,-2.5347,-2.487,-2.4519,-2.4167,-2.3665,-2.2912,-2.228,-2.1669,-2.1006,-2.0792,-2.0377,-1.966,-1.9384,-1.9008,-1.8531,-1.8444,-1.8392,-1.8242,-1.8191,-1.8204,-1.8204,-1.8204,-1.8279,-1.8431,-1.8468,-1.8494,-1.8681,-1.8731,-1.8731,-1.8719,-1.8719,-1.8719,-1.8719,-1.8719,-1.8656,-1.8518,-1.8444,-1.8555,-1.8694,-1.8744,-1.8668,-1.8493,-1.8279,-1.8028,-1.7739,-1.7664,-1.7476,-1.7087,-1.6923,-1.6798,-1.6798,-1.66,-1.6513,-1.6513,-1.6513,-1.6513,-1.6513,-1.6513,-1.6513,-1.6522,-1.6543,-1.662,-1.6718,-1.6846,-1.6931,-1.6981,-1.7078,-1.7183,-1.7246,-1.7295,-1.7303,-1.731,-1.7265,-1.714,-1.7316,-1.7544,-1.7618,-2.3101,-2.3101,-2.3101,-2.3101,-2.3101,-2.3101,-2.3101,-2.3101,-2.3101,-2.3101,-2.3101,-2.3101,-2.3101,-2.3101,-2.3101,-2.3081,-2.3042,-2.3023,-2.2828,-2.2529,-2.251,-2.2324,-2.2053,-2.2271,-2.2519,-2.2746,-2.368,-2.4577,-2.5367,-2.5847,-2.6335,-2.6753,-2.6736,-2.6842,-2.7021,-2.6696,-2.6499,-2.6373,-2.59,-2.5586,-2.546,-2.4619,-2.4092,-2.3904,-2.3346,-2.2623,-2.1631,-2.1094,-2.0792,-2.0616,-2.015,-1.9585,-1.9158,-1.9033,-1.8782,-1.843,-1.8279,-1.8267,-1.8279,-1.8329,-1.8606,-1.8895,-1.9008,-1.9208,-1.951,-1.9635,-1.9635,-1.961,-1.9635,-1.9698,-1.9673,-1.9648,-1.9459,-1.9108,-1.8995,-1.9183,-1.956,-1.9748,-1.9597,-1.9058,-1.8644,-1.8279,-1.8216,-1.8204,-1.8105,-1.7953,-1.7664,-1.7388,-1.735,-1.7061,-1.6651,-1.6635,-1.671,-1.6748,-1.6613,-1.6513,-1.6513,-1.6513,-1.6522,-1.6543,-1.662,-1.6727,-1.6825,-1.6876,-1.6939,-1.7036,-1.7057,-1.7086,-1.7044,-1.7065,-1.7044,-1.7094,-1.7233,-1.7378,-1.7556,-2.3101,-2.3101,-2.3101,-2.3101,-2.3101,-2.3101,-2.3101,-2.3101,-2.3101,-2.3101,-2.3101,-2.3101,-2.3101,-2.3101,-2.3101,-2.3101,-2.3101,-2.3091,-2.3013,-2.2906,-2.2886,-2.2818,-2.2797,-2.2959,-2.3353,-2.3937,-2.4691,-2.524,-2.5649,-2.6198,-2.6643,-2.6884,-2.7151,-2.7348,-2.7506,-2.7224,-2.7065,-2.6989,-2.6512,-2.6047,-2.5636,-2.5272,-2.4933,-2.4544,-2.4017,-2.354,-2.3213,-2.2309,-2.1631,-2.1295,-2.1054,-2.0715,-2.0213,-1.9773,-1.9497,-1.9334,-1.9309,-1.9296,-1.9296,-1.9296,-1.9334,-1.9522,-1.9522,-1.9623,-1.9761,-1.9798,-1.9798,-1.9798,-1.9798,-1.9798,-1.9798,-1.9798,-1.9723,-1.9559,-1.9572,-1.9585,-1.9748,-1.9798,-1.9736,-1.9597,-1.9409,-1.9171,-1.8845,-1.8744,-1.8619,-1.8329,-1.8078,-1.7965,-1.7903,-1.7739,-1.7689,-1.7677,-1.7438,-1.7112,-1.7087,-1.6898,-1.6697,-1.6647,-1.6597,-1.6522,-1.6577,-1.662,-1.6684,-1.6748,-1.6812,-1.6854,-1.6854,-1.6888,-1.6867,-1.6888,-1.6918,-1.6981,-1.7002,-1.7128,-1.7308,-2.3101,-2.3101,-2.3101,-2.3101,-2.3101,-2.3101,-2.3101,-2.3101,-2.3101,-2.3101,-2.3101,-2.3101,-2.3101,-2.3101,-2.3101,-2.3101,-2.3101,-2.3101,-2.3101,-2.3101,-2.3101,-2.3101,-2.3144,-2.345,-2.3851,-2.4411,-2.5073,-2.5543,-2.5917,-2.6542,-2.7002,-2.7278,-2.7624,-2.7853,-2.7965,-2.7738,-2.7519,-2.7281,-2.6977,-2.6537,-2.6034,-2.5711,-2.5435,-2.5084,-2.4582,-2.4318,-2.4243,-2.3414,-2.2573,-2.192,-2.1619,-2.1345,-2.0993,-2.0627,-2.0338,-2.0162,-2.01,-2.0024,-1.9849,-1.9736,-1.9798,-1.9798,-1.9798,-1.9798,-1.9798,-1.9798,-1.9798,-1.9798,-1.9798,-1.9798,-1.9798,-1.9798,-1.9886,-2.0112,-1.9911,-1.9823,-1.9798,-1.9798,-1.9798,-1.9761,-1.9761,-1.9635,-1.9396,-1.9309,-1.9196,-1.8844,-1.8631,-1.8494,-1.8468,-1.8304,-1.8279,-1.8191,-1.7915,-1.7689,-1.7662,-1.7325,-1.6911,-1.6785,-1.6697,-1.6597,-1.6534,-1.6556,-1.662,-1.662,-1.6663,-1.665,-1.6671,-1.6693,-1.6693,-1.6769,-1.6791,-1.6791,-1.6812,-1.6888,-1.7057,-2.3101,-2.3101,-2.3101,-2.3101,-2.3101,-2.3101,-2.3101,-2.3101,-2.3101,-2.3101,-2.3101,-2.3101,-2.3101,-2.3101,-2.3101,-2.3101,-2.3101,-2.3101,-2.3101,-2.3101,-2.3101,-2.3101,-2.3144,-2.3537,-2.3884,-2.4239,-2.4861,-2.5516,-2.6108,-2.6778,-2.7452,-2.7785,-2.8101,-2.833,-2.8346,-2.8213,-2.7934,-2.7595,-2.7406,-2.7077,-2.6562,-2.6084,-2.5711,-2.5636,-2.5146,-2.4858,-2.4782,-2.4268,-2.3464,-2.2472,-2.1882,-2.1594,-2.1531,-2.1534,-2.1182,-2.0767,-2.0742,-2.049,-2.0075,-2.0087,-2.0049,-2.0075,-2.0075,-1.9886,-2.0062,-2.0125,-2.0112,-2.0087,-2.0062,-2.0012,-2.0024,-2.0037,-2.0263,-2.0578,-2.039,-2.01,-1.9949,-1.9987,-2.0062,-1.9962,-1.9861,-1.9811,-1.9761,-1.9736,-1.971,-1.9623,-1.9296,-1.9096,-1.8983,-1.8794,-1.843,-1.8355,-1.8417,-1.8279,-1.8216,-1.7802,-1.7426,-1.73,-1.7074,-1.6773,-1.655,-1.6534,-1.6522,-1.6522,-1.6522,-1.6522,-1.6522,-1.6565,-1.6586,-1.6607,-1.662,-1.6599,-1.6641,-1.674,-1.6846,-2.3101,-2.3101,-2.3101,-2.3101,-2.3101,-2.3101,-2.3101,-2.3101,-2.3101,-2.3101,-2.3101,-2.3101,-2.3101,-2.3101,-2.3101,-2.3101,-2.3101,-2.3101,-2.3101,-2.3101,-2.3101,-2.3101,-2.3188,-2.358,-2.3841,-2.4013,-2.4775,-2.5454,-2.601,-2.6674,-2.7301,-2.7921,-2.8382,-2.8729,-2.8836,-2.8737,-2.8637,-2.8461,-2.8059,-2.762,-2.7165,-2.6939,-2.664,-2.6235,-2.5686,-2.541,-2.5347,-2.4883,-2.4048,-2.297,-2.2368,-2.2096,-2.2071,-2.1769,-2.1493,-2.133,-2.1295,-2.1257,-2.1066,-2.0991,-2.1016,-2.1041,-2.0928,-2.1041,-2.1054,-2.1029,-2.1041,-2.1041,-2.1054,-2.1004,-2.1016,-2.1016,-2.1129,-2.1232,-2.1117,-2.1016,-2.0993,-2.1041,-2.0916,-2.0578,-2.0478,-2.0289,-2.0,-1.9849,-1.9836,-1.9786,-1.9673,-1.9547,-1.9434,-1.9409,-1.9108,-1.9158,-1.9158,-1.892,-1.8669,-1.8279,-1.799,-1.789,-1.7539,-1.7011,-1.676,-1.6513,-1.6513,-1.6513,-1.6534,-1.65,-1.65,-1.6522,-1.6513,-1.6513,-1.6534,-1.6556,-1.6577,-1.6641,-1.6718,-2.3266,-2.3101,-2.3101,-2.3101,-2.3101,-2.3101,-2.3101,-2.3101,-2.3101,-2.3101,-2.3101,-2.3101,-2.3101,-2.3101,-2.3101,-2.3101,-2.3101,-2.3101,-2.3101,-2.3101,-2.3101,-2.3101,-2.3232,-2.358,-2.3797,-2.3927,-2.4775,-2.5422,-2.5937,-2.6561,-2.7219,-2.7869,-2.8498,-2.8895,-2.9055,-2.9247,-2.9151,-2.8888,-2.8549,-2.8185,-2.767,-2.7381,-2.7178,-2.6776,-2.6285,-2.5921,-2.5598,-2.5297,-2.4632,-2.3672,-2.3188,-2.2912,-2.2631,-2.2385,-2.2083,-2.1882,-2.1832,-2.1773,-2.1518,-2.1481,-2.1481,-2.1481,-2.1481,-2.1481,-2.1455,-2.1481,-2.1481,-2.1443,-2.1481,-2.1481,-2.1559,-2.1681,-2.182,-2.1857,-2.2033,-2.1983,-2.1568,-2.1443,-2.1355,-2.1117,-2.1006,-2.0817,-2.0277,-2.0175,-2.0037,-1.9874,-1.9798,-1.9761,-1.9748,-1.9798,-1.9786,-1.9673,-1.9623,-1.9397,-1.9146,-1.8819,-1.8494,-1.8381,-1.8078,-1.7513,-1.6986,-1.6638,-1.6525,-1.6525,-1.6513,-1.6513,-1.6513,-1.6513,-1.6513,-1.6513,-1.6513,-1.6513,-1.6543,-1.6543,-1.662,-2.3564,-2.3159,-2.311,-2.3101,-2.3101,-2.3101,-2.3101,-2.3101,-2.3101,-2.3101,-2.3101,-2.3101,-2.3101,-2.3101,-2.3101,-2.3101,-2.3101,-2.3101,-2.3101,-2.3101,-2.3101,-2.3144,-2.3222,-2.3624,-2.3797,-2.3927,-2.4775,-2.5422,-2.5937,-2.6561,-2.7219,-2.7869,-2.8486,-2.8843,-2.9131,-2.9496,-2.9465,-2.9164,-2.9038,-2.8737,-2.8235,-2.7833,-2.7582,-2.7354,-2.6864,-2.6311,-2.59,-2.5649,-2.5234,-2.423,-2.4117,-2.3753,-2.3283,-2.3183,-2.2895,-2.2523,-2.2355,-2.2196,-2.1807,-2.182,-2.1744,-2.1794,-2.1769,-2.1656,-2.1794,-2.1857,-2.1845,-2.187,-2.171,-2.1807,-2.1857,-2.2159,-2.2359,-2.2418,-2.2782,-2.2543,-2.1958,-2.1656,-2.1644,-2.1581,-2.1581,-2.1333,-2.0981,-2.0729,-2.0603,-2.0464,-2.0263,-2.0113,-1.9999,-1.9899,-1.9861,-1.9773,-1.9761,-1.9773,-1.9572,-1.9346,-1.9083,-1.8857,-1.8568,-1.8053,-1.7325,-1.6926,-1.6676,-1.655,-1.6525,-1.6513,-1.6513,-1.6513,-1.6513,-1.6513,-1.6513,-1.6513,-1.6513,-1.6534,-1.6577,-2.374,-2.3623,-2.3237,-2.3101,-2.3101,-2.3101,-2.3101,-2.3101,-2.3101,-2.3101,-2.3101,-2.3101,-2.3101,-2.3101,-2.3101,-2.3101,-2.3101,-2.3101,-2.3101,-2.3101,-2.3101,-2.3232,-2.3406,-2.3721,-2.3797,-2.4046,-2.4775,-2.5422,-2.5937,-2.6479,-2.7108,-2.7881,-2.8391,-2.8736,-2.9131,-2.9546,-2.9767,-2.9616,-2.9578,-2.9289,-2.8825,-2.8586,-2.8285,-2.7896,-2.7369,-2.6876,-2.6436,-2.6311,-2.5971,-2.5335,-2.487,-2.4443,-2.391,-2.3816,-2.354,-2.3083,-2.2932,-2.2869,-2.2757,-2.2644,-2.2732,-2.2673,-2.2636,-2.2786,-2.2744,-2.2681,-2.2694,-2.2744,-2.2786,-2.2644,-2.2631,-2.2794,-2.2857,-2.2907,-2.2982,-2.3007,-2.2782,-2.2706,-2.2493,-2.2259,-2.2133,-2.1933,-2.1405,-2.133,-2.1232,-2.1066,-2.0842,-2.0553,-2.0352,-2.015,-2.0062,-2.0062,-1.9987,-1.9987,-1.9736,-1.9585,-1.9409,-1.9246,-1.8983,-1.8656,-1.7892,-1.744,-1.7277,-1.6914,-1.6513,-1.6538,-1.6688,-1.6513,-1.6513,-1.6513,-1.6525,-1.6575,-1.66,-1.6563,-1.6726,-2.415,-2.3769,-2.3535,-2.3286,-2.311,-2.3101,-2.3101,-2.3101,-2.3101,-2.3101,-2.3101,-2.3101,-2.3101,-2.3101,-2.3101,-2.3101,-2.3101,-2.3101,-2.3101,-2.3144,-2.3232,-2.3373,-2.359,-2.3937,-2.4143,-2.4272,-2.4871,-2.5454,-2.5999,-2.6509,-2.7138,-2.7881,-2.8391,-2.8816,-2.9131,-2.9546,-2.9779,-2.9767,-2.9779,-2.9616,-2.9377,-2.9013,-2.8624,-2.821,-2.7795,-2.7406,-2.6939,-2.6876,-2.6575,-2.6122,-2.5724,-2.5197,-2.4544,-2.4368,-2.4104,-2.3622,-2.3509,-2.3333,-2.3195,-2.3095,-2.307,-2.312,-2.3108,-2.3095,-2.3095,-2.3095,-2.3095,-2.3095,-2.3083,-2.3095,-2.3095,-2.3095,-2.3095,-2.3095,-2.3095,-2.3095,-2.3095,-2.3095,-2.3032,-2.2744,-2.2669,-2.2368,-2.2108,-2.192,-2.1656,-2.1443,-2.1305,-2.1069,-2.1069,-2.088,-2.0603,-2.049,-2.0326,-2.0162,-1.9899,-1.9736,-1.9673,-1.9572,-1.9472,-1.9083,-1.8581,-1.8243,-1.8005,-1.7541,-1.7087,-1.6961,-1.7024,-1.6798,-1.66,-1.6538,-1.6575,-1.6663,-1.6835,-1.7011,-1.7262,-2.4639,-2.3984,-2.3916,-2.3662,-2.3315,-2.3237,-2.3227,-2.3208,-2.311,-2.3101,-2.3101,-2.3101,-2.3101,-2.3101,-2.3101,-2.3101,-2.3101,-2.3101,-2.3101,-2.3232,-2.3373,-2.359,-2.3797,-2.4196,-2.4583,-2.4711,-2.5168,-2.5653,-2.6155,-2.6704,-2.726,-2.7921,-2.8486,-2.8882,-2.917,-2.9534,-2.9779,-2.9779,-2.9779,-2.9779,-2.9691,-2.9276,-2.8863,-2.8398,-2.826,-2.7959,-2.7532,-2.7369,-2.719,-2.6675,-2.6612,-2.6025,-2.536,-2.4901,-2.4662,-2.4167,-2.413,-2.3954,-2.3659,-2.3484,-2.3471,-2.3358,-2.3271,-2.3258,-2.3271,-2.317,-2.3095,-2.3095,-2.3095,-2.3095,-2.3095,-2.3095,-2.3095,-2.3095,-2.3095,-2.3095,-2.3095,-2.3095,-2.307,-2.307,-2.2957,-2.2719,-2.2556,-2.238,-2.2108,-2.1845,-2.1719,-2.1619,-2.1619,-2.1468,-2.1129,-2.0981,-2.0855,-2.0578,-2.0289,-1.9836,-1.9786,-1.9773,-1.9748,-1.9484,-1.9158,-1.9008,-1.8706,-1.8166,-1.7777,-1.7614,-1.7451,-1.7338,-1.7112,-1.6798,-1.6898,-1.725,-1.7413,-1.7511,-1.7739,-2.5028,-2.4871,-2.4463,-2.4222,-2.4105,-2.3838,-2.3672,-2.3613,-2.3266,-2.3101,-2.3101,-2.3101,-2.3101,-2.3101,-2.3101,-2.3101,-2.3101,-2.3101,-2.3222,-2.3363,-2.3547,-2.3754,-2.4239,-2.454,-2.4967,-2.5517,-2.5833,-2.6065,-2.6321,-2.6816,-2.7452,-2.7962,-2.8538,-2.8922,-2.9209,-2.9546,-2.9779,-2.9779,-2.9779,-2.9779,-2.9741,-2.9628,-2.934,-2.8813,-2.8762,-2.8499,-2.8109,-2.7946,-2.7708,-2.7253,-2.719,-2.6813,-2.626,-2.5737,-2.5272,-2.482,-2.465,-2.4569,-2.4393,-2.4412,-2.4487,-2.4412,-2.4073,-2.3866,-2.3753,-2.3446,-2.3346,-2.3258,-2.3233,-2.3158,-2.3108,-2.3183,-2.312,-2.3108,-2.3095,-2.3095,-2.3095,-2.3095,-2.3095,-2.3095,-2.3083,-2.307,-2.2895,-2.2782,-2.2619,-2.2435,-2.2297,-2.2209,-2.2184,-2.192,-2.1543,-2.143,-2.1395,-2.1043,-2.0691,-2.0189,-1.9861,-1.9886,-1.9849,-1.9773,-1.9585,-1.966,-1.9371,-1.8781,-1.8367,-1.8129,-1.799,-1.7865,-1.7739,-1.7526,-1.7702,-1.7903,-1.799,-1.8078,-1.8141,-2.5283,-2.5106,-2.4834,-2.4619,-2.4404,-2.4209,-2.3984,-2.3779,-2.3564,-2.3296,-2.314,-2.3101,-2.3101,-2.3101,-2.3101,-2.3101,-2.3101,-2.3101,-2.3276,-2.3503,-2.3764,-2.4067,-2.4657,-2.4988,-2.5506,-2.6129,-2.6607,-2.6858,-2.6798,-2.7144,-2.7743,-2.8231,-2.8749,-2.9052,-2.9287,-2.9624,-2.9804,-2.9804,-2.9792,-2.9779,-2.9779,-2.9779,-2.9591,-2.9465,-2.9327,-2.9076,-2.8662,-2.8499,-2.826,-2.7833,-2.7708,-2.7394,-2.6979,-2.659,-2.6088,-2.5423,-2.5234,-2.5064,-2.4895,-2.48,-2.4763,-2.475,-2.4556,-2.4443,-2.4381,-2.4173,-2.3923,-2.3948,-2.3948,-2.3847,-2.3653,-2.359,-2.3439,-2.3158,-2.3133,-2.3145,-2.3108,-2.312,-2.312,-2.312,-2.3095,-2.3095,-2.3095,-2.3032,-2.3083,-2.2995,-2.2832,-2.2744,-2.2656,-2.2406,-2.2071,-2.1882,-2.1782,-2.1483,-2.1119,-2.0666,-2.0263,-2.0213,-2.0024,-1.9936,-1.9836,-1.9849,-1.9698,-1.9321,-1.8982,-1.8656,-1.8493,-1.8355,-1.8304,-1.8254,-1.8216,-1.8254,-1.8505,-1.8656,-1.8719,-2.5527,-2.5205,-2.5205,-2.5,-2.4697,-2.458,-2.4375,-2.4062,-2.3857,-2.3594,-2.3247,-2.314,-2.3101,-2.3101,-2.3101,-2.3101,-2.311,-2.3213,-2.353,-2.3843,-2.4381,-2.472,-2.5218,-2.5797,-2.651,-2.7077,-2.7782,-2.7965,-2.7642,-2.7976,-2.8373,-2.8903,-2.9272,-2.9581,-2.9853,-3.0,-2.9966,-2.993,-2.9804,-2.9779,-2.9779,-2.9779,-2.9779,-2.9779,-2.9779,-2.9541,-2.9151,-2.9101,-2.88,-2.8448,-2.8222,-2.8021,-2.757,-2.7457,-2.6967,-2.6126,-2.585,-2.5536,-2.5335,-2.5234,-2.5322,-2.5335,-2.5039,-2.4963,-2.4921,-2.4808,-2.47,-2.48,-2.4725,-2.455,-2.4217,-2.4155,-2.3966,-2.3684,-2.3534,-2.3434,-2.3384,-2.3346,-2.3258,-2.3221,-2.3145,-2.312,-2.3145,-2.3095,-2.3095,-2.3095,-2.2957,-2.297,-2.2895,-2.2945,-2.2669,-2.2397,-2.2159,-2.1845,-2.1546,-2.1207,-2.093,-2.0842,-2.0503,-2.0226,-2.0075,-1.9936,-1.9773,-1.9635,-1.9459,-1.9121,-1.8958,-1.887,-1.892,-1.8844,-1.8618,-1.8681,-1.9032,-1.9196,-1.9246,-2.5664,-2.5606,-2.5596,-2.5577,-2.545,-2.5146,-2.4971,-2.4795,-2.4141,-2.3769,-2.3682,-2.333,-2.313,-2.3149,-2.3169,-2.314,-2.3335,-2.3787,-2.4167,-2.4519,-2.5208,-2.592,-2.6646,-2.7217,-2.7757,-2.8282,-2.8997,-2.8829,-2.8667,-2.9308,-2.9726,-2.9927,-3.0331,-3.0847,-3.0652,-3.0578,-3.048,-3.0419,-3.003,-2.9779,-2.9779,-2.9779,-2.9779,-2.9779,-2.9779,-2.9741,-2.9591,-2.9553,-2.9352,-2.8875,-2.88,-2.8561,-2.8122,-2.8009,-2.7695,-2.7178,-2.6713,-2.6361,-2.621,-2.6109,-2.6097,-2.5984,-2.5762,-2.5548,-2.5448,-2.5197,-2.5008,-2.48,-2.4895,-2.4883,-2.4782,-2.4732,-2.4669,-2.4556,-2.4349,-2.4161,-2.4029,-2.3847,-2.3735,-2.3484,-2.3459,-2.3296,-2.3221,-2.3158,-2.3095,-2.3095,-2.3095,-2.3095,-2.3095,-2.3095,-2.3095,-2.2769,-2.2598,-2.2309,-2.2058,-2.1707,-2.1534,-2.1433,-2.1006,-2.0591,-2.0528,-2.0363,-1.9999,-1.9861,-1.9736,-1.961,-1.9459,-1.9422,-1.9535,-1.9434,-1.9208,-1.9359,-1.9648,-1.9736,-1.9685,-2.5684,-2.5684,-2.5684,-2.5684,-2.5664,-2.5518,-2.5293,-2.5067,-2.4734,-2.4365,-2.4102,-2.3701,-2.3506,-2.3535,-2.3686,-2.3912,-2.4096,-2.4435,-2.4832,-2.5337,-2.6027,-2.6704,-2.7371,-2.8061,-2.8723,-2.941,-2.9967,-3.0385,-3.0254,-3.0199,-3.0433,-3.0707,-3.0943,-3.1116,-3.1335,-3.1145,-3.0884,-3.0545,-3.0105,-2.9804,-2.9779,-2.9779,-2.9779,-2.9779,-2.9779,-2.9779,-2.9779,-2.9779,-2.9704,-2.9428,-2.9415,-2.9151,-2.8725,-2.8524,-2.831,-2.7783,-2.7253,-2.6826,-2.6524,-2.6512,-2.6487,-2.6474,-2.626,-2.6101,-2.6072,-2.5862,-2.5699,-2.5762,-2.5762,-2.5598,-2.5322,-2.5259,-2.5071,-2.4983,-2.5008,-2.4795,-2.4582,-2.4519,-2.4368,-2.4048,-2.3785,-2.3672,-2.3534,-2.3409,-2.3283,-2.3095,-2.3095,-2.3095,-2.3095,-2.3095,-2.3095,-2.3058,-2.2907,-2.2799,-2.2556,-2.2293,-2.2071,-2.1882,-2.1481,-2.1194,-2.1131,-2.093,-2.0578,-2.0377,-2.0339,-2.0189,-1.9949,-1.9761,-1.9685,-1.9736,-1.9786,-1.9874,-1.9936,-1.9874,-1.9899,-2.5684,-2.5684,-2.5684,-2.5684,-2.5684,-2.5684,-2.5547,-2.5254,-2.5135,-2.4863,-2.4541,-2.415,-2.3935,-2.3994,-2.4228,-2.4408,-2.4772,-2.4957,-2.5457,-2.6061,-2.679,-2.7473,-2.8266,-2.894,-2.9682,-3.0288,-3.1076,-3.1467,-3.1553,-3.1508,-3.1395,-3.1493,-3.1709,-3.176,-3.1772,-3.1637,-3.1336,-3.0595,-3.0256,-2.998,-2.9829,-2.9779,-2.9779,-2.9779,-2.9779,-2.9779,-2.9779,-2.9779,-2.9779,-2.9754,-2.9729,-2.9503,-2.9164,-2.9126,-2.8863,-2.8398,-2.7921,-2.7532,-2.7102,-2.6788,-2.6549,-2.6487,-2.6487,-2.6411,-2.6436,-2.6487,-2.6474,-2.6348,-2.6361,-2.616,-2.5971,-2.5812,-2.5699,-2.5511,-2.5372,-2.5197,-2.5059,-2.5021,-2.4858,-2.4474,-2.4274,-2.4224,-2.4048,-2.3797,-2.3521,-2.3195,-2.3095,-2.312,-2.312,-2.3145,-2.3095,-2.3095,-2.3058,-2.297,-2.2882,-2.2706,-2.2531,-2.233,-2.197,-2.1744,-2.1681,-2.1455,-2.1129,-2.1018,-2.0918,-2.0817,-2.0639,-2.0213,-1.9811,-1.9849,-1.9924,-2.0049,-2.01,-2.0075,-2.0263,-2.5684,-2.5684,-2.5684,-2.5684,-2.5684,-2.5684,-2.5664,-2.5596,-2.5254,-2.5116,-2.4912,-2.4609,-2.4424,-2.4414,-2.4492,-2.469,-2.4871,-2.5461,-2.6104,-2.6847,-2.7704,-2.8554,-2.9319,-3.013,-3.0924,-3.1496,-3.2005,-3.2333,-3.2624,-3.2566,-3.2548,-3.2642,-3.2552,-3.2812,-3.2679,-3.2215,-3.1637,-3.0972,-3.057,-3.0244,-2.998,-2.9829,-2.9779,-2.9779,-2.9779,-2.9779,-2.9779,-2.9779,-2.9779,-2.9779,-2.9779,-2.9779,-2.9603,-2.9578,-2.9289,-2.895,-2.8662,-2.8298,-2.7871,-2.7102,-2.6562,-2.6499,-2.6487,-2.6487,-2.6487,-2.6487,-2.6487,-2.6487,-2.6487,-2.6461,-2.6386,-2.6399,-2.621,-2.6122,-2.5887,-2.5787,-2.5661,-2.5573,-2.5372,-2.4938,-2.4763,-2.4725,-2.46,-2.4349,-2.4036,-2.3722,-2.3371,-2.3371,-2.3246,-2.3233,-2.3133,-2.3095,-2.3095,-2.307,-2.3083,-2.2945,-2.2819,-2.2706,-2.2456,-2.2293,-2.2246,-2.1983,-2.1794,-2.1543,-2.143,-2.138,-2.1242,-2.0727,-2.0313,-2.0075,-2.01,-2.0451,-2.0704,-2.0792,-2.1004,-2.5684,-2.5684,-2.5684,-2.5684,-2.5684,-2.5684,-2.5684,-2.5664,-2.5557,-2.5303,-2.5135,-2.5156,-2.5068,-2.4941,-2.5137,-2.5425,-2.5862,-2.6256,-2.6925,-2.7764,-2.8669,-2.9485,-3.0216,-3.0996,-3.1649,-3.215,-3.2587,-3.281,-3.2927,-3.3194,-3.3093,-3.3025,-3.3144,-3.3068,-3.2923,-3.2566,-3.2001,-3.1562,-3.0931,-3.0482,-3.0331,-2.993,-2.9779,-2.9779,-2.9779,-2.9779,-2.9779,-2.9779,-2.9779,-2.9779,-2.9779,-2.9779,-2.9779,-2.9779,-2.9654,-2.939,-2.9164,-2.8863,-2.8511,-2.7607,-2.6889,-2.6524,-2.6487,-2.6537,-2.6612,-2.6537,-2.6499,-2.6487,-2.6562,-2.6637,-2.6524,-2.6499,-2.6436,-2.6474,-2.6424,-2.6311,-2.621,-2.6038,-2.5963,-2.5586,-2.5398,-2.5285,-2.5134,-2.4958,-2.4632,-2.4293,-2.3941,-2.3653,-2.3559,-2.3384,-2.3296,-2.317,-2.3158,-2.3108,-2.3095,-2.3095,-2.3108,-2.2995,-2.2882,-2.2769,-2.2644,-2.2757,-2.2543,-2.223,-2.1945,-2.1857,-2.1619,-2.1167,-2.0878,-2.0727,-2.084,-2.1131,-2.132,-2.1483,-2.1681,-2.5684,-2.5684,-2.5684,-2.5684,-2.5684,-2.5684,-2.5684,-2.5684,-2.5674,-2.5586,-2.5293,-2.5547,-2.5586,-2.543,-2.5547,-2.5984,-2.6418,-2.6914,-2.7714,-2.8569,-2.9515,-3.0318,-3.1076,-3.1851,-3.2589,-3.2855,-3.3164,-3.3489,-3.364,-3.3596,-3.3658,-3.3633,-3.3382,-3.3294,-3.298,-3.2704,-3.239,-3.2026,-3.1599,-3.0781,-3.0645,-3.0281,-2.9892,-2.9854,-2.9779,-2.9779,-2.9779,-2.9779,-2.9779,-2.9779,-2.9779,-2.9779,-2.9779,-2.9779,-2.9779,-2.9641,-2.9465,-2.9189,-2.89,-2.8185,-2.7394,-2.719,-2.709,-2.7065,-2.6977,-2.6977,-2.714,-2.709,-2.7052,-2.6929,-2.6927,-2.6952,-2.6851,-2.6876,-2.6549,-2.6411,-2.6411,-2.6323,-2.6361,-2.6273,-2.6084,-2.5837,-2.5787,-2.5598,-2.5159,-2.4808,-2.4443,-2.4217,-2.4167,-2.3916,-2.3565,-2.3396,-2.3246,-2.317,-2.3095,-2.3158,-2.3183,-2.3083,-2.3007,-2.3032,-2.3007,-2.3108,-2.3083,-2.2719,-2.2443,-2.2305,-2.2196,-2.202,-2.1732,-2.1443,-2.1594,-2.1744,-2.2096,-2.2272,-2.2309,-2.5732,-2.5684,-2.5684,-2.5684,-2.5684,-2.5684,-2.5684,-2.5684,-2.5684,-2.5654,-2.5596,-2.5684,-2.5674,-2.5635,-2.5771,-2.6132,-2.6697,-2.7301,-2.8157,-2.9138,-3.0208,-3.1204,-3.2031,-3.2765,-3.3275,-3.3933,-3.4127,-3.4252,-3.4537,-3.4412,-3.4474,-3.4349,-3.396,-3.352,-3.3119,-3.3111,-3.2767,-3.2303,-3.2164,-3.1524,-3.0984,-3.0656,-3.0369,-3.003,-2.993,-2.9955,-2.9792,-2.9779,-2.9779,-2.9779,-2.9779,-2.9779,-2.9779,-2.9779,-2.9779,-2.9754,-2.9741,-2.9704,-2.9654,-2.8674,-2.816,-2.7871,-2.7682,-2.777,-2.7946,-2.7971,-2.7846,-2.7657,-2.7808,-2.7896,-2.7808,-2.7582,-2.7369,-2.7228,-2.6927,-2.6713,-2.6738,-2.6675,-2.6713,-2.6537,-2.6487,-2.6449,-2.6436,-2.6285,-2.577,-2.5322,-2.4958,-2.4782,-2.4732,-2.4418,-2.4029,-2.3916,-2.3735,-2.3672,-2.3622,-2.3358,-2.3271,-2.317,-2.3195,-2.3296,-2.3233,-2.317,-2.312,-2.3032,-2.2907,-2.2694,-2.2844,-2.2995,-2.256,-2.2133,-2.2167,-2.2355,-2.2757,-2.2932,-2.2819,-2.5965,-2.5965,-2.5781,-2.5684,-2.5684,-2.5684,-2.5684,-2.5684,-2.5684,-2.5684,-2.5684,-2.5684,-2.5684,-2.5752,-2.6084,-2.6438,-2.7029,-2.7916,-2.8775,-2.9629,-3.0771,-3.1458,-3.2241,-3.3029,-3.3633,-3.3964,-3.4318,-3.462,-3.4643,-3.476,-3.4731,-3.4542,-3.4216,-3.3621,-3.3262,-3.3124,-3.2973,-3.2742,-3.2428,-3.2001,-3.1662,-3.1311,-3.0896,-3.0382,-3.0331,-3.0181,-2.988,-2.9867,-2.9842,-2.9792,-2.9779,-2.9779,-2.9779,-2.9779,-2.9779,-2.9779,-2.9779,-2.9779,-2.9754,-2.9289,-2.885,-2.8461,-2.821,-2.8235,-2.8134,-2.8122,-2.8109,-2.8172,-2.826,-2.8247,-2.7996,-2.7959,-2.7833,-2.7833,-2.7607,-2.7356,-2.7268,-2.714,-2.7027,-2.6663,-2.6487,-2.6549,-2.6575,-2.6512,-2.6109,-2.5896,-2.5523,-2.5372,-2.531,-2.4921,-2.4531,-2.4499,-2.4412,-2.4336,-2.4199,-2.396,-2.3923,-2.3985,-2.3847,-2.3766,-2.3609,-2.3471,-2.3258,-2.3221,-2.3158,-2.3095,-2.3095,-2.3083,-2.297,-2.2782,-2.2706,-2.2694,-2.2907,-2.3045,-2.302,-2.61,-2.6052,-2.583,-2.5684,-2.5684,-2.5684,-2.5684,-2.5684,-2.5684,-2.5684,-2.5684,-2.5684,-2.5801,-2.6016,-2.628,-2.6823,-2.7461,-2.8288,-2.9237,-3.0115,-3.1189,-3.2025,-3.2704,-3.3292,-3.4087,-3.4365,-3.4632,-3.4867,-3.5093,-3.5018,-3.4965,-3.4807,-3.4327,-3.3871,-3.3477,-3.33,-3.3111,-3.2973,-3.2692,-3.2428,-3.2127,-3.18,-3.1411,-3.1035,-3.0821,-3.0645,-3.0256,-3.0055,-2.998,-2.988,-2.9804,-2.9792,-2.9792,-2.9779,-2.9779,-2.9779,-2.9779,-2.9779,-2.9767,-2.9754,-2.9302,-2.89,-2.8699,-2.8687,-2.8687,-2.8812,-2.8787,-2.8762,-2.8637,-2.8649,-2.8649,-2.8599,-2.8398,-2.8386,-2.816,-2.7908,-2.7733,-2.7582,-2.7494,-2.7115,-2.6964,-2.6927,-2.6751,-2.6549,-2.6373,-2.626,-2.6147,-2.5975,-2.5812,-2.5423,-2.5084,-2.5071,-2.4913,-2.4725,-2.465,-2.4575,-2.46,-2.4763,-2.4582,-2.4293,-2.4243,-2.4098,-2.3747,-2.3477,-2.3527,-2.3477,-2.3183,-2.307,-2.312,-2.3095,-2.2995,-2.302,-2.3095,-2.3145,-2.3183,-2.6149,-2.6052,-2.583,-2.5742,-2.5684,-2.5684,-2.5684,-2.5684,-2.5684,-2.5684,-2.5684,-2.5684,-2.5937,-2.6299,-2.6406,-2.6962,-2.7814,-2.8594,-2.9463,-3.0503,-3.1516,-3.2485,-3.3311,-3.3999,-3.4378,-3.4908,-3.5149,-3.5049,-3.5487,-3.5398,-3.5258,-3.5065,-3.4491,-3.4073,-3.3733,-3.3277,-3.307,-3.3031,-3.3023,-3.2704,-3.2441,-3.229,-3.1926,-3.1612,-3.1386,-3.1122,-3.0809,-3.062,-3.0331,-3.0105,-2.988,-2.9829,-2.9804,-2.9779,-2.9779,-2.9779,-2.9779,-2.9779,-2.9779,-2.9779,-2.9767,-2.9478,-2.9578,-2.9716,-2.9628,-2.9465,-2.9402,-2.9428,-2.9402,-2.9541,-2.9616,-2.9289,-2.8925,-2.8787,-2.8561,-2.836,-2.8197,-2.8097,-2.8072,-2.7921,-2.7858,-2.7708,-2.7306,-2.7065,-2.6751,-2.6612,-2.6499,-2.6336,-2.616,-2.5925,-2.5649,-2.5598,-2.541,-2.5051,-2.5013,-2.5222,-2.5285,-2.5435,-2.5096,-2.4833,-2.4795,-2.4662,-2.4299,-2.4079,-2.4048,-2.3935,-2.3766,-2.3559,-2.3391,-2.3366,-2.3547,-2.3233,-2.3283,-2.3321,-2.3346,-2.6726,-2.6342,-2.61,-2.5868,-2.5732,-2.5684,-2.5684,-2.5684,-2.5684,-2.5684,-2.5684,-2.5684,-2.6006,-2.6387,-2.6699,-2.7316,-2.8101,-2.8939,-2.9715,-3.0627,-3.1418,-3.2258,-3.2946,-3.3557,-3.404,-3.4433,-3.4726,-3.4823,-3.5005,-3.5175,-3.5404,-3.5336,-3.4462,-3.4098,-3.3662,-3.3076,-3.2984,-3.2995,-3.3038,-3.29,-3.2775,-3.2712,-3.2373,-3.2085,-3.1947,-3.1634,-3.127,-3.1185,-3.0884,-3.0495,-3.0382,-3.0256,-2.9792,-2.9779,-2.9779,-2.9779,-2.9779,-2.9779,-2.9779,-2.9779,-2.9779,-2.9779,-2.9779,-2.9779,-2.9779,-2.9779,-2.9779,-2.9779,-2.9779,-2.9779,-2.9779,-2.9566,-2.939,-2.9252,-2.9076,-2.8963,-2.88,-2.8687,-2.8637,-2.8436,-2.8386,-2.8197,-2.7808,-2.7431,-2.713,-2.6967,-2.6864,-2.6725,-2.6487,-2.6298,-2.6122,-2.6059,-2.5963,-2.5649,-2.5824,-2.6034,-2.6059,-2.6034,-2.5682,-2.5372,-2.5322,-2.5159,-2.4813,-2.4619,-2.4488,-2.4475,-2.4456,-2.4224,-2.3948,-2.4236,-2.4349,-2.3835,-2.3471,-2.3609,-2.371,-2.7204,-2.6784,-2.6294,-2.5965,-2.5732,-2.5684,-2.5684,-2.5684,-2.5684,-2.5684,-2.5684,-2.5684,-2.6064,-2.6631,-2.6924,-2.7469,-2.8383,-2.8993,-2.967,-3.0297,-3.1013,-3.1783,-3.2392,-3.2908,-3.3408,-3.3755,-3.3941,-3.4028,-3.4335,-3.464,-3.4872,-3.4957,-3.4153,-3.3891,-3.3554,-3.299,-3.2636,-3.2736,-3.2822,-3.2822,-3.2865,-3.2865,-3.2573,-3.2416,-3.2317,-3.2089,-3.173,-3.1655,-3.1436,-3.0947,-3.0809,-3.0495,-3.0055,-2.9955,-2.9792,-2.9779,-2.9779,-2.9779,-2.9779,-2.9779,-2.9779,-2.9779,-2.9779,-2.9779,-2.9779,-2.9779,-2.9779,-2.9779,-2.9779,-2.9779,-2.9779,-2.9779,-2.9767,-2.9754,-2.9679,-2.9603,-2.9453,-2.9302,-2.9101,-2.8863,-2.8687,-2.8536,-2.8235,-2.7858,-2.7607,-2.7557,-2.7507,-2.7419,-2.709,-2.6688,-2.6474,-2.6323,-2.6361,-2.6311,-2.6512,-2.6549,-2.6424,-2.6336,-2.6197,-2.5971,-2.5896,-2.5737,-2.5523,-2.5217,-2.4885,-2.4865,-2.4858,-2.4768,-2.4636,-2.4868,-2.4958,-2.4499,-2.4186,-2.4199,-2.4274,-2.7536,-2.7262,-2.6438,-2.5965,-2.5742,-2.5732,-2.5684,-2.5684,-2.5684,-2.5684,-2.5684,-2.5684,-2.6191,-2.6816,-2.7021,-2.7623,-2.8358,-2.8953,-2.9406,-2.9994,-3.0609,-3.1322,-3.1885,-3.2392,-3.2645,-3.2946,-3.3147,-3.3285,-3.3545,-3.3854,-3.4078,-3.4276,-3.3482,-3.3167,-3.323,-3.2516,-3.2118,-3.2125,-3.2213,-3.2257,-3.2444,-3.2444,-3.24,-3.2438,-3.2482,-3.2407,-3.2132,-3.2034,-3.2026,-3.1486,-3.111,-3.0846,-3.0432,-3.0068,-2.9854,-2.9779,-2.9779,-2.9779,-2.9779,-2.9779,-2.9779,-2.9779,-2.9779,-2.9779,-2.9779,-2.9779,-2.9779,-2.9779,-2.9779,-2.9779,-2.9779,-2.9779,-2.9779,-2.9779,-2.9741,-2.9704,-2.9641,-2.9553,-2.9478,-2.9289,-2.9176,-2.9026,-2.89,-2.8536,-2.8172,-2.816,-2.7984,-2.7908,-2.772,-2.7241,-2.7065,-2.6851,-2.6927,-2.6964,-2.6738,-2.6751,-2.66,-2.6512,-2.6474,-2.6386,-2.621,-2.6223,-2.6239,-2.5883,-2.5526,-2.528,-2.5184,-2.5219,-2.5306,-2.5289,-2.5297,-2.5109,-2.4971,-2.4971,-2.4908,-2.8102,-2.7452,-2.6524,-2.6052,-2.5955,-2.5781,-2.5684,-2.5684,-2.5684,-2.5684,-2.5684,-2.5742,-2.6161,-2.6924,-2.7012,-2.7542,-2.8294,-2.8771,-2.9142,-2.9617,-3.0193,-3.0765,-3.127,-3.1578,-3.1772,-3.1975,-3.2229,-3.2544,-3.2846,-3.3097,-3.3323,-3.3616,-3.2921,-3.263,-3.2782,-3.1993,-3.161,-3.1666,-3.1699,-3.2011,-3.2396,-3.2418,-3.24,-3.24,-3.2426,-3.25,-3.2376,-3.2493,-3.2322,-3.2035,-3.1938,-3.1424,-3.0658,-3.0105,-2.9829,-2.9779,-2.9779,-2.9779,-2.9779,-2.9779,-2.9779,-2.9779,-2.9779,-2.9779,-2.9779,-2.9779,-2.9779,-2.9779,-2.9779,-2.9779,-2.9779,-2.9779,-2.9779,-2.9779,-2.9779,-2.9779,-2.9779,-2.9779,-2.9779,-2.9716,-2.9628,-2.9528,-2.9415,-2.9189,-2.8825,-2.8536,-2.821,-2.8084,-2.8172,-2.7921,-2.7959,-2.7795,-2.772,-2.7645,-2.7329,-2.7102,-2.704,-2.6788,-2.6675,-2.66,-2.6512,-2.6436,-2.6386,-2.6386,-2.6185,-2.5896,-2.5787,-2.605,-2.6076,-2.5896,-2.5833,-2.5686,-2.5799,-2.5871,-2.5674,-2.8757,-2.8045,-2.7051,-2.6428,-2.61,-2.5917,-2.582,-2.5732,-2.5684,-2.5684,-2.5684,-2.5752,-2.6221,-2.6934,-2.7012,-2.749,-2.8227,-2.8558,-2.8834,-2.9205,-2.9732,-3.0203,-3.0557,-3.0868,-3.1127,-3.1333,-3.1516,-3.1823,-3.2139,-3.2392,-3.265,-3.281,-3.2285,-3.2114,-3.2213,-3.1728,-3.1424,-3.154,-3.1515,-3.1926,-3.2463,-3.2277,-3.2042,-3.2025,-3.2169,-3.23,-3.2419,-3.2537,-3.258,-3.2384,-3.2243,-3.1533,-3.0859,-3.0357,-3.0055,-2.9867,-2.9779,-2.9779,-2.9792,-2.9779,-2.9779,-2.9779,-2.9779,-2.9779,-2.9779,-2.9779,-2.9779,-2.9779,-2.9779,-2.9779,-2.9779,-2.9779,-2.9779,-2.9779,-2.9779,-2.9779,-2.9779,-2.9779,-2.9779,-2.9767,-2.9716,-2.9691,-2.9603,-2.9591,-2.9315,-2.9289,-2.89,-2.8787,-2.8775,-2.8637,-2.8687,-2.8662,-2.8499,-2.8197,-2.7783,-2.762,-2.7582,-2.7281,-2.6964,-2.6776,-2.6688,-2.6562,-2.6474,-2.6575,-2.6587,-2.6399,-2.6424,-2.6524,-2.6499,-2.626,-2.6311,-2.6373,-2.6487,-2.6487,-2.6248,-2.9143,-2.8664,-2.7678,-2.688,-2.6245,-2.6091,-2.5965,-2.5781,-2.5732,-2.5684,-2.5713,-2.5762,-2.6328,-2.6787,-2.7129,-2.7685,-2.8139,-2.8475,-2.8621,-2.894,-2.9469,-2.9722,-2.9994,-3.0308,-3.0464,-3.0724,-3.092,-3.1075,-3.1281,-3.1578,-3.1852,-3.1927,-3.194,-3.1939,-3.1999,-3.197,-3.1736,-3.1772,-3.1902,-3.2312,-3.2228,-3.1984,-3.1851,-3.1849,-3.1886,-3.1962,-3.2113,-3.232,-3.2568,-3.2573,-3.2376,-3.1809,-3.1273,-3.0834,-3.0407,-3.0168,-3.003,-2.9942,-2.9817,-2.9779,-2.9779,-2.9779,-2.9792,-2.9817,-2.9829,-2.9829,-2.9829,-2.9829,-2.9829,-2.9792,-2.9792,-2.9779,-2.9779,-2.9779,-2.9779,-2.9779,-2.9779,-2.9779,-2.9779,-2.9779,-2.9779,-2.9779,-2.9779,-2.9767,-2.9779,-2.9779,-2.9779,-2.9779,-2.9679,-2.9402,-2.9277,-2.9176,-2.9026,-2.8674,-2.8285,-2.8197,-2.816,-2.7808,-2.7457,-2.7153,-2.6939,-2.7065,-2.7065,-2.6901,-2.6864,-2.6776,-2.6637,-2.6612,-2.6575,-2.6575,-2.6487,-2.6487,-2.6487,-2.6487,-2.6487,-2.9047,-2.8395,-2.7631,-2.7071,-2.6699,-2.6284,-2.6052,-2.6004,-2.5781,-2.5684,-2.583,-2.6152,-2.6572,-2.7041,-2.7422,-2.7851,-2.8193,-2.8398,-2.8514,-2.8791,-2.8993,-2.9142,-2.9353,-2.9617,-2.9774,-3.0036,-3.0308,-3.0464,-3.0713,-3.0972,-3.127,-3.1637,-3.1293,-3.1351,-3.1697,-3.16,-3.1471,-3.1638,-3.1819,-3.207,-3.2324,-3.2193,-3.2215,-3.2133,-3.1946,-3.1946,-3.1981,-3.2069,-3.2363,-3.2463,-3.2451,-3.211,-3.1775,-3.1386,-3.0972,-3.0608,-3.0457,-3.0294,-3.0168,-3.0068,-3.008,-3.003,-3.0043,-3.0005,-3.0018,-2.9993,-2.9993,-2.998,-2.9955,-2.9854,-2.9829,-2.9792,-2.9779,-2.9779,-2.9779,-2.9779,-2.9779,-2.9779,-2.9779,-2.9779,-2.9779,-2.9779,-2.9779,-2.9779,-2.9779,-2.9779,-2.9779,-2.9779,-2.9779,-2.9779,-2.9779,-2.9628,-2.9453,-2.9227,-2.885,-2.8787,-2.8687,-2.8335,-2.8009,-2.7733,-2.7645,-2.7808,-2.7745,-2.7444,-2.7281,-2.7193,-2.703,-2.6942,-2.6801,-2.6801,-2.6575,-2.6487,-2.6537,-2.6675,-2.6851]},{"header":{"parameterUnit":"m.s-1","parameterCategory":1,"la1":31.0,"la2":29.5877,"lo1":-88.7671,"lo2":-86.6584,"dy":0.0162,"dx":0.0185,"nx":115,"ny":88,"refTime":"2023-04-06T00:00:00:Z","depth":0,"parameterNumber":3,"parameterNumberName":"V-component_of_WINDS"},"data":[0.0,0.0,0.0,0.0,0.0,0.0,0.0,0.0,0.0,0.0,0.0,0.0,0.0,0.0,0.0,0.0,0.0,0.0,0.0,0.0,0.0,0.0,0.0,0.0,0.0,0.0,0.0,0.0,0.0,0.0,0.0,0.0,0.0,0.0,0.0,0.0,0.0,0.0,0.0,0.0,0.0,0.0,0.0,0.0,0.0,0.0,0.0,0.0,0.0,0.0,0.0,0.0,0.0,0.0,0.0,0.0,0.0,0.0,0.0,0.0,0.0,0.0,0.0,0.0,0.0,0.0,0.0,0.0,0.0,0.0,0.0,0.0,0.0,0.0,0.0,0.0,0.0,0.0,0.0,0.0,0.0,0.0,0.0,0.0,0.0,0.0,0.0,0.0,0.0,0.0,0.0,0.0,0.0,0.0,0.0,0.0,0.0,0.0,0.0,0.0,0.0,0.0,0.0,0.0,0.0,0.0,0.0,0.0,0.0,0.0,0.0,0.0,0.0,0.0,0.0,0.0,0.0,0.0,0.0,0.0,0.0,0.0,0.0,0.0,0.0,0.0,0.0,0.0,0.0,0.0,0.0,0.0,0.0,0.0,0.0,0.0,0.0,0.0,0.0,0.0,0.0,0.0,0.0,0.0,0.0,0.0,0.0,0.0,0.0,0.0,0.0,0.0,0.0,0.0,0.0,0.0,0.0,0.0,0.0,0.0,0.0,0.0,0.0,0.0,0.0,0.0,0.0,0.0,0.0,0.0,0.0,0.0,0.0,0.0,0.0,0.0,0.0,0.0,0.0,0.0,0.0,0.0,0.0,0.0,0.0,0.0,0.0,0.0,0.0,0.0,0.0,0.0,0.0,0.0,0.0,0.0,0.0,0.0,0.0,0.0,0.0,0.0,0.0,0.0,0.0,0.0,0.0,0.0,0.0,0.0,0.0,0.0,0.0,0.0,0.0,0.0,0.0,0.0,0.0,0.0,0.0,0.0,0.0,0.0,0.0,0.0,0.0,0.0,0.0,0.0,0.0,0.0,0.0,0.0,0.0,0.0,0.0,0.0,0.0,0.0,0.0,0.0,0.0,0.0,0.0,0.0,0.0,0.0,0.0,0.0,0.0,0.0,0.0,0.0,0.0,0.0,0.0,0.0,0.0,0.0,0.0,0.0,0.0,0.0,0.0,0.0,0.0,0.0,0.0,0.0,0.0,0.0,0.0,0.0,0.0,0.0,0.0,0.0,0.0,0.0,0.0,0.0,0.0,0.0,0.0,0.0,0.0,0.0,0.0,0.0,0.0,0.0,0.0,0.0,0.0,0.0,0.0,0.0,0.0,0.0,0.0,0.0,0.0,0.0,0.0,0.0,0.0,0.0,0.0,0.0,0.0,0.0,0.0,0.0,0.0,0.0,0.0,0.0,0.0,0.0,0.0,0.0,0.0,0.0,0.0,0.0,0.0,0.0,0.0,0.0,0.0,0.0,0.0,0.0,0.0,0.0,0.0,0.0,0.0,0.0,0.0,0.0,0.0,0.0,0.0,0.0,0.0,0.0,0.0,0.0,0.0,0.0,0.0,0.0,0.0,0.0,0.0,0.0,0.0,0.0,0.0,0.0,0.0,0.0,0.0,0.0,0.0,0.0,0.0,0.0,0.0,0.0,0.0,0.0,0.0,0.0,0.0,0.0,0.0,0.0,0.0,0.0,0.0,0.0,0.0,0.0,0.0,0.0,0.0,0.0,0.0,0.0,0.0,0.0,0.0,0.0,0.0,0.0,0.0,0.0,0.0,0.0,0.0,0.0,0.0,0.0,0.0,0.0,0.0,0.0,0.0,0.0,0.0,0.0,0.0,0.0,0.0,0.0,0.0,0.0,0.0,0.0,0.0,0.0,0.0,0.0,0.0,0.0,0.0,0.0,0.0,0.0,0.0,0.0,0.0,0.0,0.0,0.0,0.0,0.0,0.0,0.0,0.0,0.0,0.0,0.0,0.0,0.0,0.0,0.0,0.0,0.0,0.0,0.0,0.0,0.0,0.0,0.0,0.0,0.0,0.0,0.0,0.0,0.0,0.0,0.0,0.0,0.0,0.0,0.0,0.0,0.0,0.0,0.0,0.0,0.0,0.0,0.0,0.0,0.0,0.0,0.0,0.0,0.0,0.0,0.0,0.0,0.0,0.0,0.0,0.0,0.0,0.0,0.0,0.0,0.0,0.0,0.0,0.0,0.0,0.0,0.0,0.0,0.0,0.0,0.0,0.0,0.0,0.0,0.0,0.0,0.0,0.0,0.0,0.0,0.0,0.0,0.0,0.0,0.0,0.0,0.0,0.0,0.0,0.0,0.0,0.0,0.0,0.0,0.0,0.0,0.0,0.0,0.0,0.0,0.0,0.0,0.0,0.0,0.0,0.0,0.0,0.0,0.0,0.0,0.0,0.0,0.0,0.0,0.0,0.0,0.0,0.0,0.0,0.0,0.0,0.0,0.0,0.0,0.0,0.0,0.0,0.0,0.0,0.0,0.0,0.0,0.0,0.0,0.0,0.0,0.0,0.0,0.0,0.0,0.0,0.0,0.0,0.0,0.0,0.0,0.0,0.0,0.0,0.0,0.0,0.0,0.0,0.0,0.0,0.0,0.0,0.0,0.0,0.0,0.0,0.0,0.0,0.0,0.0,0.0,0.0,0.0,0.0,0.0,0.0,0.0,0.0,0.0,0.0,0.0,0.0,0.0,0.0,0.0,0.0,0.0,0.0,0.0,0.0,0.0,0.0,0.0,0.0,0.0,0.0,0.0,0.0,0.0,0.0,0.0,0.0,0.0,0.0,0.0,0.0,0.0,0.0,0.0,0.0,0.0,0.0,0.0,0.0,0.0,0.0,0.0,0.0,0.0,0.0,0.0,0.0,0.0,0.0,0.0,0.0,0.0,0.0,0.0,0.0,0.0,0.0,0.0,0.0,0.0,0.0,0.0,0.0,0.0,0.0,0.0,0.0,0.0,0.0,0.0,0.0,0.0,0.0,0.0,0.0,0.0,0.0,0.0,0.0,0.0,0.0,0.0,0.0,0.0,0.0,0.0,0.0,0.0,0.0,0.0,0.0,0.0,0.0,0.0,0.0,0.0,0.0,0.0,0.0,0.0,0.0,0.0,0.0,0.0,0.0,0.0,0.0,0.0,0.0,0.0,0.0,0.0,0.0,0.0,0.0,0.0,0.0,0.0,0.0,0.0,0.0,0.0,0.0,0.0,0.0,0.0,0.0,0.0,0.0,0.0,0.0,0.0,0.0,0.0,0.0,0.0,0.0,0.0,0.0,0.0,0.0,0.0,0.0,0.0,0.0,0.0,0.0,0.0,0.0,0.0,0.0,0.0,0.0,0.0,0.0,0.0,0.0,0.0,0.0,0.0,0.0,0.0,0.0,0.0,0.0,0.0,0.0,0.0,0.0,0.0,0.0,0.0,0.0,0.0,0.0,0.0,0.0,0.0,0.0,0.0,0.0,0.0,0.0,0.0,0.0,0.0,0.0,0.0,0.0,0.0,0.0,0.0,0.0,0.0,0.0,0.0,0.0,0.0,0.0,0.0,0.0,0.0,0.0,0.0,0.0,0.0,0.0,0.0,0.0,0.0,0.0,0.0,0.0,0.0,0.0,0.0,0.0,0.0,0.0,0.0,0.0,0.0,0.0,0.0,0.0,0.0,0.0,0.0,0.0,0.0,0.0,0.0,0.0,0.0,0.0,0.0,0.0,0.0,0.0,0.0,0.0,0.0,0.0,0.0,0.0,0.0,0.0,0.0,0.0,0.0,0.0,0.0,0.0,0.0,0.0,0.0,0.0,0.0,0.0,0.0,0.0,0.0,0.0,0.0,0.0,0.0,0.0,0.0,0.0,0.0,0.0,0.0,0.0,0.0,0.0,0.0,0.0,0.0,0.0,0.0,0.0,0.0,0.0,0.0,0.0,0.0,0.0,0.0,0.0,0.0,0.0,0.0,0.0,0.0,0.0,0.0,0.0,0.0,0.0,0.0,0.0,0.0,0.0,0.0,0.0,0.0,0.0,0.0,0.0,0.0,0.0,0.0,0.0,0.0,0.0,0.0,0.0,0.0,0.0,0.0,0.0,0.0,0.0,0.0,0.0,0.0,0.0,0.0,0.0,0.0,0.0,0.0,0.0,0.0,0.0,0.0,0.0,0.0,0.0,0.0,0.0,0.0,0.0,0.0,0.0,0.0,0.0,0.0,0.0,0.0,0.0,0.0,0.0,0.0,0.0,0.0,0.0,0.0,0.0,0.0,0.0,0.9339,0.0,0.0,0.0,0.0,0.0,0.0,0.0,0.0,0.0,0.0,0.0,0.0,0.0,0.0,0.0,0.0,0.0,0.0,0.0,0.0,0.0,0.0,0.0,0.0,0.0,0.0,0.0,0.0,0.0,0.0,0.0,0.0,0.0,0.0,0.0,0.0,0.0,0.0,0.0,0.0,0.0,0.0,0.0,0.0,0.0,0.0,0.0,0.0,0.0,0.0,0.0,0.0,0.0,0.0,0.0,0.0,0.0,0.0,0.0,0.0,0.0,0.0,0.0,0.0,0.0,0.0,0.0,0.0,0.0,0.0,0.0,0.0,0.0,0.0,0.0,0.0,0.0,0.0,0.0,0.0,0.0,0.0,0.0,0.0,0.0,0.0,0.0,0.0,0.0,0.0,0.0,0.0,0.0,0.0,0.0,0.0,0.0,0.0,0.0,0.0,0.0,0.0,0.0,0.0,0.0,0.0,0.0,0.0,0.0,0.0,1.1199,1.0793,1.0476,1.0176,0.9942,0.0,0.0,0.0,0.0,0.0,0.0,0.0,0.0,0.0,0.0,0.0,0.0,0.0,0.0,0.0,0.0,0.0,0.0,0.0,0.0,0.0,0.0,0.0,0.0,0.0,0.0,0.0,0.0,0.0,0.0,0.0,0.0,0.0,0.0,0.0,0.0,0.0,0.0,0.0,0.0,0.0,0.0,0.0,0.0,0.0,0.0,0.0,0.0,0.0,0.0,0.0,0.0,0.0,0.0,0.0,0.0,0.0,0.0,0.0,0.0,0.0,0.0,0.0,0.0,0.0,0.0,0.0,0.0,0.0,0.0,0.0,0.0,0.0,0.0,0.0,0.0,0.0,0.0,0.0,0.0,0.0,0.0,0.0,0.0,0.0,0.0,0.0,0.0,0.0,0.0,0.0,0.0,0.0,0.0,0.0,0.0,0.0,0.0,0.0,0.0,0.0,0.0,0.0,0.0,0.0,0.0,0.0,0.0,0.0,0.0,0.0,0.0,1.1019,1.0668,1.0332,0.0,0.0,0.0,0.0,0.0,0.0,0.0,0.0,0.0,0.0,0.0,0.0,0.0,0.0,0.0,0.0,0.0,0.0,0.0,0.0,0.0,0.0,0.0,0.0,0.0,0.0,0.0,0.0,0.0,0.0,0.0,0.0,0.0,0.0,0.0,0.0,0.0,0.0,0.0,0.0,0.0,0.0,0.0,0.0,0.0,0.0,0.0,0.0,0.0,0.0,0.0,0.0,0.0,0.0,0.0,0.0,0.0,0.0,0.0,0.0,0.0,0.0,0.0,0.0,0.0,0.0,0.0,0.0,0.0,0.0,0.0,0.0,0.0,0.0,0.0,0.0,0.0,0.0,0.0,0.0,0.0,0.0,0.0,0.0,0.0,0.0,0.0,0.0,0.0,0.0,0.0,0.0,0.0,0.0,0.0,0.0,0.0,0.0,0.0,0.0,0.0,0.0,0.0,0.0,0.0,0.0,0.0,0.0,0.0,0.0,1.2168,1.1756,1.1412,0.0,1.0438,0.0,0.0,0.0,0.0,0.0,0.0,0.0,0.0,0.0,0.0,0.0,0.0,0.0,0.0,0.0,0.0,0.0,0.0,0.0,0.0,0.0,0.0,0.0,0.0,0.0,0.0,0.0,0.0,0.0,0.0,0.0,0.0,0.0,0.0,0.0,0.0,0.0,0.0,0.0,0.0,0.0,0.0,0.0,0.0,0.0,0.0,0.0,0.0,0.0,0.0,0.0,0.0,0.0,0.0,0.0,0.0,0.0,0.0,0.0,0.0,0.0,0.0,0.0,0.0,0.0,0.0,0.0,0.0,0.0,0.0,0.0,0.0,0.0,0.0,0.0,0.0,0.0,0.0,0.0,0.0,0.0,0.0,0.0,0.0,0.0,0.0,0.0,0.0,0.0,0.0,0.0,0.0,0.0,0.0,0.0,0.0,0.0,0.0,0.0,0.0,0.0,0.0,0.0,0.0,0.0,0.0,0.0,0.0,0.0,0.0,1.2383,1.1975,1.146,1.0992,0.0,0.0,0.0,0.0,0.0,0.0,0.0,0.0,0.0,0.0,0.0,0.0,0.0,0.0,0.0,0.0,0.0,0.0,0.0,0.0,0.0,0.0,0.0,0.0,0.0,0.0,0.0,0.0,0.0,0.0,0.0,0.0,0.0,0.0,0.0,0.0,0.0,0.0,0.0,0.0,0.0,0.0,0.0,0.0,0.0,0.0,0.0,0.0,0.0,0.0,0.0,0.0,0.0,0.0,0.0,0.0,0.0,0.0,0.0,0.0,0.0,0.0,0.0,0.0,0.0,0.0,0.0,0.0,0.0,0.0,0.0,0.0,0.0,0.0,0.0,0.0,0.0,0.0,0.0,0.0,0.0,0.0,0.0,0.0,0.0,0.0,0.0,0.0,0.0,0.0,0.0,0.0,0.0,0.0,0.0,0.0,0.0,0.0,0.0,0.0,0.0,0.0,0.0,0.0,0.0,0.0,0.0,0.0,0.0,0.0,1.2885,1.2449,1.2016,1.1482,1.1059,1.0821,0.0,0.0,0.0,0.0,0.0,0.0,0.0,0.0,0.0,0.0,0.0,0.0,0.0,0.0,0.0,0.0,0.0,0.0,0.0,0.0,0.0,0.0,0.0,0.0,0.0,0.0,0.0,0.0,0.0,0.0,0.0,0.0,0.0,0.0,0.0,0.0,0.0,0.0,0.0,0.0,0.0,0.0,0.0,0.0,0.0,0.0,0.0,0.0,0.0,0.0,0.0,0.0,0.0,0.0,0.0,0.0,0.0,0.0,0.0,0.0,0.0,0.0,0.0,0.0,0.0,0.0,0.0,0.0,0.0,0.0,0.0,0.0,0.0,0.0,0.0,0.0,0.0,0.0,0.0,0.0,0.0,0.0,0.0,0.0,0.0,0.0,0.0,0.0,0.0,0.0,0.0,0.0,0.0,0.0,0.0,0.0,0.0,0.0,0.0,0.0,0.0,0.0,0.0,0.0,0.0,0.0,0.0,0.0,1.3124,1.2715,1.2287,1.1819,1.1533,1.1298,0.0,0.0,0.0,0.0,0.0,0.0,0.0,0.0,0.0,0.0,0.0,0.0,0.0,0.0,0.0,0.0,0.0,0.0,0.0,0.0,0.0,0.0,0.0,0.0,0.0,0.0,0.0,0.0,0.0,0.0,0.0,0.0,0.0,0.0,0.0,0.0,0.0,0.0,0.0,0.0,0.0,0.0,0.0,0.0,0.0,0.0,0.0,0.0,0.0,0.0,0.0,0.0,0.0,0.0,0.0,0.0,0.0,0.0,0.0,0.0,0.0,0.0,0.0,0.0,0.0,0.0,0.0,0.0,0.0,0.0,0.0,0.0,0.0,0.0,0.0,0.0,0.0,0.0,0.0,0.0,0.0,0.0,0.0,0.0,0.0,0.0,0.0,0.0,0.0,0.0,0.0,0.0,0.0,0.0,0.0,0.0,0.0,0.0,0.0,0.0,0.0,0.0,0.0,0.0,0.0,0.0,0.0,0.0,0.0,1.272,1.2294,1.1932,1.1738,1.1515,1.1327,0.0,0.0,0.0,0.0,0.0,0.0,0.0,0.0,0.0,0.0,0.0,0.0,0.0,0.0,0.0,0.0,0.0,0.0,0.0,0.0,0.0,0.0,0.0,0.0,0.0,0.0,0.0,0.0,0.0,0.0,0.0,0.0,0.0,0.0,0.0,0.0,0.0,0.0,0.0,0.0,0.0,0.0,0.0,0.0,0.0,0.0,0.0,0.0,0.0,0.0,0.0,0.0,0.0,0.0,0.0,0.0,0.0,0.0,0.0,0.0,0.0,0.0,0.0,0.0,0.0,0.0,0.0,0.0,0.0,0.0,0.0,0.0,0.0,0.0,0.0,0.0,0.0,0.0,0.0,0.0,0.0,0.0,0.0,0.0,0.0,0.0,0.0,0.0,0.0,0.0,0.0,0.0,0.0,0.0,0.0,0.0,0.0,0.0,0.0,0.0,0.0,0.0,0.0,0.0,0.0,0.0,0.0,0.0,0.0,1.2282,0.0,1.1752,1.1719,1.1589,1.1469,0.0,0.0,0.0,0.0,0.0,0.0,0.0,0.0,0.0,0.0,0.0,0.0,0.0,0.0,0.0,0.0,0.0,0.0,0.0,0.0,0.0,0.0,0.0,0.0,0.0,0.0,0.0,0.0,0.0,0.0,0.0,0.0,0.0,0.0,0.0,0.0,0.0,0.0,0.0,0.0,0.0,0.0,0.0,0.0,0.0,0.0,0.0,0.0,0.0,0.0,0.0,0.0,0.0,0.0,0.0,0.0,0.0,0.0,0.0,0.0,0.0,0.0,0.0,0.0,0.0,0.0,0.0,0.0,0.0,0.0,0.0,0.0,0.0,0.0,0.0,0.0,0.0,0.0,0.0,0.0,0.0,0.0,0.0,0.0,0.0,0.0,0.0,0.0,0.0,0.0,0.0,0.0,0.0,0.0,0.0,0.0,0.0,0.0,0.0,0.0,0.0,0.0,0.0,0.0,0.0,0.0,0.0,0.0,1.2186,1.1811,1.1734,1.1719,1.1812,1.173,1.1682,0.0,0.0,0.0,0.0,0.0,0.0,0.0,0.0,0.0,0.0,0.0,0.0,0.0,0.0,0.0,0.0,0.0,0.0,0.0,0.0,0.0,0.0,0.0,0.0,0.0,0.0,0.0,0.0,0.0,0.0,0.0,0.0,0.0,0.0,0.0,0.0,0.0,0.0,0.0,0.0,0.0,0.0,0.0,0.0,0.0,0.0,0.0,0.0,0.0,0.0,0.0,0.0,0.0,0.0,0.0,0.0,0.0,0.0,0.0,0.0,0.0,0.0,0.0,0.0,0.0,0.0,0.0,0.0,0.0,0.0,0.0,0.0,0.0,0.0,0.0,0.0,0.0,0.0,0.0,0.0,0.0,0.0,0.0,0.0,0.0,0.0,0.0,0.0,0.0,0.0,0.0,0.0,0.0,0.0,0.0,0.0,0.0,0.0,0.0,0.0,0.0,0.0,0.0,0.0,0.0,0.0,0.0,0.0,0.0,1.1522,1.1515,1.1544,1.1578,1.1664,1.1745,0.0,0.0,0.0,0.0,0.0,0.0,0.0,0.0,0.0,0.0,0.0,0.0,0.0,0.0,0.0,0.0,0.0,0.0,0.0,0.0,0.0,0.0,0.0,0.0,0.0,0.0,0.0,0.0,0.0,0.0,0.0,0.0,0.0,0.0,0.0,0.0,0.0,0.0,0.0,0.0,0.0,0.0,0.0,0.0,0.0,0.0,0.0,0.0,0.0,0.0,0.0,0.0,0.0,0.0,0.0,0.0,0.0,0.0,0.0,0.0,0.0,0.0,0.0,0.0,0.0,0.0,0.0,0.0,0.0,0.0,0.0,0.0,0.0,0.0,0.0,0.0,0.0,0.0,0.0,0.0,0.0,0.0,0.0,0.0,0.0,0.0,0.0,0.0,0.0,0.0,0.0,0.0,0.0,0.0,0.0,0.0,0.0,0.0,0.0,0.0,0.0,0.0,0.0,0.0,0.0,0.0,0.0,0.0,0.0,1.1185,1.1309,1.1459,1.156,1.1708,1.1851,1.2011,0.0,0.0,0.0,0.0,0.0,0.0,0.0,0.0,0.0,0.0,0.0,0.0,0.0,0.0,0.0,0.0,0.0,0.0,0.0,0.0,0.0,0.0,0.0,0.0,0.0,0.0,0.0,0.0,0.0,0.0,0.0,0.0,0.0,0.0,0.0,0.0,0.0,0.0,0.0,0.0,0.0,0.0,0.0,0.0,0.0,0.0,0.0,0.0,0.0,0.0,0.0,0.0,0.0,0.0,0.0,0.0,0.0,0.0,0.0,0.0,0.0,0.0,0.0,0.0,0.0,0.0,0.0,0.0,0.0,0.0,0.0,0.0,0.0,0.0,0.0,0.0,0.0,0.0,0.0,0.0,0.0,0.0,0.0,0.0,0.0,0.0,0.0,0.0,0.0,0.0,0.0,0.0,0.0,0.0,0.0,0.0,0.0,0.0,0.0,0.0,0.0,0.0,0.0,0.0,0.0,0.0,0.0,0.0,1.0793,1.1185,1.1496,1.1682,1.1822,1.2,0.0,0.0,0.0,0.0,0.0,0.0,0.0,0.0,0.0,0.0,0.0,0.0,0.0,0.0,0.0,0.0,0.0,0.0,0.0,0.0,0.0,0.0,0.0,0.0,0.0,0.0,0.0,0.0,0.0,0.0,0.0,0.0,0.0,0.0,0.0,0.0,0.0,0.0,0.0,0.0,0.0,0.0,0.0,0.0,0.0,0.0,0.0,0.0,0.0,0.0,0.0,0.0,0.0,0.0,0.0,0.0,0.0,0.0,0.0,0.0,0.0,0.0,0.0,0.0,0.0,0.0,0.0,0.0,0.0,0.0,0.0,0.0,0.0,0.0,0.0,0.0,0.0,0.0,0.0,0.0,0.0,0.0,0.0,0.0,0.0,0.0,0.0,0.0,0.0,0.0,0.0,0.0,0.0,0.0,0.0,0.0,0.0,0.0,0.0,0.0,0.0,0.0,0.0,0.0,0.0,0.0,0.0,0.0,0.0,1.0745,1.1174,1.1448,1.1545,1.1792,1.2036,0.0,0.0,0.0,0.0,0.0,0.0,0.0,0.0,0.0,0.0,0.0,0.0,0.0,0.0,0.0,0.0,0.0,0.0,0.0,0.0,0.0,0.0,0.0,0.0,0.0,0.0,0.0,0.0,0.0,0.0,0.0,0.0,0.0,0.0,0.0,0.0,0.0,0.0,0.0,0.0,0.0,0.0,0.0,0.0,0.0,0.0,0.0,0.0,0.0,0.0,0.0,0.0,0.0,0.0,0.0,0.0,0.0,0.0,0.0,0.0,0.0,0.0,0.0,0.0,0.0,0.0,0.0,0.0,0.0,0.0,0.0,0.0,0.0,0.0,0.0,0.0,0.0,0.0,0.0,0.0,0.0,0.0,0.0,0.0,0.0,0.0,0.0,0.0,0.0,0.0,0.0,0.0,0.0,0.0,0.0,0.0,0.0,0.0,0.0,0.0,0.0,0.0,0.0,0.0,0.0,0.0,0.0,0.0,1.0649,1.0772,1.1185,1.1466,1.1627,1.1872,1.218,0.0,0.0,0.0,0.0,0.0,0.0,0.0,0.0,0.0,0.0,0.0,0.0,0.0,0.0,0.0,0.0,0.0,0.0,0.0,0.0,0.0,0.0,0.0,0.0,0.0,0.0,0.0,0.0,0.0,0.0,0.0,0.0,0.0,0.0,0.0,0.0,0.0,0.0,0.0,0.0,0.0,0.0,0.0,0.0,0.0,0.0,0.0,0.0,0.0,0.0,0.0,0.0,0.0,0.0,0.0,0.0,0.0,0.0,0.0,0.0,0.0,0.0,0.0,0.0,0.0,0.0,0.0,0.0,0.0,0.0,0.0,0.0,0.0,0.0,0.0,0.0,0.0,0.0,0.0,0.0,0.0,0.0,0.0,0.0,0.0,0.0,0.0,0.0,0.0,0.0,0.0,0.0,0.0,0.0,0.0,0.0,0.0,0.0,0.0,0.0,0.0,0.0,0.0,0.0,0.0,0.0,0.0,0.0,1.0756,1.1018,1.129,1.1619,1.1908,1.2107,1.2365,0.0,0.0,0.0,0.0,0.0,0.0,0.0,0.0,0.0,0.0,0.0,0.0,0.0,0.0,0.0,0.0,0.0,0.0,0.0,0.0,0.0,0.0,0.0,0.0,0.0,0.0,0.0,0.0,0.0,0.0,0.0,0.0,0.0,0.0,0.0,0.0,0.0,0.0,0.0,0.0,0.0,0.0,0.0,0.0,0.0,0.0,0.0,0.0,0.0,0.0,0.0,0.0,0.0,0.0,0.0,0.0,0.0,0.0,0.0,0.0,0.0,0.0,0.0,0.0,0.0,0.0,0.0,0.0,0.0,0.0,0.0,0.0,0.0,0.0,0.0,0.0,0.0,0.0,0.0,0.0,0.0,0.0,0.0,0.0,0.0,0.0,0.0,0.0,0.0,0.0,0.0,0.0,0.0,0.0,0.0,0.0,0.0,0.0,0.0,0.0,0.0,0.0,0.0,0.0,0.0,0.0,0.0,0.0,1.1141,1.1744,1.1735,1.2032,1.2724,1.2383,1.2347,0.0,0.0,0.0,0.0,0.0,0.0,0.0,0.0,0.0,0.0,0.0,0.0,0.0,0.0,0.0,0.0,0.0,0.0,0.0,0.0,0.0,0.0,0.0,0.0,0.0,0.0,0.0,0.0,0.0,0.0,0.0,0.0,0.0,0.0,0.0,0.0,0.0,0.0,0.0,0.0,0.0,0.0,0.0,0.0,0.0,0.0,0.0,0.0,0.4816,0.0,0.0,0.0,0.0,0.0,0.0,0.0,0.0,0.0,0.0,0.0,0.0,0.0,0.0,0.0,0.0,0.0,0.0,0.0,0.0,0.0,0.0,0.0,0.0,0.0,0.0,0.0,0.0,0.0,0.0,0.0,0.0,0.0,0.0,0.0,0.0,0.0,0.0,0.0,0.0,0.0,0.0,0.0,0.0,0.0,0.0,0.0,0.0,0.0,0.0,0.0,0.0,0.0,0.0,0.0,0.0,0.0,0.0,0.0,1.1533,1.1759,1.206,1.2392,1.2684,1.2525,1.2544,0.0,0.0,0.0,0.0,0.0,0.0,0.0,0.0,0.0,0.0,0.0,0.0,0.0,0.0,0.0,0.0,0.0,0.0,0.0,0.0,0.0,0.0,0.0,0.0,0.0,0.0,0.0,0.0,0.0,0.0,0.0,0.0,0.0,0.0,0.0,0.0,0.0,0.0,0.0,0.0,0.0,0.0,0.0,0.0,0.0,0.0,0.0,0.0,0.0,0.0,0.0,0.0,0.0,0.0,0.0,0.0,0.0,0.0,0.0,0.0,0.0,0.0,0.0,0.0,0.0,0.0,0.0,0.0,0.0,0.0,0.0,0.0,0.0,0.0,0.0,0.0,0.0,0.0,0.0,0.0,0.0,0.0,0.0,0.0,0.0,0.0,0.0,0.0,0.0,0.0,0.0,0.0,0.0,0.0,0.0,0.0,0.0,0.0,0.0,0.0,0.0,0.0,0.0,0.0,0.0,0.0,0.0,1.1957,1.2066,1.185,1.2433,1.2715,1.2561,1.2674,1.2803,1.2925,0.0,0.0,0.0,0.0,0.0,0.0,0.0,0.0,0.0,0.0,0.0,0.0,0.0,0.0,0.0,0.0,0.0,0.0,0.0,0.0,0.0,0.0,0.0,0.0,0.0,0.0,0.0,0.0,0.0,0.0,0.0,0.0,0.0,0.0,0.0,0.0,0.0,0.0,0.7929,0.7384,0.0,0.0,0.0,0.0,0.0,0.0,0.0,0.0,0.5703,0.0,0.0,0.0,0.0,0.0,0.0,0.0,0.0,0.0,0.0,0.0,0.0,0.0,0.0,0.0,0.0,0.0,0.0,0.0,0.0,0.0,0.0,0.0,0.0,0.0,0.0,0.0,0.0,0.0,0.0,0.0,0.0,0.0,0.0,0.0,0.0,0.0,0.0,0.0,0.0,0.0,0.0,0.0,0.0,0.0,0.0,0.0,0.0,0.0,0.0,0.0,0.0,0.0,0.0,0.0,0.0,1.2712,1.2953,1.3116,1.317,1.3182,1.3219,1.3223,1.3112,1.3042,1.3084,0.0,0.0,0.0,0.0,0.0,0.0,0.0,0.0,0.0,0.0,0.0,0.0,0.0,0.0,0.0,0.0,0.0,0.0,0.0,0.0,0.0,0.0,0.0,0.0,0.0,0.0,0.0,0.0,0.0,0.0,0.0,0.0,0.0,0.0,0.0,0.0,0.0,0.0,0.0,0.7648,0.7253,0.0,0.0,0.0,0.0,0.0,0.0,0.0,0.0,0.6383,0.0,0.0,0.0,0.0,0.0,0.0,0.0,0.0,0.0,0.0,0.0,0.0,0.0,0.0,0.0,0.0,0.0,0.0,0.0,0.0,0.0,0.0,0.0,0.0,0.0,0.0,0.0,0.0,0.0,0.0,0.0,0.0,0.0,0.0,0.0,0.0,0.0,0.0,0.0,0.0,0.0,0.0,0.0,0.0,0.0,0.0,0.0,0.0,0.0,0.0,0.0,0.0,0.0,0.0,0.0,1.338,1.3773,1.3783,1.3364,1.3619,1.36,1.3265,1.3178,1.321,0.0,0.0,0.0,0.0,0.0,0.0,0.0,0.0,0.0,0.0,0.0,0.0,0.0,0.0,0.0,0.0,0.0,0.0,0.0,0.0,0.0,0.0,0.0,0.0,0.0,0.0,0.0,0.0,0.0,0.0,0.0,0.0,0.0,0.0,0.0,0.0,0.0,0.0,0.0,0.0,0.8158,0.7908,0.7563,0.0,0.0,0.0,0.0,0.0,0.0,0.696,0.705,0.0,0.0,0.0,0.0,0.0,0.0,0.0,0.0,0.0,0.0,0.0,0.0,0.0,0.0,0.0,0.0,0.0,0.0,0.0,0.0,0.0,0.0,0.0,0.0,0.0,0.0,0.0,0.0,0.0,0.0,0.0,0.0,0.0,0.0,0.0,0.0,0.0,0.0,0.0,0.0,0.0,0.0,0.0,0.0,0.0,0.0,0.0,0.0,0.0,0.0,0.0,0.0,0.0,0.0,0.0,1.4169,1.4615,1.4435,1.3519,1.4013,1.3935,1.3196,1.325,1.3369,0.0,0.0,0.0,0.0,0.0,0.0,0.0,0.0,0.0,0.0,0.0,0.0,0.0,0.0,0.0,0.0,0.0,0.0,0.0,0.0,0.0,0.0,0.0,0.0,0.0,0.0,0.0,0.0,0.0,0.0,0.0,0.0,0.0,0.0,0.0,0.0,0.0,0.0,0.0,0.0,0.0,0.8501,0.8007,0.7932,0.0,0.0,0.0,0.0,0.7427,0.7559,0.0,0.0,0.0,0.0,0.0,0.0,0.0,0.0,0.0,0.0,0.0,0.0,0.0,0.0,0.0,0.0,0.0,0.0,0.0,0.0,0.0,0.0,0.0,0.0,0.0,0.0,0.0,0.0,0.0,0.0,0.0,0.0,0.0,0.0,0.0,0.0,0.0,0.0,0.0,0.0,0.0,0.0,0.0,0.0,0.0,0.0,0.0,0.0,0.0,0.0,0.0,0.0,0.0,0.0,0.0,0.0,1.558,1.5748,1.5347,1.4411,1.4607,1.4294,1.3395,1.348,1.3564,0.0,0.0,0.0,0.0,0.0,0.0,0.0,0.0,0.0,0.0,0.0,0.0,0.0,0.0,0.0,0.0,0.0,0.0,0.0,0.0,0.0,0.0,0.0,0.0,0.0,0.0,0.0,0.0,0.0,0.0,0.0,0.0,0.0,0.0,0.0,0.0,0.0,0.0,0.0,0.0,0.0,0.8815,0.8478,0.8375,0.8294,0.0,0.0,0.8191,0.8101,0.8219,0.0,0.0,0.0,0.0,0.0,0.0,0.0,0.0,0.0,0.0,0.0,0.0,0.0,0.0,0.0,0.0,0.0,0.0,0.0,0.0,0.0,0.0,0.0,0.0,0.0,0.0,0.0,0.0,0.0,0.0,0.0,0.0,0.0,0.0,0.0,0.0,0.0,0.0,0.0,0.0,0.0,0.0,0.0,0.0,0.0,0.0,0.0,0.0,0.0,0.0,0.0,0.0,0.0,0.0,0.0,1.6197,1.6197,1.6262,1.5803,1.4824,1.4903,1.4535,1.3663,1.3765,1.3865,0.0,0.0,0.0,0.0,0.0,0.0,0.0,0.0,0.0,0.0,0.0,0.0,0.0,0.0,0.0,0.0,0.0,0.0,0.0,0.0,0.0,0.0,0.0,0.0,0.0,0.0,0.0,0.0,0.0,0.0,0.0,0.0,0.0,0.0,0.0,0.0,0.0,0.0,0.0,0.0,0.0,0.0,0.9343,0.9043,0.0,0.0,0.0,0.8792,0.8673,0.0,0.0,0.0,0.0,0.0,0.0,0.0,0.0,0.0,0.0,0.0,0.0,0.0,0.0,0.0,0.0,0.0,0.0,0.0,0.0,0.0,0.0,0.0,0.0,0.0,0.0,0.0,0.0,0.0,0.0,0.0,0.0,0.0,0.0,0.0,0.0,0.0,0.0,0.0,0.0,0.0,0.0,0.0,0.0,0.0,0.0,0.0,0.0,0.0,0.0,0.0,0.0,0.0,0.0,0.0,0.0,0.0,1.6671,1.6693,1.6168,1.5191,1.5216,1.4803,1.3944,1.4032,0.0,0.0,0.0,0.0,0.0,0.0,0.0,0.0,0.0,0.0,0.0,0.0,0.0,0.0,0.0,0.0,0.0,0.0,0.0,0.0,0.0,0.0,0.0,0.0,0.0,0.0,0.0,1.2385,0.0,0.0,0.0,0.0,0.0,0.0,0.0,0.0,0.0,0.0,0.0,0.0,0.0,0.0,1.0401,1.0085,0.9627,0.9284,0.0,0.0,0.9286,0.918,0.9407,0.9775,0.0,0.0,0.0,0.0,0.0,0.0,0.0,0.0,0.0,0.0,0.0,0.0,0.0,0.0,0.0,0.0,0.0,0.0,0.0,0.0,0.0,0.0,0.0,0.0,0.0,0.0,0.0,0.0,0.0,0.0,0.0,0.0,0.0,0.0,0.0,0.0,0.0,0.0,0.0,0.0,0.0,0.0,0.0,0.0,0.0,0.0,0.0,0.0,0.0,0.0,0.0,0.0,0.0,0.0,0.0,1.7136,1.7157,1.665,1.5614,1.5615,1.5185,1.4211,1.4369,1.4483,0.0,0.0,0.0,0.0,0.0,0.0,0.0,0.0,0.0,0.0,0.0,0.0,0.0,0.0,0.0,0.0,0.0,0.0,0.0,0.0,0.0,0.0,0.0,0.0,0.0,0.0,0.0,0.0,0.0,0.0,0.0,0.0,0.0,0.0,0.0,0.0,0.0,0.0,0.0,0.0,0.0,1.0745,1.0409,0.9917,0.9579,0.0,0.0,0.9671,0.9658,1.0238,1.0863,1.1414,0.0,0.0,0.0,0.0,0.0,0.0,0.0,0.0,0.0,0.0,0.0,0.0,0.0,0.0,0.0,0.0,0.0,0.0,0.0,0.0,0.0,0.0,0.0,0.0,0.0,0.0,0.0,0.0,0.0,0.0,0.0,0.0,0.0,0.0,0.0,0.0,0.0,0.0,0.0,0.0,0.0,0.0,0.0,0.0,0.0,0.0,0.0,0.0,0.0,0.0,0.0,0.0,0.0,1.7625,1.7638,1.7625,1.7082,1.5967,1.6014,1.5519,1.4413,1.4624,1.4751,0.0,0.0,0.0,0.0,0.0,0.0,0.0,0.0,0.0,0.0,0.0,0.0,0.0,0.0,0.0,0.0,0.0,0.0,0.0,0.0,0.0,0.0,0.0,0.0,0.0,0.0,0.0,0.0,1.2452,1.2338,1.2716,0.0,0.0,0.0,0.0,0.0,0.0,0.0,0.0,0.0,0.0,1.1397,1.1286,1.0524,0.0,0.0,1.0046,1.0212,1.0637,1.091,1.1446,1.2419,1.2821,0.0,0.0,0.0,0.0,0.0,0.0,0.0,0.0,0.0,0.0,0.0,0.0,0.0,0.0,0.0,0.0,0.0,0.0,0.0,0.0,0.0,0.0,0.0,0.0,0.0,0.0,0.0,0.0,0.0,0.0,0.0,0.0,0.0,0.0,0.0,0.0,0.0,0.0,0.0,0.0,0.0,0.0,0.0,0.0,0.0,0.0,0.0,0.0,0.0,0.0,0.0,0.0,1.8083,1.8083,1.8083,1.7479,1.6272,1.6387,1.5861,1.4728,1.4903,1.5057,0.0,0.0,0.0,0.0,0.0,0.0,0.0,0.0,0.0,0.0,0.0,0.0,0.0,0.0,0.0,0.0,0.0,0.0,0.0,0.0,0.0,0.0,0.0,0.0,0.0,0.0,0.0,0.0,1.3457,1.3615,1.4211,0.0,0.0,0.0,0.0,0.0,0.0,0.0,0.0,0.0,0.0,1.2223,1.2238,1.1462,1.0899,1.0913,1.0965,1.115,1.1629,1.1898,1.2329,1.3227,0.0,0.0,0.0,0.0,0.0,0.0,0.0,0.0,0.0,0.0,0.0,0.0,0.0,0.0,0.0,0.0,0.0,0.0,0.0,0.0,0.0,0.0,0.0,0.0,0.0,0.0,0.0,0.0,0.0,0.0,2.4176,0.0,0.0,0.0,0.0,0.0,0.0,0.0,0.0,0.0,0.0,0.0,0.0,0.0,0.0,0.0,0.0,0.0,0.0,0.0,0.0,0.0,0.0,1.8498,1.8498,1.8484,1.7875,1.667,1.6736,1.6213,1.5069,1.5193,1.5328,1.5404,0.0,0.0,0.0,0.0,0.0,0.0,0.0,0.0,0.0,0.0,0.0,0.0,0.0,0.0,0.0,0.0,0.0,0.0,0.0,0.0,0.0,0.0,0.0,0.0,0.0,0.0,1.4575,1.4092,1.4055,0.0,0.0,0.0,0.0,0.0,0.0,0.0,0.0,0.0,0.0,1.3512,1.3184,1.3243,1.2789,1.2427,1.2497,1.2525,1.2566,1.265,1.3217,1.3677,0.0,0.0,0.0,0.0,0.0,0.0,0.0,0.0,0.0,0.0,0.0,0.0,0.0,0.0,0.0,0.0,0.0,0.0,0.0,0.0,0.0,0.0,0.0,0.0,0.0,0.0,0.0,2.5597,2.5547,0.0,0.0,0.0,0.0,0.0,0.0,0.0,0.0,0.0,0.0,0.0,2.3057,2.2763,0.0,0.0,0.0,0.0,0.0,0.0,0.0,0.0,0.0,0.0,0.0,0.0,1.8908,1.8908,1.8908,1.851,1.768,1.7317,1.6746,1.5937,1.5622,1.5507,1.5668,0.0,0.0,0.0,0.0,0.0,0.0,0.0,0.0,0.0,0.0,0.0,0.0,0.0,0.0,0.0,0.0,0.0,0.0,0.0,0.0,0.0,0.0,0.0,0.0,0.0,1.5692,0.0,0.0,0.0,0.0,0.0,0.0,0.0,0.0,0.0,0.0,0.0,1.4667,1.4545,1.4035,1.3675,1.3689,1.3206,1.2858,0.0,0.0,0.0,0.0,0.0,0.0,0.0,0.0,0.0,0.0,0.0,0.0,0.0,0.0,1.3457,1.3341,1.3327,1.3311,1.3282,0.0,0.0,0.0,0.0,0.0,0.0,0.0,0.0,0.0,0.0,0.0,0.0,0.0,0.0,2.6492,0.0,2.5707,0.0,0.0,0.0,0.0,0.0,0.0,0.0,0.0,2.4312,2.4112,2.4061,2.3765,2.3515,0.0,2.2826,2.2206,0.0,0.0,0.0,0.0,0.0,0.0,0.0,0.0,1.9232,1.9209,1.9209,1.8907,1.8314,1.769,1.7078,1.6493,1.5891,1.5668,1.5842,1.5899,1.6224,0.0,0.0,0.0,0.0,0.0,0.0,0.0,0.0,0.0,0.0,0.0,0.0,0.0,0.0,0.0,0.0,0.0,0.0,0.0,0.0,0.0,0.0,0.0,1.6262,0.0,0.0,0.0,0.0,0.0,0.0,0.0,0.0,0.0,1.5267,1.5103,1.5041,1.4948,1.4608,1.4338,1.4294,0.0,0.0,0.0,0.0,0.0,0.0,0.0,1.4674,1.5226,1.5313,1.5256,1.5052,1.4659,1.4091,1.3207,0.0,0.0,1.3006,1.2981,1.2954,1.2885,1.2677,1.2388,1.1953,1.1495,1.1029,0.0,0.0,0.0,0.0,0.0,0.0,0.0,0.0,2.7443,2.6967,0.0,2.6303,0.0,0.0,0.0,0.0,0.0,2.6552,0.0,0.0,2.5611,2.5176,2.5106,2.4345,2.3882,2.3731,2.3699,2.3531,2.3243,2.1487,0.0,0.0,0.0,0.0,0.0,0.0,1.9553,1.9413,1.9428,1.9136,1.8566,1.7882,1.7251,1.6634,1.6084,1.5827,1.5914,1.5969,1.6094,1.6316,1.7206,0.0,0.0,0.0,0.0,0.0,0.0,0.0,0.0,0.0,0.0,0.0,0.0,0.0,0.0,0.0,0.0,0.0,0.0,0.0,0.0,1.6477,0.0,0.0,0.0,0.0,0.0,0.0,0.0,0.0,0.0,0.0,1.5668,1.5433,1.5344,1.5223,0.0,0.0,0.0,0.0,1.4984,1.4999,1.5118,1.5208,1.5283,1.5344,1.5418,1.5507,0.0,0.0,1.4639,1.4493,1.4052,1.2844,1.2594,1.2682,1.3061,1.3013,1.2974,1.2907,1.2389,1.1948,1.1738,1.1152,1.0599,3.0939,0.0,0.0,0.0,0.0,2.8829,2.8636,2.8379,2.8213,2.8018,2.776,2.7779,0.0,0.0,0.0,0.0,0.0,0.0,2.8042,2.8007,2.7788,2.7651,2.7598,2.6864,2.6426,2.6303,2.5207,2.4576,2.432,2.3199,2.2233,2.1432,0.0,0.0,0.0,0.0,1.9723,1.9687,1.9636,1.9528,1.9352,1.8708,1.7829,1.6711,1.6099,1.5841,1.5955,1.5982,1.6108,1.6371,1.7233,0.0,0.0,0.0,0.0,0.0,0.0,0.0,0.0,0.0,0.0,0.0,0.0,0.0,0.0,0.0,0.0,0.0,0.0,0.0,1.6772,1.6625,1.6732,0.0,0.0,0.0,0.0,0.0,0.0,0.0,0.0,0.0,1.7142,1.6158,1.5522,0.0,0.0,1.5403,1.5359,1.5359,1.5344,1.5359,1.5403,0.0,0.0,1.5463,1.5492,1.5551,1.5639,1.5488,1.482,1.4314,1.3734,1.2883,1.2323,1.1966,1.2036,1.2051,1.1997,1.1811,1.1585,1.1364,1.1121,1.0813,1.0559,3.2611,3.0753,3.0753,3.0753,3.0734,3.0617,3.0202,2.9609,2.9493,2.9098,2.8508,2.8508,2.8546,2.8584,2.8605,0.0,0.0,0.0,2.8809,2.8809,2.8772,2.8734,2.872,2.8263,2.7973,2.785,2.6963,2.6273,2.5797,2.5209,2.4244,2.2941,0.0,0.0,2.1073,2.0632,2.0331,2.0237,1.9897,1.9726,1.9708,1.9046,1.8057,1.6756,1.6353,1.6112,1.5997,1.5982,1.6122,1.6398,1.695,1.785,0.0,0.0,0.0,0.0,0.0,0.0,0.0,0.0,0.0,0.0,0.0,2.2293,0.0,0.0,0.0,0.0,1.8003,1.6927,1.6746,1.6891,0.0,0.0,0.0,0.0,0.0,0.0,0.0,1.9521,1.9174,1.8753,1.823,1.7174,1.6307,1.598,1.5699,1.5536,1.5507,0.0,1.5507,1.5507,1.5507,1.5522,1.5551,1.558,1.5639,1.5668,1.5755,1.5545,1.4916,1.4438,1.3974,1.3331,1.2844,1.2505,1.2408,1.217,1.1785,1.1362,1.1201,1.1062,1.0813,1.0681,1.0547,3.437,3.3761,3.3761,3.3605,3.3402,3.3351,3.2483,3.1204,3.112,3.0288,2.8982,2.8965,2.8915,2.8883,2.8975,0.0,2.9179,2.9162,2.9196,2.9162,2.9068,2.8979,2.8979,2.8871,2.8816,2.88,2.8749,2.8254,2.7435,2.7222,2.6309,2.4695,2.3654,2.2891,2.2331,2.1689,2.1219,2.0892,2.0222,1.9822,1.9708,1.9031,1.8102,1.6905,1.6756,1.6488,1.6104,1.6026,1.6122,1.6384,1.6577,1.7454,1.9072,0.0,0.0,0.0,0.0,0.0,0.0,0.0,0.0,0.0,0.0,0.0,0.0,0.0,0.0,0.0,1.7998,0.0,1.6797,1.7312,0.0,0.0,0.0,1.9465,1.9461,1.9951,2.0235,2.0098,0.0,0.0,1.8946,1.8273,1.7516,1.6857,1.6144,1.5669,1.561,1.5581,1.5507,1.5536,1.5595,1.5624,1.5639,1.5697,1.5784,1.5799,1.5814,1.5574,1.5035,1.4782,1.4528,1.3989,1.3842,1.3714,1.3614,1.2993,1.2301,1.1464,1.1162,1.1003,1.0741,1.062,1.0511,3.7009,3.6823,3.684,3.5504,3.3402,3.3381,3.3136,3.2749,3.2744,3.2165,3.1227,3.1227,3.0949,3.0454,3.0588,3.0647,3.0685,3.0685,3.0702,3.0666,3.0647,3.0627,3.0594,3.0051,2.9762,2.9711,2.9097,2.8651,2.8354,2.8075,2.7344,2.6205,2.5709,2.4525,2.2658,2.2139,2.1591,2.097,2.0636,2.0232,1.9708,1.9031,1.8536,1.8222,1.7234,1.6728,1.6742,1.6271,1.6122,1.6414,1.7076,1.7978,1.9153,1.9947,0.0,0.0,0.0,0.0,0.0,0.0,0.0,0.0,0.0,2.2279,2.2152,0.0,2.0607,0.0,1.9031,1.8262,1.8188,1.8261,0.0,0.0,1.9134,1.9454,1.9894,2.0022,2.0025,1.9887,1.9715,1.9572,1.9504,1.8899,1.8401,1.819,1.7173,1.6427,1.6412,1.601,1.5726,1.5741,1.5756,1.5755,1.5755,1.5799,1.5814,1.5814,1.5814,1.5739,1.5574,1.514,1.4751,1.4556,1.4139,1.3791,1.3659,1.3366,1.288,1.2055,1.1402,1.0899,1.0656,1.0498,1.0337,3.821,3.7898,3.7898,3.6924,3.5385,3.5047,3.4518,3.3845,3.3845,3.338,3.2627,3.261,3.2416,3.207,3.2131,3.2171,3.2171,3.2188,3.2002,3.1701,3.1701,3.1512,3.1173,3.0768,3.0598,3.0565,3.0044,2.9578,2.918,2.884,2.8197,2.7254,2.6579,2.5532,2.4116,2.3181,2.2466,2.1872,2.1102,2.0528,2.0139,1.9513,1.9001,1.8702,1.7983,1.7554,1.744,1.7091,1.7027,1.7332,1.7847,1.8601,1.9565,2.0232,2.099,0.0,0.0,0.0,0.0,0.0,0.0,0.0,0.0,0.0,0.0,0.0,2.092,2.0316,1.9329,1.8649,1.8484,1.8672,1.8918,1.9206,1.9431,1.9684,2.0,1.9973,1.9884,1.9797,1.9762,1.9744,1.9693,1.9393,1.9136,1.9154,1.8252,1.7473,1.7205,1.6862,1.6548,1.6263,1.6204,1.6099,1.5858,1.5814,1.5814,1.5814,1.5814,1.5814,1.5799,1.5499,1.523,1.5201,1.489,1.4569,1.4445,1.4045,1.355,1.2992,1.2206,1.1406,1.0704,1.0437,1.0262,3.8768,3.8193,3.8176,3.8125,3.799,3.733,3.6203,3.4793,3.4793,3.432,3.3541,3.344,3.3389,3.3389,3.3389,3.3389,3.3389,3.3389,3.3051,3.2462,3.2446,3.2107,3.1478,3.1478,3.1427,3.1326,3.119,3.0717,2.9914,2.9582,2.8936,2.7985,2.6956,2.6229,2.5723,2.4409,2.3446,2.296,2.1553,2.0812,2.0688,2.0142,1.9513,1.8867,1.8747,1.8532,1.8153,1.8031,1.816,1.8484,1.8713,1.9225,2.0056,2.0468,2.1017,0.0,2.1897,0.0,0.0,0.0,0.0,0.0,0.0,0.0,0.0,2.1736,2.1263,2.019,1.9386,1.878,1.85,1.8973,1.9244,1.9155,1.9639,1.9955,1.997,1.9866,1.978,1.978,1.9744,1.9723,1.9708,1.9723,1.9708,1.9633,1.9166,1.8597,1.8087,1.7788,1.7384,1.689,1.6816,1.6652,1.6114,1.5949,1.5919,1.5858,1.5814,1.5814,1.5814,1.5799,1.5799,1.5769,1.5623,1.5521,1.5522,1.4834,1.4256,1.3869,1.3134,1.2183,1.1015,1.0545,1.0327,3.9808,3.9673,3.969,3.9334,3.8768,3.8633,3.7743,3.6372,3.6372,3.5571,3.4269,3.366,3.3389,3.3389,3.3389,3.3389,3.3389,3.3389,3.3322,3.3186,3.3186,3.3119,3.3,3.2963,3.2662,3.2104,3.1952,3.1418,3.0533,3.0186,2.9473,2.8495,2.7987,2.7007,2.5627,0.0,0.0,0.0,2.1959,2.1246,2.0718,2.0587,2.0198,1.9528,1.8986,0.0,1.879,1.8289,1.816,1.85,1.9139,0.0,0.0,0.0,0.0,0.0,0.0,0.0,0.0,0.0,0.0,0.0,2.1769,2.1754,2.1781,2.1433,2.1087,2.0686,2.0249,1.9969,1.9902,1.9871,1.9791,1.9685,1.9773,1.9812,1.9762,1.9744,1.9726,1.9741,1.9726,1.9723,1.9723,1.9723,1.9723,1.9708,1.9603,1.945,1.9333,1.8386,1.7697,1.7518,1.7488,1.7249,1.6637,1.6532,1.6368,1.5979,1.5814,1.5829,1.5844,1.5844,1.5814,1.5799,1.5682,1.558,1.5492,1.5212,1.4729,1.4052,1.3549,1.282,1.1522,1.103,1.0714,4.0113,0.0,4.0113,3.9893,0.0,3.9554,3.8928,3.7862,3.7499,3.6711,3.5594,3.4827,3.4467,3.4484,3.4484,3.4467,3.4506,3.4484,3.4303,3.3947,3.3947,3.3761,3.3389,3.3389,3.3182,3.2748,3.2273,3.1738,3.112,3.0417,2.9751,2.902,2.8348,2.7487,2.6445,2.5489,2.439,2.3152,2.2523,2.2044,2.168,2.1032,2.0543,2.0183,0.0,0.0,0.0,0.0,0.0,0.0,0.0,0.0,0.0,0.0,0.0,2.1541,2.157,2.1661,2.1781,2.1706,2.163,2.1601,2.1465,2.1388,2.1449,2.1151,2.086,2.0628,2.0409,2.0235,2.0078,1.9973,1.9848,1.9762,1.9762,1.9744,1.9708,1.9723,1.9723,1.9723,1.9723,1.9723,1.9723,1.9723,1.9723,1.9723,1.9723,1.9723,1.9663,1.9136,1.8595,1.8252,1.7878,1.7563,1.7263,1.7189,1.7115,1.6802,1.6758,1.6577,1.6249,1.6204,1.6085,1.5772,1.5566,1.5477,1.5403,1.5223,1.4879,1.4414,1.4027,1.3477,1.24,1.1564,1.0892,4.0113,4.0113,4.0113,4.0113,4.0113,4.0113,3.9757,3.9123,0.0,0.0,0.0,3.6163,3.5808,3.5785,3.5667,3.5616,3.5616,3.5616,3.5278,3.4709,3.4692,3.4387,3.3812,3.3774,3.3664,3.3367,3.2705,3.2079,3.1522,3.0598,2.9889,2.9416,2.8491,2.7759,2.7225,2.572,2.4567,2.3804,2.3161,2.2808,2.2673,2.162,2.0927,2.0703,2.0154,1.9846,1.9797,1.9902,2.0061,2.0287,2.0492,2.0677,2.0778,2.099,2.1167,2.1246,2.1308,2.1386,2.1543,2.145,2.134,2.1293,2.1135,2.1038,2.1039,2.086,2.0629,2.0393,2.0272,2.0096,1.9833,1.978,1.9762,1.9708,1.9723,1.9723,1.9723,1.9723,1.9723,1.9723,1.9723,1.9723,1.9723,1.9723,1.9723,1.9723,1.9723,1.9723,1.9723,1.9648,1.939,1.8942,1.8508,1.8072,1.7908,1.7893,1.7848,1.7639,1.7623,1.7456,1.6976,1.6767,1.6498,1.6067,1.5712,1.5608,1.5531,1.5216,1.4869,1.47,1.4415,1.399,1.3237,1.216,1.1302,4.0113,4.0113,4.0113,4.0113,4.0113,4.0113,4.0045,3.9842,3.8497,3.7838,3.7702,3.6958,3.6643,3.6569,3.591,3.5616,3.5616,3.5616,3.5532,3.543,3.543,3.5397,3.5278,3.5295,3.4896,3.4179,3.384,3.2918,3.1512,3.0871,3.017,2.9353,2.8771,2.7934,2.6916,2.5948,2.5151,2.447,2.3819,2.3227,2.2703,2.2508,2.1844,2.0763,2.0613,2.034,1.9827,1.983,1.9975,2.0287,2.0339,2.0458,2.0693,2.076,2.0876,2.1119,2.1135,2.1198,2.1309,2.1262,2.1135,2.0909,2.081,2.0777,2.0827,2.0596,2.041,2.0321,2.0045,1.9866,1.9797,1.9744,1.9708,1.9723,1.9723,1.9723,1.9723,1.9723,1.9723,1.9723,1.9723,1.9723,1.9723,1.9723,1.9723,1.9723,1.9723,1.9723,1.9723,1.9723,1.9678,1.9588,1.948,1.9166,1.8702,1.8551,1.8356,1.7773,1.7739,1.7721,1.7495,1.7354,1.7215,1.7109,1.6498,1.6247,1.6368,1.5547,1.495,1.4648,1.4408,1.4054,1.3661,1.2964,1.2252,4.0113,4.0113,4.0113,4.0113,4.0113,4.0113,4.0113,4.0062,3.9402,3.8853,3.843,3.7719,3.7178,3.6795,3.6417,3.6011,3.5616,3.5616,3.5616,3.5616,3.5616,3.5616,3.56,3.5549,3.5296,3.4807,3.4178,3.3373,3.2387,3.1594,3.0695,2.9682,2.875,2.7777,2.6826,2.6375,2.5785,2.5143,2.447,2.3834,2.3191,2.2868,2.2403,2.1784,2.1111,2.0572,2.0295,1.9957,1.9884,2.001,2.0148,2.0272,2.0475,2.0525,2.0643,2.0859,2.0876,2.0925,2.1023,2.0973,2.0826,2.0594,2.0526,2.0458,2.0427,2.0375,2.0254,2.0061,1.9887,1.978,1.9762,1.9726,1.9723,1.9723,1.9723,1.9723,1.9723,1.9723,1.9723,1.9723,1.9723,1.9723,1.9723,1.9723,1.9723,1.9723,1.9723,1.9723,1.9723,1.9723,1.9723,1.9723,1.9708,1.9588,1.9286,1.9241,1.9106,1.8807,1.8738,1.8505,1.8219,1.7998,1.7715,1.7323,1.6903,1.6739,1.6768,1.5945,1.5289,1.5031,1.4482,1.4099,1.3822,1.3444,1.2826,4.0113,4.0113,4.0113,4.0113,4.0113,4.0113,4.0113,4.0113,4.0096,3.9791,3.9191,3.8464,3.7838,3.7303,3.6965,3.6434,3.5887,3.5684,3.5616,3.5616,3.5616,3.5616,3.5616,3.552,3.5423,3.5201,3.4396,3.3745,3.3152,3.2257,3.1211,3.0027,2.8801,2.7835,2.7229,2.696,2.6497,2.5854,2.5307,2.4649,2.3849,2.3227,2.2838,2.2628,2.1695,2.1006,2.0707,2.0235,1.9945,1.9812,1.9957,2.0113,2.0233,2.027,2.0388,2.0559,2.0575,2.0594,2.0678,2.0627,2.0492,2.0371,2.027,2.0183,2.0063,2.0115,2.0096,1.9851,1.978,1.9744,1.9708,1.9723,1.9723,1.9723,1.9723,1.9723,1.9723,1.9723,1.9723,1.9723,1.9723,1.9723,1.9723,1.9723,1.9723,1.9723,1.9723,1.9723,1.9723,1.9723,1.9723,1.9723,1.9723,1.9708,1.9723,1.9693,1.9663,1.969,1.957,1.9227,1.8815,1.8573,1.8298,1.775,1.7406,1.7346,1.7166,1.643,1.5895,1.5709,1.5043,1.4226,1.3901,1.3698,1.3266,4.0113,4.0113,4.0113,4.0113,4.0113,4.0113,4.0113,4.0113,4.0113,4.0079,3.9893,3.9208,3.8853,3.8616,3.7438,3.6795,3.6609,3.5943,3.5616,3.5616,3.5616,3.5616,3.56,3.552,3.5423,3.5268,3.48,3.4094,3.3242,3.2648,3.1665,3.0237,2.9193,2.8639,2.8364,2.7809,2.718,2.6527,2.6462,2.5794,2.456,2.3864,2.3236,2.2718,2.2583,2.1939,2.0838,2.0662,2.0352,1.9873,1.9845,1.9884,2.0008,2.0041,2.0061,2.0168,2.0168,2.022,2.0321,2.0252,2.0152,2.0133,2.0061,1.9973,1.9851,1.9851,1.9833,1.978,1.9759,1.9726,1.9723,1.9723,1.9723,1.9723,1.9723,1.9723,1.9723,1.9723,1.9723,1.9723,1.9723,1.9723,1.9723,1.9723,1.9723,1.9723,1.9723,1.9723,1.9723,1.9723,1.9723,1.9723,1.9723,1.9723,1.9723,1.9723,1.9723,1.969,1.956,1.9376,1.92,1.909,1.8919,1.8526,1.819,1.7975,1.7956,1.7416,1.6447,1.6395,1.5726,1.4788,1.4072,1.3913,1.3721,4.0113,4.0113,4.0113,4.0113,4.0113,4.0113,4.0113,4.0113,4.0113,4.0113,4.0079,3.9774,3.9436,3.8954,3.8369,3.7642,3.6795,3.6451,3.6045,3.5633,3.5616,3.5616,3.5577,3.5452,3.5354,3.5268,3.4828,3.4301,3.3622,3.2542,3.1523,3.0674,2.9826,2.9309,2.9157,2.8517,2.8038,2.7769,2.6991,2.6318,2.5749,2.4747,2.4088,2.3789,2.3086,2.2478,2.1904,2.1515,2.1011,2.04,2.0322,2.0182,1.9899,1.9884,1.9937,2.0028,2.0043,2.0061,2.0096,2.0078,2.0025,1.9922,1.9902,1.9833,1.9762,1.9744,1.9744,1.9744,1.9726,1.9723,1.9723,1.9723,1.9723,1.9723,1.9723,1.9723,1.9723,1.9723,1.9723,1.9723,1.9723,1.9723,1.9723,1.9723,1.9723,1.9723,1.9723,1.9723,1.9723,1.9723,1.9723,1.9723,1.9723,1.9723,1.9723,1.9723,1.9723,1.9672,1.9541,1.9409,1.9391,1.9228,1.9078,1.9012,1.8664,1.8464,1.8588,1.7903,1.7075,1.6973,1.6513,1.5657,1.5176,1.51,1.4977,4.0113,4.0113,4.0113,4.0113,4.0113,4.0113,4.0113,4.0113,4.0113,4.0113,4.0113,4.0113,3.9808,3.9334,3.9089,3.8379,3.7489,3.7178,3.6671,3.5994,3.5943,3.5819,3.5611,3.5406,3.5308,3.5222,3.4756,3.4316,3.3799,3.2578,3.1674,3.1204,3.048,3.0012,2.9801,2.919,2.8876,2.8757,2.7709,2.7141,2.6976,2.5854,2.4978,2.456,2.3714,2.3062,2.2688,2.2224,2.1665,2.1021,2.0972,2.0786,2.0362,2.0152,2.0008,1.9917,1.9919,1.9919,1.9919,1.9919,1.9974,2.0035,2.0032,2.0104,2.0202,2.0247,2.0243,2.0292,2.0262,2.0202,1.9723,1.9723,1.9768,1.9932,1.9959,2.0019,2.0247,2.0247,2.0198,2.0019,2.0052,1.9869,1.9738,1.9723,1.9723,1.9723,1.9723,1.9723,1.9723,1.9723,1.9723,1.9723,1.9723,1.9723,1.9723,1.9723,1.9723,1.9672,1.956,1.9465,1.9428,1.9246,1.9097,1.9036,1.8927,1.8836,1.8741,1.8167,1.7665,1.746,1.7056,1.6491,1.6032,1.6073,1.5923,4.0113,4.0113,4.0113,4.0113,4.0113,4.0113,4.0113,4.0113,4.0113,4.0113,4.0113,4.0113,4.0079,3.996,3.9326,3.8954,3.8751,3.8142,3.7432,3.6795,3.6745,3.6332,3.5633,3.5406,3.5341,3.5445,3.497,3.4271,3.3461,3.2846,3.2351,3.1918,3.1142,3.0659,3.0415,2.9849,2.9577,2.9487,2.8801,2.8457,2.8308,2.7156,2.5929,2.4829,2.4545,2.3954,2.2927,2.2688,2.2373,2.168,2.1665,2.1605,2.1535,2.0991,2.0412,1.9876,1.9771,1.9786,1.9816,1.9846,2.0052,2.0557,2.0662,2.0917,2.135,2.141,2.141,2.1545,2.144,2.1026,2.0067,1.9962,2.0109,2.0587,2.0662,2.0932,2.147,2.1395,2.1291,2.0808,2.0643,2.0408,1.9857,1.9723,1.9753,1.9738,1.9723,1.9723,1.9723,1.9723,1.9723,1.9723,1.9723,1.9723,1.9723,1.9723,1.9723,1.9672,1.9632,1.9538,1.9431,1.9321,1.9172,1.9074,1.8998,1.8922,1.8817,1.8579,1.8229,1.7956,1.7679,1.7214,1.695,1.6477,1.6373,4.0113,4.0113,4.0113,4.0113,4.0113,4.0113,4.0113,4.0113,4.0113,4.0113,4.0113,4.0113,4.0113,4.0096,3.9842,3.9453,3.9005,3.8717,3.821,3.7567,3.7499,3.7347,3.7081,3.6817,3.6721,3.6625,3.6158,3.5218,3.401,3.349,3.2844,3.2083,3.1643,3.1323,3.1061,3.0507,3.0178,3.0103,2.9577,2.9041,2.8652,2.8128,2.7245,2.5935,2.5442,2.4814,2.3969,2.3939,2.343,2.2388,2.2343,2.2149,2.1739,2.1485,2.1246,2.1006,2.0981,2.0996,2.0996,2.0981,2.1066,2.1291,2.1335,2.144,2.1635,2.1695,2.1695,2.171,2.1695,2.1395,2.1171,2.0996,2.1066,2.1276,2.135,2.144,2.162,2.1695,2.159,2.1395,2.1335,2.1066,2.0543,2.0348,2.0168,1.9813,1.9723,1.9738,1.9723,1.9723,1.9723,1.9723,1.9723,1.9723,1.9723,1.9723,1.9723,1.9672,1.9632,1.9578,1.9505,1.9395,1.9261,1.9191,1.9111,1.905,1.8946,1.8865,1.8569,1.8503,1.8224,1.8059,1.7923,1.7548,1.7454,4.0113,4.0113,4.0113,4.0113,4.0113,4.0113,4.0113,4.0113,4.0113,4.0113,4.0113,4.0113,4.0113,4.0113,4.0113,3.9859,3.9377,3.9343,3.8954,3.8294,3.8261,3.8142,3.7874,3.7672,3.7533,3.7394,3.6907,3.5936,3.4809,3.4319,3.3692,3.2867,3.2423,3.2101,3.1836,3.1209,3.0808,3.0688,3.0208,2.9639,2.922,2.8801,2.8203,2.7305,2.6611,2.5824,2.4978,2.4724,2.4231,2.343,2.3101,2.2703,2.2134,2.2029,2.1919,2.1739,2.168,2.1695,2.1695,2.1695,2.1784,2.2014,2.2009,2.2089,2.2263,2.2323,2.2323,2.2308,2.2308,2.2308,2.2308,2.2308,2.2233,2.2069,2.2029,2.2113,2.2278,2.2338,2.2248,2.2039,2.1784,2.1485,2.1141,2.1051,2.0827,2.0363,2.0168,2.0019,2.0019,1.9828,1.9723,1.9723,1.9723,1.9723,1.9723,1.9723,1.9723,1.969,1.9672,1.9632,1.9574,1.9465,1.9391,1.9321,1.9261,1.9168,1.9111,1.904,1.9007,1.8974,1.8883,1.8705,1.865,1.865,1.8364,4.0113,4.0113,4.0113,4.0113,4.0113,4.0113,4.0113,4.0113,4.0113,4.0113,4.0113,4.0113,4.0113,4.0113,4.0113,4.0079,4.0011,3.9977,3.9639,3.9022,3.8988,3.8667,3.8101,3.7997,3.7851,3.7669,3.6903,3.6265,3.5645,3.525,3.4789,3.432,3.3387,3.2926,3.2779,3.1957,3.1511,3.1361,3.0866,3.0492,3.0342,2.934,2.8712,2.8487,2.7884,2.6961,2.5779,2.5083,2.4724,2.4515,2.4014,2.334,2.2882,2.2733,2.2433,2.1964,2.1784,2.1769,2.1784,2.1844,2.2173,2.2568,2.2703,2.2892,2.3251,2.34,2.34,2.337,2.34,2.3475,2.3445,2.3415,2.3242,2.2823,2.2688,2.2912,2.331,2.3535,2.3355,2.2763,2.2269,2.1784,2.171,2.1695,2.1625,2.1395,2.1051,2.0722,2.0677,2.0333,1.9887,1.9824,1.9914,1.9959,1.9842,1.9723,1.9723,1.9723,1.969,1.9672,1.9632,1.9541,1.9483,1.9413,1.9358,1.9298,1.928,1.9228,1.9265,1.9246,1.9265,1.9195,1.9097,1.8965,1.8827,4.0113,4.0113,4.0113,4.0113,4.0113,4.0113,4.0113,4.0113,4.0113,4.0113,4.0113,4.0113,4.0113,4.0113,4.0113,4.0113,4.0113,4.0096,3.996,3.9774,3.974,3.9622,3.9386,3.9269,3.9059,3.8681,3.8204,3.742,3.6546,3.6058,3.5437,3.4565,3.3981,3.3622,3.3442,3.2661,3.2183,3.2093,3.1525,3.0972,3.0552,3.0118,2.9714,2.925,2.8622,2.8053,2.7664,2.6587,2.5779,2.5322,2.5091,2.4687,2.4088,2.3565,2.3236,2.3041,2.3011,2.2996,2.2996,2.2996,2.3041,2.3266,2.3317,2.3385,2.355,2.3595,2.3595,2.3595,2.3595,2.3595,2.3595,2.3595,2.3505,2.3362,2.3325,2.334,2.3535,2.3595,2.352,2.3355,2.3131,2.2847,2.2508,2.2388,2.2239,2.1844,2.1545,2.141,2.1335,2.1141,2.1081,2.1066,2.0782,2.0393,2.0363,2.0139,1.9899,1.9839,1.9779,1.969,1.9669,1.9632,1.9578,1.9523,1.9468,1.9431,1.9431,1.9428,1.9446,1.9428,1.9376,1.9321,1.9302,1.9191,1.9055,4.0113,4.0113,4.0113,4.0113,4.0113,4.0113,4.0113,4.0113,4.0113,4.0113,4.0113,4.0113,4.0113,4.0113,4.0113,4.0113,4.0113,4.0113,4.0113,4.0113,4.0113,4.0113,4.0087,3.991,3.9694,3.9352,3.8887,3.8228,3.7359,3.6869,3.6242,3.547,3.4728,3.4319,3.4152,3.3351,3.2796,3.2512,3.2079,3.1555,3.0957,3.0642,3.0313,2.9894,2.9295,2.8981,2.8891,2.7904,2.6901,2.6123,2.5764,2.5382,2.4963,2.4582,2.4238,2.4029,2.3954,2.3864,2.3655,2.352,2.3595,2.3595,2.3595,2.3595,2.3595,2.3595,2.3595,2.3595,2.3595,2.3595,2.3595,2.3595,2.3699,2.3969,2.3729,2.3625,2.3595,2.3595,2.3595,2.355,2.355,2.34,2.3167,2.3011,2.2877,2.2458,2.2203,2.2089,2.2009,2.1814,2.1784,2.168,2.135,2.1081,2.1002,2.0647,2.0154,2.0004,1.9899,1.9779,1.9705,1.9687,1.9632,1.9632,1.9596,1.9581,1.9563,1.9545,1.9545,1.9505,1.9487,1.9487,1.9468,1.9428,1.928,4.0113,4.0113,4.0113,4.0113,4.0113,4.0113,4.0113,4.0113,4.0113,4.0113,4.0113,4.0113,4.0113,4.0113,4.0113,4.0113,4.0113,4.0113,4.0113,4.0113,4.0113,4.0113,4.0087,3.9858,3.9651,3.9458,3.9023,3.8551,3.7987,3.7541,3.727,3.6705,3.5646,3.5063,3.4849,3.4074,3.329,3.2886,3.2662,3.2198,3.1585,3.1017,3.0642,3.0552,2.9968,2.9624,2.9535,2.8921,2.7964,2.6782,2.6078,2.5734,2.5659,2.5606,2.5187,2.4694,2.4664,2.4365,2.3924,2.3939,2.3894,2.3924,2.3924,2.3699,2.3909,2.3984,2.3969,2.3939,2.3909,2.3849,2.3864,2.3879,2.4148,2.447,2.4246,2.3954,2.3774,2.3819,2.3909,2.3789,2.367,2.361,2.355,2.352,2.349,2.3385,2.2996,2.2808,2.2673,2.2398,2.1964,2.1874,2.1949,2.1784,2.171,2.1216,2.0767,2.0617,2.0348,1.9989,1.9768,1.9705,1.969,1.969,1.969,1.969,1.969,1.9654,1.9636,1.9617,1.9632,1.965,1.9614,1.9556,1.9465,4.0113,4.0113,4.0113,4.0113,4.0113,4.0113,4.0113,4.0113,4.0113,4.0113,4.0113,4.0113,4.0113,4.0113,4.0113,4.0113,4.0113,4.0113,4.0113,4.0113,4.0113,4.0113,4.0062,3.9833,3.9677,3.9573,3.9077,3.8639,3.829,3.7831,3.7405,3.6969,3.6245,3.5795,3.5609,3.4706,3.4204,3.3918,3.344,3.2916,3.2303,3.2034,3.1749,3.1197,3.0612,3.0283,3.0208,2.9654,2.8723,2.7435,2.6716,2.6333,2.6303,2.5944,2.5615,2.542,2.5322,2.5277,2.5106,2.5016,2.5046,2.5076,2.4941,2.5076,2.5091,2.5061,2.5076,2.5076,2.5091,2.5031,2.5046,2.5046,2.5181,2.5247,2.5166,2.5046,2.4963,2.5076,2.4926,2.447,2.435,2.4126,2.3782,2.3655,2.364,2.358,2.3445,2.3295,2.3161,2.3131,2.2772,2.2832,2.2832,2.2598,2.2298,2.1784,2.144,2.1321,2.0902,2.0273,1.9974,1.9723,1.9723,1.9723,1.9705,1.9708,1.9708,1.969,1.9723,1.9723,1.9705,1.9687,1.9669,1.9614,1.9574,4.04,4.0113,4.0113,4.0113,4.0113,4.0113,4.0113,4.0113,4.0113,4.0113,4.0113,4.0113,4.0113,4.0113,4.0113,4.0113,4.0113,4.0113,4.0113,4.0113,4.0113,4.0113,4.0037,3.9833,3.9703,3.9625,3.9077,3.8683,3.8363,3.7934,3.7464,3.6984,3.6476,3.6163,3.5959,3.5322,3.4741,3.4503,3.4099,3.3589,3.2976,3.2632,3.2318,3.1839,3.1256,3.0823,3.0507,3.0148,2.9355,2.8274,2.7634,2.7305,2.7031,2.6677,2.6318,2.6078,2.6019,2.589,2.5644,2.56,2.56,2.56,2.56,2.56,2.557,2.56,2.56,2.5555,2.56,2.56,2.5636,2.5839,2.6004,2.6048,2.6258,2.6198,2.5704,2.5555,2.545,2.5166,2.4978,2.4754,2.4111,2.4044,2.3879,2.3684,2.3595,2.355,2.3535,2.3595,2.358,2.3445,2.3385,2.3116,2.2868,2.2428,2.2089,2.1954,2.1545,2.0872,2.0243,1.9872,1.9738,1.9738,1.9723,1.9723,1.9723,1.9723,1.9723,1.9723,1.9723,1.9723,1.9672,1.9672,1.9632,4.0815,4.0214,4.013,4.0113,4.0113,4.0113,4.0113,4.0113,4.0113,4.0113,4.0113,4.0113,4.0113,4.0113,4.0113,4.0113,4.0113,4.0113,4.0113,4.0113,4.0113,4.0087,4.002,3.9807,3.9703,3.9625,3.9077,3.8683,3.8363,3.7934,3.7464,3.6984,3.6461,3.6179,3.5973,3.5623,3.5192,3.4756,3.4683,3.4247,3.3649,3.317,3.2871,3.2527,3.1944,3.1286,3.0866,3.0567,3.0073,2.8876,2.8742,2.8308,2.7809,2.769,2.7345,2.6841,2.6701,2.6452,2.5989,2.6004,2.5914,2.5974,2.5944,2.5809,2.5974,2.6048,2.6033,2.6063,2.5815,2.5989,2.6048,2.6408,2.6647,2.6776,2.721,2.6926,2.6168,2.5809,2.5794,2.5719,2.5719,2.5367,2.4948,2.4649,2.45,2.4388,2.4148,2.3917,2.3834,2.3714,2.367,2.3565,2.355,2.3565,2.3325,2.3107,2.2793,2.2523,2.2128,2.1515,2.0647,2.0217,1.9917,1.9768,1.9738,1.9723,1.9723,1.9723,1.9723,1.9723,1.9723,1.9723,1.9723,1.9705,1.9669,4.1119,4.0916,4.035,4.0113,4.0113,4.0113,4.0113,4.0113,4.0113,4.0113,4.0113,4.0113,4.0113,4.0113,4.0113,4.0113,4.0113,4.0113,4.0113,4.0113,4.0113,4.0037,3.9935,3.9772,3.9703,3.953,3.9077,3.8683,3.8363,3.7992,3.7569,3.6999,3.6585,3.6289,3.5973,3.5683,3.5474,3.5295,3.525,3.4906,3.4429,3.4068,3.3709,3.3245,3.2617,3.1959,3.1436,3.1286,3.0883,3.0193,2.9639,2.9131,2.8558,2.8382,2.8053,2.757,2.739,2.7315,2.718,2.7046,2.7151,2.7021,2.6976,2.7156,2.7165,2.7091,2.7106,2.7165,2.7156,2.7046,2.7031,2.7225,2.73,2.736,2.745,2.748,2.721,2.7121,2.6866,2.6527,2.6378,2.6138,2.551,2.542,2.5247,2.5106,2.4784,2.444,2.4201,2.4014,2.3909,2.3909,2.3819,2.3819,2.352,2.334,2.3182,2.2987,2.2673,2.2233,2.137,2.0831,2.0636,2.0202,1.9723,1.9753,1.9932,1.9723,1.9723,1.9723,1.9738,1.9798,1.9828,1.9783,1.9977,4.183,4.117,4.0764,4.0434,4.013,4.0113,4.0113,4.0113,4.0113,4.0113,4.0113,4.0113,4.0113,4.0113,4.0113,4.0113,4.0113,4.0113,4.0113,4.0087,4.0037,3.9977,3.9849,3.9642,3.9494,3.9415,3.904,3.8639,3.8274,3.7947,3.7524,3.6999,3.6585,3.6226,3.5973,3.5683,3.5489,3.5474,3.5489,3.5295,3.5011,3.4653,3.4189,3.3619,3.3125,3.2662,3.2034,3.1959,3.16,3.1062,3.0657,3.0028,2.925,2.9041,2.8727,2.8214,2.8079,2.7869,2.7705,2.7585,2.7555,2.7615,2.76,2.7585,2.7585,2.7585,2.7585,2.7585,2.757,2.7585,2.7585,2.7585,2.7585,2.7585,2.7585,2.7585,2.7585,2.7585,2.751,2.7165,2.7076,2.6716,2.6348,2.6123,2.5809,2.5555,2.539,2.5053,2.5053,2.4829,2.45,2.4365,2.4223,2.4029,2.3714,2.352,2.3445,2.3325,2.3206,2.2793,2.2194,2.1789,2.1505,2.0951,2.0363,2.0213,2.0288,2.0019,1.9828,1.9753,1.9798,1.9902,2.0064,2.0273,2.0572,4.2675,4.1542,4.1424,4.0984,4.0485,4.035,4.0333,4.0299,4.013,4.0113,4.0113,4.0113,4.0113,4.0113,4.0113,4.0113,4.0113,4.0113,4.0113,4.0037,3.9977,3.9849,3.9703,3.9484,3.9245,3.9164,3.8849,3.8483,3.8144,3.7786,3.7435,3.6969,3.6461,3.6148,3.5941,3.5668,3.5489,3.5489,3.5489,3.5489,3.5385,3.4968,3.4397,3.3844,3.3679,3.332,3.2811,3.2617,3.2333,3.172,3.1645,3.1016,3.0223,2.9741,2.9457,2.8801,2.8757,2.8547,2.8259,2.8049,2.8034,2.7899,2.7794,2.7779,2.7794,2.7675,2.7585,2.7585,2.7585,2.7585,2.7585,2.7585,2.7585,2.7585,2.7585,2.7585,2.7585,2.7585,2.7555,2.7555,2.742,2.7136,2.6941,2.6731,2.6348,2.6033,2.5884,2.5764,2.5764,2.5585,2.5181,2.4948,2.4799,2.447,2.4126,2.364,2.358,2.3565,2.3535,2.3221,2.2882,2.2703,2.2293,2.165,2.1186,2.0991,2.0797,2.0662,2.0393,2.0019,2.0139,2.0557,2.0752,2.0823,2.1141,4.324,4.297,4.2371,4.2059,4.1856,4.1288,4.1001,4.0899,4.04,4.0113,4.0113,4.0113,4.0113,4.0113,4.0113,4.0113,4.0113,4.0113,4.002,3.9961,3.9875,3.9729,3.9458,3.9272,3.9002,3.8644,3.848,3.8371,3.803,3.7682,3.727,3.6938,3.6445,3.6116,3.591,3.5683,3.5489,3.5489,3.5489,3.5489,3.5444,3.531,3.4966,3.4414,3.4354,3.3963,3.3499,3.3305,3.3021,3.2407,3.2333,3.1884,3.1227,3.0672,3.0118,2.9579,2.9442,2.928,2.9071,2.9157,2.9247,2.9157,2.8753,2.8442,2.8308,2.8004,2.7884,2.7779,2.775,2.766,2.76,2.769,2.7615,2.76,2.7585,2.7585,2.7585,2.7585,2.7585,2.7585,2.757,2.7555,2.7345,2.721,2.7016,2.6737,2.6572,2.6467,2.6437,2.6123,2.5674,2.554,2.5442,2.5023,2.4605,2.4007,2.367,2.3699,2.3655,2.3565,2.334,2.343,2.3086,2.2383,2.1889,2.1605,2.144,2.1291,2.1141,2.0887,2.1096,2.1335,2.144,2.1545,2.162,4.3792,4.3375,4.3014,4.2642,4.2269,4.1931,4.1542,4.1187,4.0815,4.0451,4.018,4.0113,4.0113,4.0113,4.0113,4.0113,4.0113,4.0113,4.0011,3.9901,3.9746,3.9563,3.9268,3.9035,3.8628,3.8375,3.8354,3.8179,3.7743,3.7447,3.7152,3.6708,3.6304,3.6037,3.5846,3.5619,3.5519,3.5519,3.5504,3.5489,3.5489,3.5489,3.5265,3.5115,3.4951,3.4651,3.4158,3.4039,3.3679,3.317,3.3021,3.2647,3.2153,3.1689,3.1091,3.0298,3.0073,2.9936,2.9669,2.9621,2.9577,2.9562,2.9265,2.9131,2.9056,2.8873,2.8573,2.8603,2.8603,2.8483,2.8188,2.8113,2.7934,2.766,2.763,2.7645,2.76,2.7615,2.7615,2.7615,2.7585,2.7585,2.7585,2.751,2.757,2.7465,2.727,2.7165,2.7061,2.6761,2.6303,2.6078,2.5959,2.5546,2.5113,2.4575,2.4148,2.4088,2.3864,2.3759,2.364,2.3655,2.3475,2.3026,2.2622,2.2233,2.2039,2.1874,2.1814,2.1754,2.171,2.1754,2.2054,2.2233,2.2308,4.4215,4.3656,4.3656,4.3301,4.2777,4.2574,4.2219,4.1677,4.1322,4.0865,4.0367,4.018,4.0113,4.0113,4.0113,4.0113,4.013,4.0206,4.0247,4.0176,4.0081,3.985,3.949,3.9068,3.8753,3.867,3.8504,3.8226,3.7785,3.7635,3.7313,3.7077,3.6636,3.6286,3.6215,3.5992,3.5791,3.5669,3.5519,3.5489,3.5489,3.5489,3.5489,3.5489,3.5489,3.5205,3.4741,3.4681,3.4322,3.3903,3.3634,3.3395,3.2856,3.2721,3.2138,3.1135,3.0806,3.0432,3.0193,3.0073,3.0178,3.0193,2.9906,2.9816,2.9699,2.9564,2.9502,2.9621,2.9532,2.9322,2.8861,2.8786,2.8562,2.8289,2.8109,2.7989,2.7929,2.7884,2.7779,2.7735,2.7645,2.7615,2.7645,2.7585,2.7585,2.7585,2.742,2.7435,2.7345,2.7405,2.7076,2.6692,2.6408,2.6033,2.5621,2.5217,2.4889,2.4784,2.438,2.4051,2.3872,2.3759,2.3565,2.34,2.3191,2.2838,2.2643,2.2538,2.2547,2.2458,2.2188,2.2263,2.2682,2.2877,2.2936,4.4564,4.4462,4.4445,4.4412,4.4192,4.3555,4.325,4.2946,4.1813,4.117,4.1018,4.0409,4.0163,4.0197,4.0231,4.018,4.0316,4.0686,4.0824,4.0705,4.0834,4.0687,4.0449,4.0162,3.9457,3.9106,3.8921,3.8607,3.8216,3.8196,3.8219,3.7962,3.7539,3.7421,3.7101,3.6603,3.6405,3.6252,3.5789,3.5489,3.5489,3.5489,3.5489,3.5489,3.5489,3.5444,3.5265,3.522,3.4981,3.4488,3.4399,3.4038,3.3514,3.338,3.3006,3.2318,3.1765,3.1346,3.1167,3.1047,3.1032,3.0898,3.0702,3.0447,3.0328,3.0028,2.9804,2.9621,2.9669,2.9654,2.9535,2.9475,2.94,2.9265,2.9082,2.8858,2.8637,2.8483,2.8349,2.8049,2.8019,2.7824,2.7735,2.766,2.7585,2.7585,2.7585,2.7585,2.7585,2.7585,2.7585,2.7195,2.6931,2.6587,2.6288,2.5869,2.5606,2.5486,2.4978,2.4485,2.441,2.4268,2.3834,2.367,2.352,2.3422,2.3191,2.3146,2.3281,2.3161,2.2892,2.3071,2.3415,2.352,2.346,4.4598,4.4598,4.4598,4.4598,4.4564,4.4198,4.3809,4.3308,4.2733,4.2202,4.1745,4.1052,4.0713,4.0764,4.1128,4.1313,4.1319,4.1483,4.1429,4.1145,4.1151,4.0925,4.0388,3.9983,3.9534,3.9295,3.9142,3.9067,3.8723,3.8394,3.8259,3.8089,3.7873,3.7579,3.7676,3.7199,3.6806,3.6402,3.5878,3.5519,3.5489,3.5489,3.5489,3.5489,3.5489,3.5489,3.5489,3.5489,3.54,3.507,3.5055,3.4741,3.4233,3.3993,3.3739,3.311,3.2407,3.1899,3.154,3.1525,3.1496,3.1481,3.1227,3.1106,3.1002,3.0821,3.0627,3.0702,3.0702,3.0507,3.0178,3.0103,2.9879,2.9774,2.9804,2.9549,2.9295,2.922,2.9041,2.8723,2.8408,2.8274,2.8109,2.7959,2.7809,2.7585,2.7585,2.7585,2.7585,2.7585,2.7585,2.754,2.736,2.7171,2.6941,2.6626,2.6303,2.6078,2.56,2.5202,2.5128,2.4889,2.447,2.4231,2.4186,2.4007,2.3774,2.355,2.346,2.352,2.358,2.3684,2.3759,2.3684,2.3714,4.4598,4.4598,4.4598,4.4598,4.4598,4.4598,4.4248,4.3741,4.3426,4.3064,4.2506,4.183,4.1457,4.1559,4.1965,4.2064,4.2055,4.2263,4.2055,4.1707,4.1451,4.1214,4.084,4.0293,3.975,3.9117,3.9419,3.9383,3.9139,3.8823,3.8512,3.8204,3.8381,3.8187,3.7948,3.7704,3.7345,3.6462,3.6058,3.5729,3.5549,3.5489,3.5489,3.5489,3.5489,3.5489,3.5489,3.5489,3.5489,3.5459,3.5429,3.516,3.4833,3.4711,3.4397,3.3844,3.3275,3.2811,3.2228,3.1854,3.157,3.1496,3.1496,3.1406,3.1436,3.1496,3.1481,3.1331,3.1346,3.1107,3.0883,3.0761,3.0627,3.0402,3.0238,3.0028,2.9864,2.9819,2.9624,2.9232,2.8992,2.8933,2.8723,2.8423,2.8094,2.7705,2.7585,2.7615,2.7615,2.7645,2.7585,2.7585,2.754,2.7435,2.733,2.7121,2.6911,2.6671,2.6183,2.5914,2.5839,2.557,2.5181,2.4993,2.4874,2.4754,2.4597,2.4088,2.361,2.3655,2.3744,2.3894,2.3954,2.3924,2.4148,4.4598,4.4598,4.4598,4.4598,4.4598,4.4598,4.4564,4.4333,4.3741,4.3392,4.3149,4.2625,4.2303,4.2286,4.2422,4.2443,4.2223,4.2691,4.2599,4.2551,4.2558,4.2134,4.1582,4.0998,4.0575,4.0132,3.9878,3.9662,3.9576,3.9243,3.9309,3.951,3.9052,3.9191,3.8945,3.8392,3.7704,3.6911,3.6432,3.6043,3.5729,3.5549,3.5489,3.5489,3.5489,3.5489,3.5489,3.5489,3.5489,3.5489,3.5489,3.5489,3.528,3.525,3.4906,3.4502,3.4158,3.3724,3.3215,3.2228,3.1585,3.1511,3.1496,3.1496,3.1496,3.1496,3.1496,3.1496,3.1496,3.1466,3.1376,3.1391,3.1167,3.1062,3.0851,3.0731,3.0582,3.0477,3.0238,2.9786,2.9577,2.9532,2.9382,2.9082,2.8708,2.8334,2.7914,2.7914,2.7764,2.775,2.763,2.7585,2.7585,2.7555,2.757,2.7405,2.7255,2.7121,2.6821,2.6626,2.6512,2.6198,2.5974,2.5674,2.554,2.548,2.5315,2.4702,2.4208,2.3924,2.3954,2.4373,2.4619,2.4724,2.5031,4.4598,4.4598,4.4598,4.4598,4.4598,4.4598,4.4598,4.4564,4.4265,4.3826,4.3426,4.3572,4.342,4.32,4.3538,4.3597,4.3362,4.3375,4.3194,4.2752,4.2504,4.2109,4.1588,4.1133,4.0509,4.0237,3.9884,3.9625,3.9502,3.9559,3.9439,3.9445,3.9499,3.9409,3.9149,3.8811,3.8138,3.7614,3.6944,3.6327,3.6148,3.5669,3.5489,3.5489,3.5489,3.5489,3.5489,3.5489,3.5489,3.5489,3.5489,3.5489,3.5489,3.5489,3.534,3.5026,3.4756,3.4397,3.3978,3.2901,3.1974,3.154,3.1496,3.1555,3.1645,3.1555,3.1511,3.1496,3.1585,3.1675,3.154,3.1511,3.1436,3.1481,3.1421,3.1286,3.1167,3.1031,3.0941,3.0492,3.0268,3.0133,2.9953,2.9744,2.9355,2.8951,2.8532,2.8188,2.8139,2.7929,2.7824,2.7675,2.766,2.76,2.7585,2.7585,2.76,2.7465,2.733,2.7195,2.7046,2.718,2.6926,2.6551,2.6153,2.6048,2.5764,2.5226,2.4881,2.4702,2.4837,2.5128,2.5352,2.5546,2.5839,4.4598,4.4598,4.4598,4.4598,4.4598,4.4598,4.4598,4.4598,4.4581,4.4316,4.3809,4.4361,4.4316,4.4045,4.4248,4.4333,4.4076,4.4027,4.3713,4.3369,4.2945,4.2406,4.1902,4.1415,4.1061,4.0572,4.032,4.0177,4.0179,4.0038,4.0113,4.0083,3.9783,3.9679,3.9305,3.8975,3.8601,3.8167,3.7659,3.6765,3.6522,3.6088,3.5624,3.5579,3.5489,3.5489,3.5489,3.5489,3.5489,3.5489,3.5489,3.5489,3.5489,3.5489,3.5489,3.5325,3.5115,3.4786,3.4442,3.3589,3.2647,3.2333,3.2213,3.2183,3.2079,3.2079,3.2273,3.2213,3.2168,3.2093,3.2019,3.2049,3.1929,3.1959,3.157,3.1406,3.1406,3.1301,3.1346,3.1241,3.1017,3.0791,3.0731,3.0507,2.9983,2.9564,2.9131,2.8861,2.8801,2.8502,2.8083,2.7944,2.7764,2.7675,2.7585,2.766,2.769,2.757,2.748,2.751,2.748,2.76,2.757,2.7136,2.6806,2.6641,2.6452,2.6243,2.5899,2.5555,2.5734,2.5914,2.6333,2.6542,2.6587,4.457,4.4598,4.4598,4.4598,4.4598,4.4598,4.4598,4.4598,4.4598,4.4547,4.4445,4.4598,4.4581,4.4513,4.4637,4.4586,4.4432,4.466,4.4519,4.4023,4.3748,4.3645,4.309,4.2412,4.1738,4.181,4.1399,4.1093,4.116,4.101,4.1085,4.0935,4.0472,3.9948,3.9469,3.9373,3.905,3.8497,3.8332,3.7569,3.6926,3.6615,3.6193,3.5789,3.5669,3.5699,3.5504,3.5489,3.5489,3.5489,3.5489,3.5489,3.5489,3.5489,3.5489,3.5459,3.5444,3.54,3.534,3.4173,3.3559,3.3215,3.2991,3.3095,3.3305,3.3335,3.3185,3.2961,3.314,3.3245,3.314,3.2871,3.2617,3.2378,3.2019,3.1765,3.1795,3.172,3.1765,3.1555,3.1496,3.1451,3.1436,3.1256,3.0644,3.0178,2.9744,2.9535,2.9475,2.9101,2.8637,2.8502,2.8349,2.8274,2.8214,2.7899,2.7794,2.7675,2.7705,2.7824,2.775,2.7675,2.7615,2.751,2.736,2.7106,2.7285,2.7465,2.6886,2.6378,2.6477,2.6701,2.718,2.739,2.7255,4.4412,4.4412,4.4542,4.4598,4.4598,4.4598,4.4598,4.4598,4.4598,4.4598,4.4598,4.4598,4.4598,4.4716,4.5066,4.5108,4.4984,4.5222,4.5167,4.4659,4.4356,4.3799,4.3372,4.2948,4.2377,4.2036,4.1723,4.1625,4.1377,4.161,4.1482,4.1257,4.0868,4.0068,3.9553,3.9388,3.9209,3.902,3.8646,3.8138,3.7734,3.7315,3.6821,3.6207,3.6148,3.5968,3.5609,3.5594,3.5564,3.5504,3.5489,3.5489,3.5489,3.5489,3.5489,3.5489,3.5489,3.5489,3.5459,3.4906,3.4382,3.3918,3.3619,3.3649,3.3529,3.3514,3.3499,3.3574,3.3679,3.3664,3.3365,3.332,3.317,3.317,3.2901,3.2602,3.2497,3.2273,3.2138,3.1705,3.1496,3.157,3.16,3.1525,3.1047,3.0793,3.0417,3.0238,3.0163,2.9699,2.9235,2.9262,2.9157,2.9067,2.8903,2.8618,2.8573,2.8648,2.8483,2.8323,2.8199,2.8034,2.7779,2.7735,2.766,2.7585,2.7585,2.757,2.7435,2.721,2.7121,2.7106,2.736,2.7525,2.7495,4.431,4.4338,4.4514,4.4598,4.4598,4.4598,4.4598,4.4598,4.4598,4.4598,4.4598,4.4598,4.4801,4.506,4.5404,4.5765,4.5591,4.6048,4.5892,4.5391,4.5064,4.4691,4.4196,4.3583,4.3337,4.2817,4.2576,4.2485,4.2476,4.2386,4.2227,4.1851,4.1183,4.0546,3.9984,3.9597,3.9373,3.9209,3.896,3.8646,3.8287,3.7898,3.7434,3.6985,3.6731,3.6522,3.6058,3.5818,3.5729,3.5609,3.5519,3.5504,3.5504,3.5489,3.5489,3.5489,3.5489,3.5489,3.5474,3.5459,3.4921,3.4442,3.4203,3.4188,3.4188,3.4337,3.4307,3.4277,3.4128,3.4143,3.4143,3.4083,3.3844,3.3829,3.3559,3.326,3.3051,3.2871,3.2766,3.2243,3.2064,3.2019,3.1809,3.157,3.1361,3.1227,3.1092,3.0956,3.0761,3.0298,2.9894,2.9879,2.9756,2.9532,2.9442,2.9352,2.9382,2.9577,2.9295,2.8951,2.8891,2.8783,2.8364,2.7979,2.8038,2.7979,2.769,2.7555,2.7615,2.7585,2.7465,2.7495,2.7585,2.7645,2.769,4.4281,4.4338,4.4514,4.4587,4.4598,4.4598,4.4598,4.4598,4.4598,4.4598,4.4598,4.4598,4.4925,4.5551,4.5737,4.6001,4.6404,4.6891,4.6697,4.6305,4.6072,4.5754,4.5326,4.4812,4.43,4.4182,4.3991,4.367,4.392,4.3615,4.325,4.2727,4.1934,4.1242,4.0559,3.9922,3.9586,3.9364,3.9269,3.8975,3.8661,3.8482,3.8048,3.7674,3.7404,3.709,3.6716,3.6492,3.6148,3.5878,3.5609,3.5549,3.5519,3.5489,3.5489,3.5489,3.5489,3.5489,3.5489,3.5489,3.5474,3.513,3.525,3.5415,3.531,3.5115,3.504,3.507,3.504,3.5205,3.5295,3.4906,3.4548,3.4307,3.4038,3.3799,3.3604,3.3484,3.3455,3.3275,3.32,3.3021,3.2542,3.2183,3.1809,3.1645,3.1511,3.1316,3.1107,3.0896,3.0567,3.0507,3.0283,2.9921,2.9876,3.0058,3.0133,3.0313,2.9909,2.9594,2.9549,2.9457,2.9022,2.8697,2.8596,2.8461,2.8323,2.8139,2.8,2.797,2.8124,2.775,2.7809,2.7854,2.7884,4.3935,4.4167,4.431,4.4468,4.457,4.4598,4.4598,4.4598,4.4598,4.4598,4.4598,4.4598,4.5043,4.5703,4.6244,4.6722,4.7234,4.7573,4.7554,4.7274,4.6799,4.6391,4.5977,4.5557,4.5173,4.4874,4.4648,4.4572,4.4404,4.432,4.4112,4.3539,4.2463,4.1827,4.12,4.0393,3.9836,3.9496,3.946,3.9296,3.9146,3.9071,3.8667,3.8322,3.8157,3.7783,3.7349,3.7165,3.6806,3.6342,3.6207,3.6058,3.5504,3.5489,3.5489,3.5489,3.5489,3.5489,3.5489,3.5489,3.5489,3.5489,3.5489,3.5489,3.5489,3.5489,3.5489,3.5489,3.5489,3.5489,3.5489,3.5235,3.5026,3.4861,3.4651,3.4517,3.4322,3.4188,3.4128,3.3888,3.3829,3.3604,3.314,3.2691,3.2332,3.2138,3.1944,3.178,3.1496,3.1271,3.1062,3.0987,3.0941,3.0567,3.0776,3.0957,3.0987,3.0957,3.0539,3.0238,3.0178,2.9983,2.9636,2.934,2.9119,2.9104,2.9146,2.8933,2.873,2.8948,2.9082,2.8468,2.8034,2.8199,2.8319,4.3641,4.3923,4.4196,4.4412,4.457,4.4598,4.4598,4.4598,4.4598,4.4598,4.4598,4.4598,4.5145,4.6126,4.6633,4.722,4.8065,4.8134,4.8064,4.7671,4.7302,4.6789,4.6369,4.6028,4.5667,4.541,4.5247,4.5157,4.4949,4.4739,4.4534,4.4243,4.2936,4.2321,4.1715,4.0739,3.9945,3.9711,3.964,3.964,3.9604,3.9604,3.9339,3.9063,3.8943,3.8497,3.7982,3.7893,3.7464,3.6881,3.6716,3.6342,3.5818,3.5699,3.5504,3.5489,3.5489,3.5489,3.5489,3.5489,3.5489,3.5489,3.5489,3.5489,3.5489,3.5489,3.5489,3.5489,3.5489,3.5489,3.5489,3.5489,3.5474,3.5459,3.537,3.528,3.51,3.4921,3.4681,3.4397,3.4188,3.4008,3.3649,3.32,3.2901,3.2841,3.2781,3.2677,3.2213,3.1735,3.1481,3.1301,3.1346,3.1286,3.1525,3.157,3.1421,3.1316,3.1152,3.0883,3.0793,3.0672,3.0417,2.9986,2.9525,2.9567,2.9624,2.9648,2.9555,2.9768,2.9744,2.9262,2.8888,2.8903,2.8992,4.3432,4.3628,4.4109,4.4412,4.4587,4.457,4.4598,4.4598,4.4598,4.4598,4.4598,4.4598,4.5365,4.6447,4.6802,4.7605,4.8262,4.8545,4.834,4.8001,4.7588,4.7098,4.6719,4.6369,4.6191,4.5977,4.5832,4.5708,4.5541,4.5336,4.512,4.4871,4.3437,4.2643,4.2247,4.0969,4.0288,4.0207,4.0137,4.0101,3.9975,3.9975,4.0011,3.9879,3.9667,3.94,3.8893,3.8517,3.8167,3.7524,3.7075,3.6761,3.6267,3.5833,3.5579,3.5489,3.5489,3.5489,3.5489,3.5489,3.5489,3.5489,3.5489,3.5489,3.5489,3.5489,3.5489,3.5489,3.5489,3.5489,3.5489,3.5489,3.5489,3.5489,3.5444,3.54,3.5325,3.522,3.513,3.4906,3.4771,3.4592,3.4442,3.4008,3.3574,3.3559,3.335,3.326,3.3036,3.2392,3.2183,3.1929,3.2019,3.2064,3.1795,3.1809,3.163,3.1525,3.1481,3.1376,3.1167,3.1182,3.127,3.0778,3.0287,3.0061,3.0013,3.0188,3.0293,3.0205,3.0148,2.9924,2.9759,2.9759,2.9684,4.3068,4.3509,4.4035,4.4338,4.4395,4.4542,4.4598,4.4598,4.4598,4.4598,4.4598,4.4699,4.5427,4.6633,4.6786,4.7584,4.8638,4.8721,4.85,4.8212,4.7853,4.7487,4.7132,4.6927,4.6772,4.6633,4.6458,4.6262,4.6048,4.5868,4.5656,4.5222,4.3986,4.3203,4.2916,4.1601,4.1009,4.099,4.094,4.0696,4.0365,4.0122,4.0011,4.0011,3.9864,3.9778,3.9451,3.9329,3.8862,3.8262,3.8063,3.7449,3.6537,3.5878,3.5549,3.5489,3.5489,3.5489,3.5489,3.5489,3.5489,3.5489,3.5489,3.5489,3.5489,3.5489,3.5489,3.5489,3.5489,3.5489,3.5489,3.5489,3.5489,3.5489,3.5489,3.5489,3.5489,3.5489,3.5489,3.5415,3.531,3.519,3.5055,3.4786,3.4429,3.4008,3.3619,3.3469,3.3574,3.3275,3.332,3.3125,3.3036,3.2946,3.2497,3.2228,3.2153,3.1854,3.172,3.163,3.1525,3.1436,3.1376,3.1376,3.1137,3.0793,3.0731,3.1046,3.1076,3.0793,3.0718,3.0612,3.0746,3.0763,3.0597,4.2634,4.3082,4.3713,4.4093,4.431,4.444,4.4497,4.457,4.4598,4.4598,4.4598,4.4716,4.5415,4.665,4.6786,4.7614,4.8768,4.8846,4.8707,4.8485,4.8164,4.7869,4.7621,4.742,4.7251,4.7115,4.6945,4.6738,4.6545,4.6369,4.6092,4.5786,4.4744,4.3999,4.3733,4.278,4.2081,4.2141,4.2013,4.1701,4.1086,4.076,4.0373,4.0261,4.0172,4.0066,3.9945,3.9824,3.9435,3.8938,3.8597,3.7663,3.6776,3.6178,3.5818,3.5594,3.5489,3.5489,3.5504,3.5489,3.5489,3.5489,3.5489,3.5489,3.5489,3.5489,3.5489,3.5489,3.5489,3.5489,3.5489,3.5489,3.5489,3.5489,3.5489,3.5489,3.5489,3.5489,3.5489,3.5474,3.5415,3.5385,3.528,3.5265,3.4936,3.4906,3.4442,3.4307,3.4292,3.4128,3.4188,3.4158,3.3963,3.3604,3.311,3.2916,3.2871,3.2512,3.2064,3.1839,3.1735,3.1585,3.1481,3.16,3.1615,3.1391,3.1421,3.154,3.1511,3.1227,3.1286,3.1361,3.1496,3.1496,3.1212,4.2205,4.2696,4.3342,4.3864,4.4224,4.4293,4.4412,4.4542,4.457,4.4598,4.4649,4.4733,4.5602,4.6397,4.6989,4.7953,4.8615,4.8827,4.8832,4.8644,4.8325,4.8147,4.8001,4.7803,4.7704,4.7537,4.7386,4.7285,4.7149,4.6927,4.6671,4.6454,4.5827,4.5088,4.4757,4.4104,4.3381,4.3233,4.3113,4.3075,4.2478,4.1682,4.1044,4.0674,4.0447,4.0362,4.0191,4.0001,3.9773,3.9339,3.8842,3.7993,3.727,3.6746,3.6237,3.5953,3.5789,3.5684,3.5534,3.5489,3.5489,3.5489,3.5504,3.5534,3.5549,3.5549,3.5549,3.5549,3.5549,3.5504,3.5504,3.5489,3.5489,3.5489,3.5489,3.5489,3.5489,3.5489,3.5489,3.5489,3.5489,3.5489,3.5489,3.5474,3.5489,3.5489,3.5489,3.5489,3.537,3.504,3.4891,3.4771,3.4592,3.4173,3.3709,3.3604,3.3559,3.314,3.2721,3.2288,3.2034,3.2183,3.2183,3.1989,3.1944,3.1839,3.1675,3.1645,3.16,3.16,3.1496,3.1496,3.1496,3.1496,3.1496,4.1677,4.2899,4.3372,4.3747,4.3998,4.4179,4.4338,4.4367,4.4542,4.4598,4.4739,4.5297,4.6024,4.6836,4.7496,4.824,4.8832,4.894,4.8894,4.8755,4.8612,4.85,4.8373,4.8212,4.8115,4.7951,4.7803,4.7704,4.7521,4.7352,4.7132,4.6793,4.6176,4.5617,4.5163,4.461,4.4222,4.4151,4.3997,4.3838,4.3189,4.2431,4.1701,4.1221,4.0797,4.0523,4.0296,4.0226,3.9965,3.9556,3.8932,3.8352,3.7868,3.7404,3.6911,3.6477,3.6297,3.6103,3.5953,3.5833,3.5848,3.5789,3.5804,3.5759,3.5774,3.5744,3.5744,3.5729,3.5699,3.5579,3.5549,3.5504,3.5489,3.5489,3.5489,3.5489,3.5489,3.5489,3.5489,3.5489,3.5489,3.5489,3.5489,3.5489,3.5489,3.5489,3.5489,3.5489,3.5489,3.5489,3.5489,3.531,3.51,3.4831,3.4459,3.4307,3.4188,3.3769,3.338,3.3051,3.2946,3.314,3.3066,3.2706,3.2512,3.2407,3.2213,3.2108,3.1869,3.1869,3.16,3.1496,3.1555,3.172,3.1929]}]]